[[{"header":{"parameterUnit":"m.s-1","parameterCategory":1,"la1":30.6,"la2":29.2853,"lo1":-89.7004,"lo2":-87.6739,"dy":0.0162,"dx":0.0183,"nx":112,"ny":82,"refTime":"2024-06-11T18:00:00:Z","depth":0,"parameterNumber":2,"parameterNumberName":"U-component_of_WINDS"},"data":[0.0,0.0,0.0,0.0,0.0,0.0,0.0,0.0,0.0,0.0,0.0,0.0,0.0,0.0,0.0,0.0,0.0,0.0,0.0,0.0,0.0,0.0,0.0,0.0,0.0,0.0,0.0,0.0,0.0,0.0,0.0,0.0,0.0,0.0,0.0,0.0,0.0,0.0,0.0,0.0,0.0,0.0,0.0,0.0,0.0,0.0,0.0,0.0,0.0,0.0,0.0,0.0,0.0,0.0,0.0,0.0,0.0,0.0,0.0,0.0,0.0,0.0,0.0,0.0,0.0,0.0,0.0,0.0,0.0,0.0,0.0,0.0,0.0,0.0,0.0,0.0,0.0,0.0,0.0,0.0,0.0,0.0,0.0,0.0,0.0,0.0,0.0,0.0,0.0,0.0,-4.5412,-4.7592,-4.9548,-5.0914,-5.1462,-5.0087,-4.8105,-4.5556,0.0,0.0,0.0,0.0,0.0,0.0,0.0,0.0,0.0,0.0,0.0,0.0,0.0,0.0,0.0,0.0,0.0,0.0,0.0,0.0,0.0,0.0,0.0,0.0,0.0,0.0,0.0,0.0,0.0,0.0,0.0,0.0,0.0,0.0,0.0,0.0,0.0,0.0,0.0,0.0,0.0,0.0,0.0,0.0,0.0,0.0,0.0,0.0,0.0,0.0,0.0,0.0,0.0,0.0,0.0,0.0,0.0,0.0,0.0,0.0,0.0,0.0,0.0,0.0,0.0,0.0,0.0,0.0,0.0,0.0,0.0,0.0,0.0,0.0,0.0,0.0,0.0,0.0,0.0,0.0,0.0,0.0,0.0,0.0,0.0,0.0,0.0,0.0,0.0,0.0,0.0,0.0,0.0,0.0,0.0,0.0,0.0,0.0,0.0,0.0,0.0,0.0,0.0,0.0,-4.6218,-4.9794,-5.048,-5.0462,-4.9837,-4.8875,-4.7201,-4.4662,0.0,0.0,0.0,0.0,0.0,0.0,0.0,0.0,0.0,0.0,0.0,0.0,0.0,0.0,0.0,0.0,0.0,0.0,0.0,0.0,0.0,0.0,0.0,0.0,0.0,0.0,0.0,0.0,0.0,0.0,0.0,0.0,0.0,0.0,0.0,0.0,0.0,0.0,0.0,0.0,0.0,0.0,0.0,0.0,0.0,0.0,0.0,0.0,0.0,0.0,0.0,0.0,0.0,0.0,0.0,0.0,0.0,0.0,0.0,0.0,0.0,0.0,0.0,0.0,0.0,0.0,0.0,0.0,0.0,0.0,0.0,0.0,0.0,0.0,0.0,0.0,0.0,0.0,0.0,0.0,0.0,0.0,0.0,0.0,0.0,0.0,0.0,0.0,0.0,0.0,0.0,0.0,0.0,0.0,0.0,0.0,0.0,0.0,0.0,0.0,0.0,0.0,0.0,-4.4889,-4.7038,-5.0356,-5.0289,-4.9817,-4.9433,-4.8202,-4.6547,-4.4432,-4.3451,0.0,0.0,0.0,0.0,0.0,0.0,0.0,0.0,0.0,0.0,0.0,0.0,0.0,0.0,0.0,0.0,0.0,0.0,0.0,0.0,0.0,0.0,0.0,0.0,0.0,0.0,0.0,0.0,0.0,0.0,0.0,0.0,0.0,0.0,0.0,0.0,0.0,0.0,0.0,0.0,0.0,0.0,0.0,0.0,0.0,0.0,0.0,0.0,0.0,0.0,0.0,0.0,0.0,0.0,0.0,0.0,0.0,0.0,0.0,0.0,0.0,0.0,0.0,0.0,0.0,0.0,0.0,0.0,0.0,0.0,0.0,0.0,0.0,0.0,0.0,0.0,0.0,0.0,0.0,0.0,0.0,0.0,0.0,0.0,0.0,0.0,0.0,0.0,0.0,0.0,0.0,0.0,0.0,0.0,0.0,0.0,0.0,0.0,0.0,0.0,0.0,0.0,-4.6085,-4.7429,-4.9817,-4.949,-4.9029,-4.8836,-4.7451,-4.5855,-4.4124,-4.2258,0.0,0.0,0.0,0.0,0.0,0.0,0.0,0.0,0.0,0.0,0.0,0.0,0.0,0.0,0.0,0.0,0.0,0.0,0.0,0.0,0.0,0.0,0.0,0.0,0.0,0.0,0.0,0.0,0.0,0.0,0.0,0.0,0.0,0.0,0.0,0.0,0.0,0.0,0.0,0.0,0.0,0.0,0.0,0.0,0.0,0.0,0.0,0.0,0.0,0.0,0.0,0.0,0.0,0.0,0.0,0.0,0.0,0.0,0.0,0.0,0.0,0.0,0.0,0.0,0.0,0.0,0.0,0.0,0.0,0.0,0.0,0.0,0.0,0.0,0.0,0.0,0.0,0.0,0.0,0.0,0.0,0.0,0.0,0.0,0.0,0.0,0.0,0.0,0.0,0.0,0.0,0.0,0.0,0.0,0.0,0.0,0.0,0.0,0.0,0.0,0.0,0.0,-4.536,-4.6969,-4.8145,-4.824,-4.7894,-4.7135,-4.622,-4.497,-4.3297,-4.0854,0.0,0.0,0.0,0.0,0.0,0.0,0.0,0.0,0.0,0.0,0.0,0.0,0.0,0.0,0.0,0.0,0.0,0.0,0.0,0.0,0.0,0.0,0.0,0.0,0.0,0.0,0.0,0.0,0.0,0.0,0.0,0.0,0.0,0.0,0.0,0.0,0.0,0.0,0.0,0.0,0.0,0.0,0.0,0.0,0.0,0.0,0.0,0.0,0.0,0.0,0.0,0.0,0.0,0.0,0.0,0.0,0.0,0.0,0.0,0.0,0.0,0.0,0.0,0.0,0.0,0.0,0.0,0.0,0.0,0.0,0.0,0.0,0.0,0.0,0.0,0.0,0.0,0.0,0.0,0.0,0.0,0.0,0.0,0.0,0.0,0.0,0.0,0.0,0.0,0.0,0.0,0.0,0.0,0.0,0.0,0.0,0.0,0.0,0.0,0.0,0.0,0.0,-4.4827,-4.6308,0.0,-4.7663,-4.7231,-4.6923,-4.6105,-4.4883,-4.3201,0.0,0.0,0.0,0.0,0.0,0.0,0.0,0.0,0.0,0.0,0.0,0.0,0.0,0.0,0.0,0.0,0.0,0.0,0.0,0.0,0.0,0.0,0.0,0.0,0.0,0.0,0.0,0.0,0.0,0.0,0.0,0.0,0.0,0.0,0.0,0.0,0.0,0.0,0.0,0.0,0.0,0.0,0.0,0.0,0.0,0.0,0.0,0.0,0.0,0.0,0.0,0.0,0.0,0.0,0.0,0.0,0.0,0.0,0.0,0.0,0.0,0.0,0.0,0.0,0.0,0.0,0.0,0.0,0.0,0.0,0.0,0.0,0.0,0.0,0.0,0.0,0.0,0.0,0.0,0.0,0.0,0.0,0.0,0.0,0.0,0.0,0.0,0.0,0.0,0.0,0.0,0.0,0.0,0.0,0.0,0.0,0.0,0.0,0.0,0.0,0.0,0.0,-4.2697,-4.4177,-4.5524,0.0,-4.6686,-4.6378,-4.6481,-4.5609,-4.4353,-4.2701,0.0,0.0,0.0,0.0,0.0,0.0,0.0,0.0,0.0,0.0,0.0,0.0,0.0,0.0,0.0,0.0,0.0,0.0,0.0,0.0,0.0,0.0,0.0,0.0,0.0,0.0,0.0,0.0,0.0,0.0,0.0,0.0,0.0,0.0,0.0,0.0,0.0,0.0,0.0,0.0,0.0,0.0,0.0,0.0,0.0,0.0,0.0,0.0,0.0,0.0,0.0,0.0,0.0,0.0,0.0,0.0,0.0,0.0,0.0,0.0,0.0,0.0,0.0,0.0,0.0,0.0,0.0,0.0,0.0,0.0,0.0,0.0,0.0,0.0,0.0,0.0,0.0,0.0,0.0,0.0,0.0,0.0,0.0,0.0,0.0,0.0,0.0,0.0,0.0,0.0,0.0,0.0,0.0,0.0,0.0,0.0,0.0,0.0,0.0,0.0,0.0,0.0,-4.1755,-4.3402,-4.4612,-4.5129,-4.5201,-4.5312,-4.5568,-4.4557,-4.3214,0.0,0.0,0.0,0.0,0.0,0.0,0.0,0.0,0.0,0.0,0.0,0.0,0.0,0.0,0.0,0.0,0.0,0.0,0.0,0.0,0.0,0.0,0.0,0.0,0.0,0.0,0.0,0.0,0.0,0.0,0.0,0.0,0.0,0.0,0.0,0.0,0.0,0.0,0.0,0.0,0.0,0.0,0.0,0.0,0.0,0.0,0.0,0.0,0.0,0.0,0.0,0.0,0.0,0.0,0.0,0.0,0.0,0.0,0.0,0.0,0.0,0.0,0.0,0.0,0.0,0.0,0.0,0.0,0.0,0.0,0.0,0.0,0.0,0.0,0.0,0.0,0.0,0.0,0.0,0.0,0.0,0.0,0.0,0.0,0.0,0.0,0.0,0.0,0.0,0.0,0.0,0.0,0.0,0.0,0.0,0.0,0.0,0.0,0.0,0.0,0.0,0.0,0.0,-4.1755,-4.3402,-4.4533,-4.4872,-4.4927,-4.4962,-4.503,-4.4734,-4.3342,-4.0542,0.0,0.0,0.0,0.0,0.0,0.0,0.0,0.0,0.0,0.0,0.0,0.0,0.0,0.0,0.0,0.0,0.0,0.0,0.0,0.0,0.0,0.0,0.0,0.0,0.0,0.0,0.0,0.0,0.0,0.0,0.0,0.0,0.0,0.0,0.0,0.0,0.0,0.0,0.0,0.0,0.0,0.0,0.0,0.0,0.0,0.0,0.0,0.0,0.0,0.0,0.0,0.0,0.0,0.0,0.0,0.0,0.0,0.0,0.0,0.0,0.0,0.0,0.0,0.0,0.0,0.0,0.0,0.0,0.0,0.0,0.0,0.0,0.0,0.0,0.0,0.0,0.0,0.0,0.0,0.0,0.0,0.0,0.0,0.0,0.0,0.0,0.0,0.0,0.0,0.0,0.0,0.0,0.0,0.0,0.0,0.0,0.0,0.0,0.0,0.0,0.0,0.0,-4.1599,-4.324,-4.4346,-4.4612,-4.4637,-4.4676,-4.4788,-4.4701,-4.3385,-4.0443,0.0,0.0,0.0,0.0,0.0,0.0,0.0,0.0,0.0,0.0,0.0,0.0,0.0,0.0,0.0,0.0,0.0,0.0,0.0,0.0,0.0,0.0,0.0,0.0,0.0,0.0,0.0,0.0,0.0,0.0,0.0,0.0,0.0,0.0,0.0,0.0,0.0,0.0,0.0,0.0,0.0,0.0,0.0,0.0,0.0,0.0,0.0,0.0,0.0,0.0,0.0,0.0,0.0,0.0,0.0,0.0,0.0,0.0,0.0,0.0,0.0,0.0,0.0,0.0,0.0,0.0,0.0,0.0,0.0,0.0,0.0,0.0,0.0,0.0,0.0,0.0,0.0,0.0,0.0,0.0,0.0,0.0,0.0,0.0,0.0,0.0,0.0,0.0,0.0,0.0,0.0,0.0,0.0,0.0,0.0,0.0,0.0,0.0,0.0,0.0,0.0,0.0,-4.1367,-4.3002,-4.4075,-4.4346,-4.4374,-4.4452,-4.472,-4.4493,-4.3299,-4.081,0.0,0.0,0.0,0.0,0.0,0.0,0.0,0.0,0.0,0.0,0.0,0.0,0.0,0.0,0.0,0.0,0.0,0.0,0.0,0.0,0.0,0.0,0.0,0.0,0.0,0.0,0.0,0.0,0.0,0.0,0.0,0.0,0.0,0.0,0.0,0.0,0.0,0.0,0.0,0.0,0.0,0.0,0.0,0.0,0.0,0.0,0.0,0.0,0.0,0.0,0.0,0.0,0.0,0.0,0.0,0.0,0.0,0.0,0.0,0.0,-3.8612,0.0,0.0,0.0,0.0,0.0,0.0,0.0,0.0,0.0,0.0,0.0,0.0,0.0,0.0,0.0,0.0,0.0,0.0,0.0,0.0,0.0,0.0,0.0,0.0,0.0,0.0,0.0,0.0,0.0,0.0,0.0,0.0,0.0,0.0,0.0,0.0,0.0,0.0,0.0,0.0,0.0,-4.1367,-4.3002,-4.4017,-4.4079,-4.4094,-4.4106,-4.4166,-4.4106,-4.2753,-3.9657,-3.9235,0.0,0.0,0.0,0.0,0.0,0.0,0.0,0.0,0.0,0.0,0.0,0.0,0.0,0.0,0.0,0.0,0.0,0.0,0.0,0.0,0.0,0.0,0.0,0.0,0.0,0.0,0.0,0.0,0.0,0.0,0.0,0.0,0.0,0.0,0.0,0.0,0.0,0.0,0.0,0.0,0.0,0.0,0.0,0.0,0.0,0.0,0.0,0.0,0.0,0.0,0.0,0.0,0.0,0.0,0.0,0.0,0.0,0.0,0.0,0.0,-3.9336,0.0,0.0,0.0,0.0,0.0,0.0,0.0,0.0,0.0,0.0,0.0,0.0,0.0,0.0,0.0,0.0,0.0,0.0,0.0,0.0,0.0,0.0,0.0,0.0,0.0,0.0,0.0,0.0,0.0,0.0,0.0,0.0,0.0,0.0,0.0,0.0,0.0,0.0,0.0,0.0,-4.133,-4.3002,-4.4005,-4.4005,-4.4005,-4.4005,-4.4005,-4.4005,-4.2946,-4.0457,-3.9937,0.0,0.0,0.0,0.0,0.0,0.0,0.0,0.0,0.0,0.0,0.0,0.0,0.0,0.0,0.0,0.0,0.0,0.0,0.0,0.0,0.0,0.0,0.0,0.0,0.0,0.0,0.0,0.0,0.0,0.0,0.0,0.0,0.0,0.0,0.0,0.0,0.0,0.0,0.0,0.0,0.0,0.0,0.0,0.0,0.0,0.0,0.0,0.0,0.0,0.0,0.0,0.0,0.0,-4.3252,-4.3252,-4.3114,-4.3114,-4.3114,-4.2994,-4.1058,-4.0548,-4.1032,-4.0233,0.0,0.0,0.0,0.0,0.0,0.0,0.0,0.0,0.0,0.0,0.0,0.0,0.0,0.0,0.0,0.0,0.0,0.0,0.0,0.0,0.0,0.0,0.0,0.0,-3.9457,-3.9433,-3.7719,0.0,0.0,0.0,0.0,0.0,0.0,0.0,0.0,0.0,0.0,0.0,-4.1311,-4.3002,-4.4005,-4.4005,-4.3989,-4.3974,-4.3974,-4.3974,-4.3271,-4.1638,-4.0799,-3.9569,0.0,0.0,0.0,0.0,0.0,0.0,0.0,0.0,0.0,0.0,0.0,0.0,0.0,0.0,0.0,0.0,0.0,0.0,0.0,0.0,0.0,0.0,0.0,0.0,0.0,0.0,0.0,0.0,0.0,0.0,0.0,0.0,-3.6153,-3.6338,0.0,0.0,0.0,0.0,0.0,0.0,0.0,0.0,0.0,0.0,0.0,0.0,0.0,-4.2359,-4.2379,-4.3197,-4.3327,-4.2775,-4.3459,-4.3425,-4.2775,-4.2775,-4.2775,-4.2757,-4.245,0.0,-4.1809,-4.1067,0.0,0.0,0.0,0.0,0.0,0.0,0.0,0.0,0.0,0.0,0.0,0.0,0.0,0.0,0.0,0.0,0.0,0.0,0.0,0.0,0.0,0.0,-4.0601,-4.0601,-4.067,-4.067,0.0,-3.8822,-3.7498,-3.7711,-3.6983,0.0,0.0,0.0,0.0,0.0,0.0,0.0,-4.146,-4.3002,-4.4005,-4.4005,-4.3961,-4.3913,-4.3913,-4.3867,-4.3116,-4.1434,-4.0584,-3.942,-3.7779,-3.6103,0.0,0.0,0.0,0.0,0.0,0.0,0.0,0.0,0.0,0.0,0.0,0.0,0.0,0.0,0.0,0.0,0.0,0.0,0.0,0.0,0.0,0.0,0.0,0.0,0.0,0.0,0.0,0.0,0.0,-3.6014,-3.6923,-3.6538,-3.7092,-3.723,0.0,0.0,0.0,0.0,0.0,0.0,0.0,0.0,0.0,-4.2885,-4.3758,-4.4094,-4.3807,-4.4555,-4.4637,-4.4004,-4.4356,-4.4338,-4.3987,-4.3987,-4.3987,-4.397,-4.3543,-4.3006,-4.2337,-4.1673,-4.1013,-4.0353,0.0,0.0,0.0,0.0,-3.9618,-3.9267,-3.9756,-3.9393,-3.8663,-3.8254,0.0,0.0,0.0,0.0,0.0,0.0,0.0,0.0,0.0,0.0,-4.0912,-4.0912,-4.0912,-4.0912,-4.0912,-4.0118,-3.9318,0.0,-3.838,-3.7561,-3.6417,0.0,0.0,0.0,0.0,-4.0115,-4.1884,-4.3159,-4.3899,-4.3899,-4.3867,-4.3835,-4.3835,-4.382,-4.3084,-4.1403,-4.096,-4.004,-3.839,-3.7178,-3.6205,0.0,0.0,0.0,0.0,0.0,0.0,0.0,0.0,0.0,0.0,0.0,0.0,0.0,0.0,0.0,0.0,0.0,0.0,0.0,0.0,0.0,0.0,0.0,0.0,0.0,0.0,0.0,0.0,-3.6753,-3.7507,-3.683,-3.7507,-3.7677,0.0,0.0,0.0,0.0,0.0,0.0,-4.0694,-4.2156,-4.3344,-4.4186,-4.5347,-4.5708,-4.5257,-4.5626,-4.5585,-4.5159,-4.4976,-4.4818,-4.466,-4.4615,-4.4513,-4.4339,-4.3799,-4.3023,-4.2158,-4.1886,-4.1415,-4.0864,-4.0888,-4.0888,-4.0864,-4.0864,-4.0461,-4.0031,-4.0634,-4.0468,-3.9905,-3.9376,-3.8686,-3.7836,-3.6697,0.0,0.0,0.0,0.0,-3.975,-3.9939,-4.044,-4.0912,-4.0912,-4.0912,-4.0912,-4.0912,-4.0912,-4.0722,0.0,-3.9668,-3.8867,-3.7176,0.0,0.0,0.0,0.0,-4.0449,-4.2274,-4.3252,-4.3804,-4.3804,-4.3771,-4.3736,-4.3736,-4.3719,-4.3019,-4.1341,-4.1248,-4.0498,-3.885,-3.8191,-3.7647,-3.7199,0.0,0.0,0.0,0.0,0.0,0.0,0.0,0.0,0.0,0.0,0.0,0.0,0.0,0.0,0.0,0.0,0.0,0.0,0.0,0.0,0.0,0.0,0.0,0.0,0.0,0.0,0.0,0.0,0.0,-3.7523,-3.8616,0.0,0.0,0.0,0.0,-4.0197,-4.0385,-4.1581,-4.4204,-4.4433,-4.5082,-4.6383,-4.6514,-4.6546,-4.6498,-4.5902,-4.5596,-4.5581,-4.4909,-4.4282,-4.3653,-4.3586,-4.3227,-4.2629,-4.2613,-4.1845,-4.0758,-4.1493,-4.1366,-4.0721,-4.0864,-4.0817,-4.0697,-4.0697,-4.068,-4.0645,-4.068,-4.0776,-4.0843,-4.0808,-4.0233,-3.956,-3.9491,-3.9008,0.0,0.0,-3.9629,-3.9871,-4.0653,-4.0877,-4.0912,-4.0912,-4.0912,-4.0912,-4.0912,-4.0912,-4.0894,0.0,-4.0513,-4.0188,-4.0083,0.0,-4.022,-4.0416,-4.1452,-4.2286,-4.2479,-4.3252,-4.3804,-4.3804,-4.3703,-4.3599,-4.3599,-4.3548,-4.2835,-4.1203,-4.1111,-4.0396,-3.8762,-3.867,-3.7918,-3.6376,-3.6266,0.0,0.0,0.0,0.0,0.0,0.0,0.0,0.0,0.0,0.0,0.0,0.0,0.0,0.0,0.0,0.0,0.0,0.0,0.0,0.0,0.0,0.0,0.0,0.0,0.0,0.0,0.0,0.0,-3.9444,-4.0662,0.0,-4.0832,-4.1386,-4.1971,-4.2448,-4.2879,-4.3764,-4.5173,-4.5703,-4.6362,-4.7265,-4.7768,-4.7784,-4.7316,-4.6641,-4.606,-4.5574,-4.448,-4.3829,-4.3589,-4.308,-4.2738,-4.252,-4.252,-4.197,-4.1121,-4.1057,-4.038,-3.9404,-3.9456,-3.9456,-3.9473,-3.9842,-3.9986,-4.0062,-4.0534,-4.0721,-4.0793,-4.0864,-4.0722,-4.0457,-4.0457,-4.0308,-4.0135,-4.0411,-4.0457,-4.0549,-4.0825,-4.0912,-4.0912,-4.0912,-4.0912,-4.0912,-4.0912,-4.0912,-4.0912,-4.0912,-4.077,-4.0521,-4.0018,-4.0155,-4.0372,-4.0451,-4.1057,-4.1795,-4.265,-4.2758,-4.2995,-4.3549,-4.3339,-4.325,-4.3513,-4.3037,-4.2268,-4.1168,-4.0616,-3.9845,-3.8762,-3.8707,-3.8432,-3.7863,-3.7331,-3.5844,0.0,0.0,0.0,0.0,0.0,0.0,0.0,0.0,0.0,0.0,0.0,0.0,0.0,0.0,0.0,0.0,0.0,0.0,0.0,0.0,0.0,0.0,0.0,0.0,0.0,-3.8762,-4.0202,-4.0793,-4.2094,-4.294,-4.294,-4.3525,-4.4132,-4.4594,-4.5003,-4.568,-4.6537,-4.6886,-4.7208,-4.7628,-4.8126,-4.8141,-4.7681,-4.7018,-4.641,-4.5897,-4.4587,-4.3709,-4.3236,-4.2766,-4.2286,-4.1836,-4.1836,-4.1406,-4.0737,-4.0385,-3.9468,-3.8328,-3.8579,-3.8663,-3.8679,-3.9076,-3.9226,-3.9332,-4.0062,-4.0345,-4.037,-4.0566,-4.0631,-4.0631,-4.068,-4.068,-4.0745,-4.0847,-4.0912,-4.0912,-4.0912,-4.0912,-4.0912,-4.0912,-4.0912,-4.0912,-4.0912,-4.0912,-4.0912,-4.0912,-4.0912,-4.0739,-4.0198,-4.0448,-4.0718,-4.0757,-4.1126,-4.1709,-4.2562,-4.2398,-4.242,-4.2995,-4.2826,-4.2769,-4.305,-4.2341,-4.154,-4.0704,-3.9939,-3.912,-3.8322,-3.8303,-3.8303,-3.8303,-3.7503,-3.5887,-3.3437,0.0,0.0,0.0,0.0,0.0,0.0,0.0,0.0,0.0,0.0,0.0,0.0,0.0,0.0,0.0,0.0,0.0,0.0,0.0,0.0,0.0,0.0,0.0,-3.657,-3.8115,-3.9736,-4.1474,-4.2894,-4.3747,-4.3762,-4.4348,-4.5249,-4.6557,-4.6634,-4.7204,-4.8512,-4.7942,-4.7573,-4.7573,-4.7573,-4.7588,-4.7604,-4.6911,-4.6573,-4.6573,-4.5221,-4.3892,-4.2586,-4.2585,-4.1813,-4.0489,-4.0489,-4.012,-3.9521,-3.949,-3.8739,-3.7605,-3.837,-3.8557,-3.8446,-3.8446,-3.8474,-3.8585,-3.9332,-3.9584,-3.9636,-3.9952,-4.0045,-4.007,-4.0213,-4.0238,-4.0337,-4.0752,-4.0871,-4.0871,-4.0894,-4.0912,-4.0912,-4.0912,-4.0912,-4.0912,-4.0912,-4.0912,-4.0912,-4.0912,-4.0912,-4.0912,-4.0912,-4.1214,-4.1472,-4.1472,-4.1864,0.0,-4.2177,-4.2157,-4.2157,-4.2216,-4.2195,-4.2177,-4.2198,-4.1504,-4.0701,-3.9843,-3.9078,-3.831,-3.7523,-3.7505,-3.7505,-3.7505,-3.6684,-3.5135,-3.2808,0.0,0.0,0.0,0.0,0.0,0.0,0.0,0.0,0.0,0.0,0.0,0.0,0.0,0.0,0.0,0.0,0.0,0.0,0.0,0.0,0.0,-3.4217,-3.5467,-3.6826,-3.9279,-4.1516,-4.3079,-4.5044,-4.6536,-4.7173,-4.7388,-4.765,-4.8035,-4.7604,-4.7496,-4.7865,-4.7234,-4.6865,-4.6865,-4.6865,-4.7111,-4.7604,-4.6449,-4.6111,-4.6573,-4.4752,-4.3437,-4.2586,-4.2107,-4.1361,-4.0489,-4.0489,-4.0397,-4.0182,-3.969,-3.9016,-3.8186,-3.7935,-3.7511,-3.7118,-3.7549,-3.8039,-3.8546,-3.8723,-3.8887,-3.8962,-3.9059,-3.9086,-3.9086,-3.9139,-3.9139,-3.9272,-3.9927,-4.0103,-4.022,-4.0758,-4.0912,-4.0912,-4.0912,-4.0912,-4.0912,-4.0912,-4.0912,-4.0912,-4.0912,-4.0912,-4.0912,-4.0912,-4.0989,-4.1065,-4.1065,-4.1163,0.0,-4.1648,-4.144,-4.1507,-4.2136,-4.1906,-4.1821,-4.2157,-4.0931,-4.0058,-3.9807,-3.8577,-3.7719,-3.7505,-3.7505,-3.7505,-3.7505,-3.615,-3.5384,0.0,0.0,0.0,0.0,0.0,0.0,0.0,0.0,0.0,0.0,0.0,0.0,0.0,0.0,0.0,0.0,0.0,0.0,0.0,0.0,0.0,0.0,-3.4868,-3.5881,-3.7546,-3.9732,-4.1747,-4.3348,-4.5069,-4.646,-4.7334,-4.7542,-4.7691,-4.7773,-4.7404,-4.7173,-4.7173,-4.6542,-4.6172,-4.6172,-4.6172,-4.6496,-4.7173,-4.6126,-4.5926,-4.6573,-4.4872,-4.3685,-4.2987,-4.2325,-4.1632,-4.0955,-4.0628,-4.0489,-4.0459,-4.0074,-3.9505,0.0,0.0,0.0,0.0,0.0,-3.7282,-3.7693,-3.7953,-3.808,-3.8193,-3.8334,-3.8362,-3.839,-3.8418,-3.8446,-3.8569,-3.9166,-3.9447,-3.9697,-4.0269,-4.0541,-4.068,-4.0847,-4.0912,-4.0912,-4.0912,-4.0912,-4.0912,-4.0912,-4.0912,0.0,-4.0912,-4.0912,-4.0912,-4.0912,-4.0912,-4.0971,-4.1232,-4.1041,-4.1088,-4.16,-4.1418,-4.1351,-4.1622,-4.0482,0.0,0.0,0.0,-3.7349,-3.7015,-3.7314,0.0,0.0,0.0,0.0,0.0,0.0,0.0,0.0,-3.6112,-3.7004,0.0,0.0,0.0,0.0,0.0,0.0,0.0,0.0,0.0,0.0,0.0,0.0,0.0,0.0,0.0,0.0,-3.5547,-3.6319,-3.841,-3.9639,-4.0962,-4.2695,-4.3835,-4.4799,-4.5659,-4.6007,-4.6269,-4.6548,-4.6526,-4.648,-4.648,0.0,0.0,0.0,0.0,-4.5803,-4.648,-4.5818,-4.5818,-4.6465,-4.5187,-4.4255,-4.3593,-4.2971,-4.2309,-4.1555,-4.0889,-4.0566,-4.0489,-4.0489,-4.0043,-3.9244,-3.8,-3.7092,-3.6492,-3.6492,-3.6492,-3.6585,-3.7118,0.0,0.0,-3.7653,-3.774,-3.777,-3.787,-3.7899,-3.8014,-3.8458,-3.8805,-3.9135,-3.9577,-3.9893,-4.0221,-4.0566,-4.0645,-4.0645,-4.0645,-4.0686,-4.0704,-4.0704,-4.0776,-4.0823,-4.0823,-4.0864,-4.0912,-4.0912,-4.0912,-4.0912,-4.0912,-4.0912,-4.0912,-4.0912,0.0,0.0,-4.0912,-4.0146,-3.9388,-3.8646,-3.7909,-3.7236,-3.6594,-3.7232,-3.7305,-3.6559,-3.7249,-3.7633,-3.7633,-3.8267,-3.8629,-3.8686,-3.7255,-3.7745,0.0,0.0,0.0,0.0,0.0,0.0,0.0,0.0,0.0,0.0,0.0,0.0,0.0,0.0,0.0,-3.6371,-3.709,-3.7704,-3.8593,-3.9304,-4.0408,-4.2213,-4.3311,-4.4353,-4.546,-4.5337,-4.5503,-4.6324,-4.6017,-4.5772,-4.5772,-4.5141,-4.481,-4.481,-4.481,-4.5133,-4.5772,-4.511,-4.511,-4.5772,0.0,0.0,-4.3608,-4.3485,-4.274,-4.1586,-4.1447,-4.1063,-4.0489,-4.0489,-3.9782,-3.8616,-3.7815,-3.7092,-3.6492,-3.6492,-3.6492,-3.6523,-3.6631,-3.6662,-3.6693,-3.6754,-3.6785,-3.6785,-3.6816,-3.6816,0.0,-3.7618,-3.7851,-3.8064,-3.8745,-3.8962,-3.9032,-3.9096,-3.9123,-3.9123,-3.9123,-3.9358,-3.9523,-3.9523,-4.002,-4.0429,-4.0429,-4.0697,-4.0912,-4.0912,-4.0912,-4.0912,-4.0912,-4.0912,-4.0912,-4.0912,-4.0912,-4.0912,-4.0912,-4.0146,-3.9388,-3.8646,-3.7909,-3.7702,-3.8129,-3.8284,-3.8301,-3.8146,-3.8323,-3.8392,-3.8392,-3.8525,-3.8905,-3.9474,-3.9165,-3.9272,0.0,0.0,0.0,0.0,0.0,0.0,0.0,0.0,0.0,0.0,0.0,-3.2561,-3.4315,0.0,-3.496,-3.7123,-3.7704,-3.82,-3.9037,-3.9416,-3.9943,-4.0849,-4.1515,-4.2206,-4.286,-4.2926,-4.3238,-4.4039,-4.4168,-4.4358,-4.46,-4.4603,-4.461,-4.461,-4.461,-4.5064,-4.608,-4.508,-4.508,-4.608,-4.5103,-4.444,-4.4101,-4.3762,-4.3239,-4.254,-4.1878,-4.1401,-4.1032,-4.0643,-3.9705,-3.8477,-3.8138,-3.7384,-3.6492,-3.6492,-3.6492,-3.6492,-3.6492,-3.6492,-3.6492,-3.6492,-3.6492,-3.6492,-3.6492,-3.6492,-3.6569,-3.6967,-3.7178,-3.7431,-3.8007,-3.8262,-3.8446,-3.8635,-3.8718,-3.8718,-3.8718,-3.8843,-3.8941,-3.8941,-3.9375,-3.9747,-3.9747,-4.0028,-4.0402,-4.0823,-4.0912,-4.0912,-4.0912,-4.0912,-4.0912,-4.0912,-4.0912,-4.0912,-4.0912,-4.0146,-3.9526,-3.9163,-3.8734,-3.8504,-3.8504,-3.8837,-3.8809,-3.8414,-3.8791,-3.8997,-3.8997,-3.9358,-3.9735,-4.0096,-4.0096,-4.0167,0.0,0.0,0.0,0.0,0.0,0.0,0.0,-3.0709,-3.1339,-3.2262,-3.2213,-3.2653,-3.466,-3.4595,-3.5002,-3.7461,-3.7722,-3.8028,-3.9094,-3.9272,-3.9272,-3.9272,-3.9621,-3.9951,-4.0331,-4.0493,-4.0944,-4.1629,-4.2231,-4.2731,-4.3096,-4.3663,-4.3935,-4.3935,-4.3935,-4.4506,-4.5681,-4.4732,-4.4863,-4.603,-4.5057,-4.461,-4.4594,-4.4055,-4.3732,-4.3531,-4.2171,-4.1524,-4.134,-4.0735,-3.9782,-3.8692,-3.8554,-3.7769,-3.6676,-3.6538,-3.6492,-3.6492,-3.6492,-3.6492,-3.6492,-3.6492,-3.6492,-3.6492,-3.6492,-3.6492,-3.6492,-3.6492,-3.6677,-3.6984,-3.7296,-3.7592,-3.787,-3.8206,-3.8274,-3.8274,-3.8274,-3.8302,-3.8374,-3.8374,-3.8695,-3.899,-3.899,-3.9226,-3.9723,-4.0614,-4.0752,-4.0776,-4.0823,-4.0864,-4.0847,-4.084,-4.0823,-4.0823,-4.0823,-4.0094,-3.9698,-3.9853,-3.9622,-3.9277,-3.8831,-3.9343,-3.9313,-3.8657,-3.9272,-3.9621,-3.9621,-4.0219,-4.051,-4.051,-4.051,-4.0607,-2.5274,-2.5946,-2.6866,-2.7937,-2.8645,-2.9559,0.0,-3.2252,-3.2873,-3.3493,-3.3946,-3.4495,-3.5359,-3.5038,-3.5285,-3.7315,-3.718,-3.716,-3.7977,-3.8096,-3.8096,-3.8096,-3.8542,-3.9197,-4.0042,-3.983,-4.0015,-4.0944,-4.1252,-4.1405,-4.1446,-4.1529,-4.1571,-4.1571,-4.1571,-4.1864,-4.2439,-4.2845,-4.3354,-4.392,-4.4381,-4.461,-4.461,-4.4533,-4.4178,-4.3531,-4.2171,-4.1232,-4.0612,-4.052,-4.0043,-3.9339,-3.8739,-3.8046,-3.7323,-3.6722,-3.6492,-3.6492,-3.6492,-3.6492,-3.6492,-3.6492,-3.6492,-3.6492,-3.6492,-3.6492,-3.6492,-3.6492,-3.6523,-3.6585,-3.66,-3.6662,-3.6693,-3.6739,-3.6739,-3.6739,-3.6739,-3.6968,-3.7195,-3.7195,-3.774,-3.8214,-3.8214,-3.853,-3.9113,-4.0054,-4.0288,-4.0412,-4.0534,-4.0648,-4.0673,-4.0558,-4.0541,-4.0541,-4.0541,-3.9874,-3.972,-4.0387,-3.9782,-3.9655,-4.0236,-4.0339,-4.0339,-4.0253,-4.0339,-4.039,-4.039,-4.0458,-4.051,-4.051,-4.051,-4.0534,-2.5115,-2.6097,-2.7113,-2.7547,-2.8628,-2.9866,-3.0727,-3.141,-3.2135,-3.3302,-3.3444,-3.3778,-3.5112,-3.5137,-3.5381,-3.665,-3.6623,-3.6774,-3.7548,-3.742,-3.7366,-3.7854,-3.8109,-3.8365,-3.8766,-3.8677,-3.8863,-3.9502,-3.9972,-4.0347,-4.0675,-4.1,-4.1196,-4.1196,-4.1196,-4.1465,-4.2063,-4.2257,-4.2629,-4.3245,-4.3384,-4.3442,-4.3442,-4.3442,-4.2872,-4.1904,-4.1325,-4.0484,-3.9508,-3.9508,-3.9133,-3.8422,-3.7781,-3.7288,-3.6934,-3.6612,-3.6492,-3.6492,-3.6492,-3.6492,-3.6492,-3.6492,-3.6492,-3.6492,-3.6492,-3.6492,-3.6492,-3.6492,-3.6492,-3.6492,-3.6492,-3.6492,-3.6492,-3.6492,-3.6492,-3.6492,-3.6492,-3.6616,-3.6724,-3.6724,-3.7135,-3.7449,-3.7449,-3.7725,-3.8137,-3.8728,-3.9146,-3.9394,-3.9447,-3.9499,-3.9525,-3.9473,-3.943,-3.943,-3.943,-3.9163,-3.9259,-3.9927,-3.9623,-3.9707,-4.0362,-4.0313,-4.0288,-4.0288,-4.0288,-4.0288,-4.0288,-4.0288,-4.0288,-4.0288,-4.0288,-4.0288,-2.5018,-2.6184,-2.7206,-2.7477,-2.8754,-3.0089,-3.0376,-3.0847,-3.1536,-3.2638,-3.2661,-3.2903,-3.419,-3.448,-3.4774,-3.5842,-3.5867,-3.6101,-3.7039,-3.6874,-3.6922,-3.7505,-3.7749,-3.79,-3.79,-3.79,-3.8037,-3.8389,-3.8819,-3.9237,-3.9618,-4.0073,-4.029,-4.029,-4.029,-4.0586,-4.1207,-4.1213,-4.1594,-4.2237,-4.2221,-4.222,-4.222,-4.222,-4.1587,-4.0505,-4.0373,-3.968,-3.862,-3.862,-3.8341,-3.782,-3.7302,-3.6897,-3.6615,-3.6394,-3.6379,-3.6492,-3.6492,-3.6492,-3.6492,-3.6492,-3.6492,-3.6492,-3.6492,-3.6492,-3.6492,-3.6492,-3.6492,-3.6492,-3.6492,-3.6492,-3.6492,-3.6492,-3.6492,-3.6492,-3.6492,-3.6492,-3.6492,-3.6492,-3.6693,-3.6847,-3.6847,-3.7029,-3.7238,-3.7476,-3.7822,-3.8218,-3.8569,-3.858,-3.858,-3.858,-3.858,-3.858,-3.858,-3.858,-3.8789,-3.9209,-3.9156,-3.9279,-3.9731,-3.9653,-3.9601,-3.9601,-3.9601,-3.9696,-3.985,-3.985,-3.9944,-4.0096,-4.0096,-4.0096,-2.4913,-2.5913,-2.6867,-2.7842,-2.8791,-2.978,-3.0767,-3.1387,-3.1802,-3.1848,-3.2167,-3.25,-3.2572,-3.2584,-3.3151,-3.494,-3.4815,-3.4882,-3.6162,-3.6541,-3.6709,-3.6709,-3.7413,-3.79,0.0,-3.79,-3.79,-3.79,-3.7946,-3.7946,-3.7992,-3.7992,-3.7992,-3.7992,-3.7992,-3.822,-3.8706,-3.9282,-3.9839,-4.0416,-4.0986,-4.1238,-4.1238,-4.1238,-4.0785,-4.0006,-3.9621,-3.8942,-3.8138,-3.8138,-3.8123,-3.8051,-3.7835,-3.7367,-3.6689,-3.604,-3.6099,-3.6492,-3.6492,-3.6492,-3.6492,-3.6492,-3.6492,-3.6492,-3.6492,-3.6492,-3.6492,-3.6492,-3.6492,-3.6492,-3.6492,-3.6492,-3.6492,-3.6492,-3.6492,-3.6492,-3.6492,-3.6492,-3.6492,-3.6492,-3.6523,-3.6523,-3.6523,-3.6523,-3.6523,-3.6554,-3.6554,-3.6997,-3.8165,-3.8306,-3.8306,-3.8306,-3.8306,-3.8306,-3.8306,-3.8306,-3.8306,-3.8334,-3.8351,-3.8334,-3.8362,-3.8362,-3.8334,-3.8334,-3.8334,-3.8657,-3.9232,-3.9232,-3.9523,-4.0096,-4.0096,-4.0096,-2.365,-2.4778,-2.5963,-2.6313,-2.7746,-2.9247,-2.9906,-3.0678,-3.1364,-3.1744,-3.188,-3.1995,-3.2007,-3.2558,-3.3323,-3.4245,-3.4551,-3.498,-3.5935,-3.6092,-3.6112,-3.5992,-3.6957,0.0,0.0,0.0,0.0,-3.79,-3.79,-3.79,-3.79,-3.79,-3.79,-3.79,-3.79,-3.7992,-3.8116,-3.8666,-3.9011,-3.9203,-3.9678,-3.994,-3.994,-3.994,-3.9349,-3.8325,-3.82,-3.7508,-3.6492,-3.6492,-3.6492,-3.6476,-3.5994,-3.5794,-3.5741,-3.511,-3.5098,-3.5447,-3.5447,-3.5447,-3.5447,-3.5447,-3.5447,-3.5512,-3.5847,-3.5958,-3.6053,-3.6383,-3.6492,-3.6492,-3.6492,-3.6492,-3.6492,-3.6492,-3.6492,-3.6492,-3.6492,-3.6492,-3.6492,-3.6492,-3.6492,-3.6492,-3.6492,-3.6492,-3.6492,-3.6492,-3.6492,-3.6662,-3.7058,-3.7118,-3.7118,-3.7118,-3.7118,-3.7118,-3.7118,-3.7118,-3.7282,-3.7695,-3.7709,-3.7867,-3.8278,-3.8306,-3.8306,-3.8306,-3.8306,-3.8407,-3.8601,-3.8601,-3.8712,-3.8903,-3.8903,-3.9135,-2.3259,-2.4382,-2.5353,-2.5509,-2.681,-2.8157,-2.8774,-2.9365,-2.9973,-3.0545,-3.0799,-3.0996,-3.118,-3.1903,-3.281,-3.3832,-3.4153,-3.4584,-3.5612,-3.5726,-3.5595,-3.5454,-3.6404,-3.6887,0.0,0.0,0.0,-3.7867,-3.79,-3.79,-3.79,-3.79,-3.79,-3.79,-3.79,-3.79,-3.79,-3.8207,-3.8344,-3.8344,-3.8647,-3.8827,-3.8769,-3.86,-3.8044,-3.7219,-3.6889,-3.6258,-3.548,-3.548,-3.548,-3.5481,-3.5223,-3.4975,-3.4757,-3.4353,-3.4065,-3.3988,-3.4677,-3.4909,-3.4909,-3.4909,-3.4909,-3.4942,-3.5317,-3.5415,-3.5479,-3.5816,-3.5926,-3.5926,-3.5926,-3.6085,-3.6211,-3.6211,-3.6352,-3.6492,-3.6492,-3.6492,-3.6492,-3.6492,-3.6492,-3.6492,-3.6492,-3.6492,-3.6492,-3.6492,-3.6492,-3.6492,-3.6492,-3.6492,-3.6492,-3.6492,-3.6492,-3.6492,-3.6492,-3.6492,-3.6662,-3.7043,-3.7074,-3.7252,-3.7634,-3.7663,-3.7663,-3.7663,-3.7663,-3.7751,-3.7982,-3.7982,-3.8096,-3.8306,-3.8306,-3.8518,-2.3671,-2.4488,-2.5052,-2.5441,-2.5974,-2.6542,-2.7258,-2.749,-2.7744,-2.8432,-2.9059,-2.9586,-3.0044,-3.0617,-3.1697,-3.3648,-3.3625,-3.3866,-3.5313,-3.5378,-3.52,-3.5168,-3.5815,-3.6101,-3.5572,0.0,0.0,-3.7709,0.0,-3.7808,-3.7854,-3.7854,-3.7854,-3.79,-3.79,-3.79,-3.79,-3.79,-3.79,-3.79,-3.79,-3.79,-3.7887,-3.7286,-3.6906,-3.6704,-3.5706,-3.5213,-3.5072,-3.5072,-3.5072,-3.5113,-3.5467,-3.4884,-3.3867,-3.3867,-3.3108,-3.2331,-3.4124,-3.4776,-3.4776,-3.481,-3.4824,-3.481,-3.4843,-3.4843,-3.4843,-3.4876,-3.4909,-3.4909,-3.4909,-3.5285,-3.5655,-3.5655,-3.6053,-3.6429,-3.6429,-3.6429,-3.6429,-3.6429,-3.6429,-3.646,-3.646,-3.6492,-3.6492,-3.6492,-3.6492,-3.6492,-3.6492,-3.6492,-3.6492,-3.6492,-3.6492,-3.6492,-3.6492,-3.6492,-3.6492,-3.6492,-3.6492,-3.6492,-3.6492,-3.6492,-3.6492,-3.6492,-3.6492,-3.6785,-3.7358,-3.7358,-3.765,-3.821,-3.821,-3.8222,-2.2465,-2.3282,-2.3994,-2.3808,-2.4766,-2.5724,-2.5361,-2.6216,-2.7056,-2.6931,-2.8021,-2.9015,-2.9128,-3.0467,-3.1995,-3.3258,-3.4004,-3.467,-3.5416,-3.5783,-3.5584,-3.4437,-3.5336,-3.5647,-3.4774,-3.5344,0.0,0.0,-3.6203,-3.6439,-3.6968,-3.7015,-3.7261,-3.79,-3.79,-3.79,-3.79,-3.79,-3.79,-3.79,-3.79,-3.79,-3.7887,-3.7286,-3.6729,-3.6258,-3.5577,-3.5044,-3.4564,-3.4564,-3.4564,-3.4564,-3.4688,-3.4232,-3.3444,-3.3444,-3.2872,-3.2164,-3.264,-3.2995,-3.3325,-3.3597,-3.3716,-3.377,-3.4187,-3.4308,-3.4375,-3.4776,-3.4909,-3.4909,-3.4909,-3.5023,-3.5106,-3.5106,-3.5219,-3.5317,-3.5317,-3.5317,-3.5317,-3.5317,-3.5623,-3.5879,-3.5879,-3.6226,-3.6492,-3.6492,-3.6492,-3.6492,-3.6492,-3.6492,-3.6492,-3.6492,-3.6492,-3.6492,-3.6492,-3.6492,-3.6492,-3.6492,-3.6492,-3.6492,-3.6492,-3.6492,-3.6492,-3.6492,-3.6492,-3.6585,-3.6723,-3.6723,-3.6816,-3.6967,-3.6967,-3.7193,-2.2681,-2.3194,-2.3588,-2.3211,-2.3825,-2.438,-2.4024,-2.4612,-2.5349,-2.5571,-2.6883,-2.8022,-2.813,-2.9966,-3.1697,-3.2477,-3.3648,-3.4693,-3.5416,-3.5761,-3.5543,-3.4486,-3.5004,-3.5016,-3.4035,-3.4525,-3.4807,0.0,-3.5235,-3.5763,-3.6191,-3.6238,-3.6439,-3.6888,-3.6888,-3.6888,-3.6888,-3.6888,-3.6888,-3.6888,-3.7214,-3.7353,-3.7374,-3.6863,-3.6423,-3.6057,0.0,-3.4711,-3.4397,-3.4397,-3.4397,-3.4397,-3.4397,-3.3827,-3.3027,-3.3027,-3.2429,-3.1629,-3.1813,-3.2019,-3.2273,-3.2646,-3.2767,-3.286,-3.3325,-3.35,-3.3604,-3.4051,-3.4201,-3.4201,-3.4201,-3.4356,-3.4543,-3.4543,-3.4743,-3.4909,-3.4909,-3.4909,-3.4909,-3.4909,-3.5154,-3.535,-3.535,-3.5591,-3.5784,-3.5784,-3.5784,-3.5879,-3.6116,-3.6352,-3.6492,-3.6492,-3.6492,-3.6492,-3.6492,-3.6492,-3.6492,-3.6492,-3.6492,-3.6492,-3.6492,-3.6492,-3.6492,-3.6492,-3.6492,-3.6492,-3.6492,-3.6492,-3.6492,-3.6492,-3.6492,-3.6693,-2.3632,-2.3717,-2.3665,-2.3228,-2.3117,-2.3099,-2.2957,-2.3021,-2.326,-2.4153,-2.556,-2.6689,-2.6898,-2.8981,-3.0851,-3.1445,-3.2845,-3.4177,-3.5317,-3.5462,-3.5267,-3.4854,-3.4739,-3.4326,-3.3373,-3.366,-3.374,-3.3315,-3.4531,-3.5331,-3.5415,-3.5415,-3.5463,-3.5619,-3.5619,-3.5619,-3.5619,-3.5619,-3.5619,-3.5619,-3.6238,-3.6568,-3.653,-3.6039,-3.5833,-3.5768,-3.4627,-3.4134,-3.4134,-3.4134,-3.4134,-3.4134,-3.4134,-3.3487,-3.2579,-3.2579,-3.1889,-3.1061,-3.1421,-3.1519,-3.1593,-3.1982,-3.2092,-3.2164,-3.2525,-3.2632,-3.2704,-3.3051,-3.3136,-3.3136,-3.3136,-3.3479,-3.3831,-3.3899,-3.4274,-3.461,-3.4691,-3.4691,-3.4691,-3.4691,-3.4758,-3.4776,-3.4776,-3.4843,-3.4909,-3.4909,-3.4909,-3.5088,-3.5512,-3.6053,-3.6429,-3.6492,-3.6492,-3.6492,-3.6492,-3.6492,-3.6492,-3.6492,-3.6492,-3.6492,-3.6492,-3.6492,-3.6492,-3.6492,-3.6492,-3.6492,-3.6492,-3.6492,-3.6492,-3.6492,-3.6492,-3.6492,-2.3701,-2.3896,-2.3973,-2.3288,-2.3117,-2.2886,-2.1942,-2.1916,-2.2117,-2.2031,-2.3512,-2.485,-2.4907,-2.703,-2.9214,-3.0592,-3.1918,-3.3419,-3.526,-3.5175,-3.4888,-3.4808,-3.4406,-3.3912,-3.3338,-3.3361,0.0,0.0,-3.353,-3.3991,-3.4581,-3.4629,-3.4933,-3.5571,-3.5619,-3.5619,-3.5619,-3.5619,-3.5619,-3.5619,-3.5715,-3.581,-3.5773,-3.4752,-3.4289,-3.4214,-3.3133,0.0,-3.2661,-3.2661,-3.2661,-3.2661,-3.2661,-3.2353,-3.1858,-3.1858,-3.1499,-3.1024,-3.1099,-3.1099,-3.1198,-3.1873,-3.2092,-3.2092,-3.2164,-3.22,-3.2237,-3.2286,-3.2322,-3.2322,-3.2322,-3.2381,-3.2547,-3.2868,-3.3009,-3.315,-3.3507,-3.3577,-3.3577,-3.3577,-3.3928,-3.424,-3.424,-3.461,-3.4909,-3.4909,-3.4909,-3.4942,-3.5023,-3.5527,-3.6022,-3.646,-3.6492,-3.6492,-3.6492,-3.6492,-3.6492,-3.6492,-3.6492,-3.6492,-3.6492,-3.6492,-3.6492,-3.6492,-3.6492,-3.6492,-3.6492,-3.6492,-3.6492,-3.6492,-3.6492,-3.6492,-2.4213,-2.4401,-2.4359,-2.3597,-2.3254,-2.2818,-2.167,-2.1405,-2.1454,-2.1617,-2.2805,-2.3903,-2.4227,-2.6506,-2.8458,-2.8972,-3.0531,-3.2324,-3.4139,-3.4168,-3.4227,-3.4721,-3.4326,-3.3821,-3.3338,-3.3281,-3.3281,-3.3281,-3.3281,-3.3469,-3.3793,-3.3843,-3.3979,-3.4384,-3.4384,-3.4384,-3.4384,-3.4384,-3.4384,-3.4433,-3.4799,-3.4981,-3.4957,-3.4536,-3.4149,-3.3875,-3.3044,-3.2584,-3.2302,-3.2302,-3.2302,-3.2302,-3.2302,-3.2006,-3.1552,-3.1294,-3.0871,-3.0404,-3.01,-2.9999,-3.0063,-3.0418,-3.1009,-3.1556,-3.1776,-3.185,-3.1873,-3.2055,-3.2092,-3.2092,-3.2092,-3.2092,-3.2164,-3.2345,-3.2381,-3.2453,-3.261,-3.2696,-3.2696,-3.2696,-3.3058,-3.3346,-3.3346,-3.3756,-3.4065,-3.4065,-3.4065,-3.4167,-3.4442,-3.471,-3.5088,-3.5623,-3.5655,-3.5655,-3.5655,-3.5655,-3.5655,-3.5655,-3.5655,-3.5655,-3.5655,-3.5926,-3.6085,-3.6085,-3.6352,-3.6492,-3.6492,-3.6492,-3.6492,-3.6492,-3.6492,-3.6492,-2.4607,-2.4753,-2.4633,-2.3853,-2.3323,-2.2715,-2.1653,-2.1071,-2.0957,-2.1582,-2.2351,-2.3055,-2.3617,-2.5688,-2.7237,-2.7088,-2.8821,-3.0687,-3.2229,-3.2616,-3.3161,-3.4087,-3.3936,0.0,-3.3327,-3.3281,0.0,-3.3281,-3.3281,-3.3281,-3.3281,-3.3281,-3.3281,-3.3281,-3.3281,-3.3281,-3.3281,-3.3281,-3.3281,-3.3331,-3.388,-3.4152,-3.419,-3.4198,-3.3952,-3.3395,-3.2886,-3.2354,-3.1865,-3.1865,-3.1865,-3.1865,-3.1865,-3.1605,-3.1223,-3.0784,-3.0306,-2.984,-2.9426,-2.918,-2.9081,-2.9081,-2.9793,-3.0659,-3.111,-3.1259,-3.132,-3.1763,-3.185,-3.185,-3.185,-3.185,-3.1873,-3.1982,-3.2055,-3.2092,-3.2092,-3.2092,-3.2092,-3.2092,-3.2345,-3.2561,-3.2561,-3.2824,-3.303,-3.303,-3.303,-3.3192,-3.3638,-3.3659,-3.3831,-3.4259,-3.4677,-3.4909,-3.4909,-3.4909,-3.4909,-3.4909,-3.4909,-3.4909,-3.4909,-3.5317,-3.5512,-3.5512,-3.5958,-3.6163,-3.6163,-3.6163,-3.6163,-3.6148,-3.6289,-3.632,-2.4227,-2.4547,-2.4633,-2.3853,-2.3177,-2.2439,-2.1593,-2.0857,-2.0492,-2.089,-2.1298,-2.17,-2.2111,-2.3269,-2.4411,-2.5258,-2.654,-2.7891,-2.939,-3.0526,-3.1455,-3.2077,0.0,0.0,-3.3277,-3.3281,-3.3281,-3.3281,-3.3281,-3.3281,-3.3281,-3.3281,-3.3281,-3.3281,-3.3281,-3.3281,-3.3281,-3.3281,-3.3281,-3.3281,-3.3381,-3.3381,-3.3408,-3.2926,-3.2395,-3.1887,-3.1402,-3.0894,0.0,-3.0385,-3.0385,-3.0385,-3.0385,-3.043,-3.0486,-3.0438,-3.0218,-2.9889,-2.984,-2.9524,-2.9081,-2.9081,-2.916,-2.9394,-2.9947,-3.0152,-3.0266,-3.0936,-3.1099,-3.1099,-3.1099,-3.1099,-3.1198,-3.1556,-3.1873,-3.2092,-3.2092,-3.2092,-3.2092,-3.2092,-3.2128,-3.2164,-3.2164,-3.22,-3.22,-3.22,-3.22,-3.2237,-3.2273,-3.2273,-3.2309,-3.2331,-3.3885,-3.4909,-3.4909,-3.4909,-3.4909,-3.4909,-3.4909,-3.4909,-3.4909,-3.4957,-3.4975,-3.4975,-3.5008,-3.5041,-3.5041,-3.5041,-3.5041,-3.5055,-3.5559,-3.5784,-2.3768,-2.4008,-2.3999,-2.3468,-2.2989,-2.2397,-2.1585,-2.1182,-2.1011,-2.1165,-2.1499,-2.1876,-2.2311,-2.3082,-2.3823,-2.4217,-2.5114,-2.6352,-2.8083,-2.8475,-2.9081,-3.047,-3.0642,-3.0652,0.0,0.0,-3.1041,-3.1902,-3.2004,-3.237,-3.3231,-3.3281,-3.3281,-3.3281,-3.3281,-3.3281,-3.3281,-3.3281,-3.3281,-3.3281,-3.3281,-3.3281,-3.3258,-3.273,-3.2213,-3.172,-3.1226,-3.0709,0.0,-3.0216,-3.0216,-3.0216,-3.0216,-3.0225,-3.0274,-2.9971,-2.9784,-2.9565,-2.8982,-2.8616,-2.838,-2.8061,-2.7966,-2.8155,-2.9172,-2.9445,-2.9523,-2.9793,-2.9871,-2.9871,-2.9871,-3.0114,-3.0432,-3.0608,-3.106,-3.1445,-3.1445,-3.1445,-3.1445,-3.1445,-3.1629,-3.1813,-3.1813,-3.1982,-3.2092,-3.2092,-3.2092,-3.2092,-3.2092,-3.2092,-3.2092,-3.2092,-3.2783,-3.3297,-3.3555,-3.3589,-3.3673,-3.3908,-3.3942,-3.3942,-3.3942,-3.4254,-3.4409,-3.4409,-3.4758,-3.4909,-3.4909,-3.4909,-3.4776,-3.4528,-3.4762,-3.4714,-2.3238,-2.3546,-2.3624,-2.3203,-2.2835,-2.2431,-2.173,-2.149,-2.1439,-2.1559,-2.1807,-2.2107,-2.2525,-2.3038,-2.3388,-2.3388,-2.4017,-2.5011,-2.6343,-2.6784,-2.7425,-2.878,0.0,-2.896,-2.8978,-2.9011,-2.9389,-3.04,-3.0452,-3.0938,-3.1993,-3.2055,-3.242,-3.3281,-3.3281,-3.3281,-3.3281,-3.3281,-3.3281,-3.3281,-3.3281,-3.3201,-3.304,-3.2661,-3.2144,-3.1525,-3.1169,-3.0709,0.0,-3.0216,-3.0216,-3.0216,-3.0216,-3.0216,-3.017,-2.9837,-2.9619,-2.9401,-2.8677,-2.823,-2.792,-2.7564,-2.7305,-2.7383,-2.8275,-2.8661,-2.8858,-2.9042,-2.9081,-2.9081,-2.9081,-2.9406,-2.9716,-2.9716,-3.0075,-3.0432,-3.0432,-3.0432,-3.0432,-3.0432,-3.0797,-3.1134,-3.1134,-3.1482,-3.1776,-3.1776,-3.1776,-3.1776,-3.1776,-3.1776,-3.1776,-3.1776,-3.1776,-3.1982,-3.2489,-3.2525,-3.2632,-3.2909,-3.2959,-3.2959,-3.2959,-3.329,-3.352,-3.352,-3.3885,-3.4056,-3.4056,-3.4056,-3.3953,-3.3665,-3.3802,-3.3822,-2.2603,-2.3152,-2.3624,-2.3203,-2.2835,-2.25,-2.2081,-2.1687,-2.1525,-2.191,-2.1996,-2.2107,-2.2525,-2.2603,-2.2594,-2.2594,-2.322,-2.3718,-2.3752,-2.551,-2.6847,0.0,-2.8116,-2.8952,-2.9009,-2.9011,-2.9021,-2.9021,-2.9021,0.0,-2.9064,-2.9064,-3.0338,-3.3231,-3.3281,-3.3281,-3.3281,-3.3281,-3.3281,-3.3281,-3.3281,-3.3005,-3.2489,-3.2489,-3.1949,-3.1019,-3.1019,-3.0709,0.0,-3.0216,-3.0216,-3.0216,-3.0216,-3.0216,-3.0216,-3.0204,-2.9906,-2.9504,-2.9481,-2.8827,-2.7977,-2.7977,-2.7633,-2.719,-2.7231,-2.7696,-2.8327,-2.8937,-2.9081,-2.9081,-2.9081,-2.9081,-2.9121,-2.9121,-2.9121,-2.9121,-2.9121,-2.9121,-2.9121,-2.9121,-2.96,-2.9999,-2.9999,-3.0583,-3.1024,-3.1024,-3.1024,-3.1024,-3.1024,-3.1024,-3.1024,-3.1024,-3.1024,-3.131,-3.2019,-3.2092,-3.2092,-3.2092,-3.2092,-3.2092,-3.2092,-3.2128,-3.2128,-3.2128,-3.2128,-3.2128,-3.2128,-3.2128,-3.2128,-3.2128,-3.2662,-3.3199,-2.1773,-2.2141,-2.2432,-2.2047,-2.2064,-2.2064,-2.1687,-2.1901,-2.2199,-2.2021,-2.2201,-2.2457,-2.2577,-2.2594,-2.268,-2.2895,-2.3134,-2.3468,-2.399,-2.4631,0.0,-2.5432,-2.5831,-2.6125,0.0,0.0,-2.6554,-2.7498,-2.7552,-2.797,-2.8958,-2.9011,-2.9442,-3.0348,-3.0577,-3.0577,-3.0348,-3.1524,-3.2004,-3.179,-3.2433,-3.265,-3.2466,-3.1789,-3.1306,-3.0996,-3.0629,-3.0376,-3.0216,-3.0216,-3.0216,-3.0216,-3.0216,-3.0216,-3.0216,-3.0216,-3.0124,-2.994,-2.9607,-2.9286,-2.8907,-2.8207,-2.7874,-2.7679,-2.7293,-2.7342,-2.7545,-2.7736,-2.7805,-2.7805,-2.7805,-2.8127,-2.8474,-2.8474,-2.8779,-2.9081,-2.9081,-2.9081,-2.9081,-2.9081,-2.9238,-2.9394,-2.9394,-2.9561,-2.9716,-2.9716,-2.9716,-2.9716,-2.9716,-2.9716,-2.9871,-3.0266,-3.0317,-3.0722,-3.1666,-3.1776,-3.185,-3.2092,-3.2092,-3.2092,-3.2092,-3.2092,-3.2092,-3.2092,-3.2092,-3.2092,-3.2092,-3.2092,-3.1982,-3.1776,-3.1653,-3.1676,-2.1413,-2.1593,-2.179,-2.1833,-2.1919,-2.197,-2.1867,-2.2251,-2.2534,-2.2302,-2.2439,-2.2594,-2.2594,-2.2594,-2.2671,-2.286,-2.3023,-2.3323,-2.3931,-2.4145,-2.4321,-2.477,-2.4821,0.0,0.0,-2.4821,-2.5191,-2.6027,-2.6136,-2.6499,-2.74,-2.7391,-2.7391,-2.7391,-2.8671,-2.9199,-2.9011,-3.0078,-3.0504,-3.0296,-3.0759,-3.0894,-3.0685,-3.0035,-2.9584,-2.9432,-2.9551,-2.9612,0.0,-3.0023,-3.0216,-3.0216,-3.0216,-3.0216,-3.0216,-3.0216,-3.0216,-3.017,-2.9871,-2.9653,-2.9401,-2.8758,-2.8299,-2.792,-2.761,-2.738,-2.719,-2.719,-2.719,-2.719,-2.719,-2.7505,-2.7817,-2.7817,-2.8127,-2.8383,-2.8383,-2.8383,-2.8383,-2.8383,-2.8581,-2.874,-2.874,-2.8964,-2.9081,-2.9081,-2.9081,-2.9081,-2.9081,-2.9081,-2.9238,-2.96,-2.9678,-2.9947,-3.0582,-3.1097,-3.1445,-3.1666,-3.1666,-3.1666,-3.1666,-3.1666,-3.1666,-3.1666,-3.1666,-3.1666,-3.1666,-3.1666,-3.1593,-3.1384,-3.1123,-3.0986,0.0,-2.1413,-2.1576,-2.2337,-2.2276,-2.209,-2.2482,-2.2577,0.0,-2.2594,-2.2594,-2.2603,-2.2628,-2.262,-2.262,-2.2705,-2.2946,-2.3297,-2.3744,-2.405,-2.4355,0.0,-2.4821,0.0,-2.4821,-2.4821,-2.4821,-2.4821,-2.4821,-2.4821,-2.4821,-2.4821,-2.4821,-2.4821,-2.7346,-2.8704,-2.8704,-2.881,-2.8843,-2.8803,-2.8548,-2.8157,-2.7643,-2.7576,-2.7245,0.0,-2.8038,-2.8527,-2.862,-2.9555,-2.9932,-2.9932,-2.9932,-2.9977,-2.9977,-2.9977,-2.9988,-2.9977,-3.008,-2.9827,-2.945,-2.9504,-2.8838,-2.8023,-2.7989,-2.7633,-2.719,-2.719,-2.719,-2.719,-2.719,-2.719,-2.719,-2.719,-2.719,-2.719,-2.719,-2.719,-2.719,-2.719,-2.7708,-2.8139,-2.8139,-2.8581,-2.8964,-2.8964,-2.8964,-2.8964,-2.8964,-2.8964,-2.8964,-2.9042,-2.9055,-2.9042,-2.9081,-3.019,-3.0861,-3.0861,-3.0861,-3.0861,-3.0949,-3.0949,-3.0949,-3.0986,-3.0986,-3.0986,-3.0986,-3.0986,-3.0986,-3.0986,-3.0986,-3.0986,-2.1185,0.0,-2.1456,-2.1627,-2.1833,-2.2021,0.0,-2.2388,-2.2594,-2.2594,-2.2594,-2.2688,-2.2929,-2.2791,-2.2886,-2.3699,-2.3665,-2.3768,-2.4453,-2.4624,-2.4718,-2.4812,-2.4821,-2.4821,-2.4821,-2.4821,-2.4821,-2.4821,-2.4821,-2.4821,-2.4821,-2.4821,-2.4821,-2.4821,-2.545,-2.5771,-2.5771,-2.7105,-2.7515,-2.7012,-2.7615,-2.7693,-2.7309,-2.6903,-2.6592,-2.6529,-2.6826,-2.6921,-2.6968,-2.7195,-2.729,-2.729,-2.75,-2.7594,-2.7641,-2.784,-2.7898,-2.8038,-2.8817,-2.8982,-2.8965,-2.9385,-2.9056,-2.8459,-2.8092,-2.7633,-2.719,-2.719,-2.719,-2.719,-2.719,-2.719,-2.719,-2.719,-2.719,-2.719,-2.719,-2.719,-2.719,-2.719,-2.7353,-2.7423,-2.7423,-2.7545,-2.7655,-2.7655,-2.7655,-2.7655,-2.7655,-2.7655,-2.7857,-2.8367,-2.8407,-2.8593,-2.9042,-2.9355,-2.9561,-2.9561,-2.9561,-2.9755,-3.0241,-3.0241,-3.047,-3.0986,-3.0986,-3.0986,-3.0986,-3.0986,-3.0986,-3.0986,-3.0986,-3.0986,-2.0743,-2.1038,-2.1293,-2.1799,-2.197,-2.2038,-2.221,-2.2448,-2.2594,-2.2594,-2.2594,-2.2663,-2.2818,-2.2835,-2.3006,-2.3622,-2.3699,-2.3888,-2.447,-2.471,-2.4821,-2.4821,-2.4821,-2.4821,0.0,-2.4821,-2.4821,-2.4821,-2.4821,-2.4821,-2.4821,-2.4821,-2.4821,-2.4821,-2.4821,-2.4821,-2.4821,-2.5538,-2.5757,-2.537,-2.5548,-2.5505,-2.533,-2.5005,-2.4856,-2.4856,-2.5441,-2.5732,-2.5732,-2.6204,-2.6386,-2.6433,-2.6587,-2.6635,-2.6635,-2.6788,-2.6931,-2.7084,-2.7662,-2.7898,-2.8053,-2.8372,-2.8083,-2.7689,-2.793,-2.7435,-2.6903,-2.7113,-2.719,-2.719,-2.719,-2.719,-2.719,-2.719,-2.719,-2.719,-2.719,-2.719,-2.719,-2.719,-2.719,-2.719,-2.719,-2.719,-2.719,-2.719,-2.719,-2.719,-2.719,-2.719,-2.7353,-2.7708,-2.7748,-2.7857,-2.8195,-2.8235,-2.8462,-2.9042,-2.9081,-2.925,-2.9561,-2.96,-2.9755,-3.0114,-3.0114,-3.0114,-3.0114,-3.0394,-3.0545,-3.0545,-3.0861,-3.0986,-2.013,-2.0556,-2.1047,-2.2096,-2.2063,-2.191,-2.2274,-2.2342,-2.2342,-2.2443,-2.2443,-2.251,-2.2671,-2.2895,-2.3151,-2.3263,-2.3622,-2.3982,-2.4227,-2.4607,-2.4821,-2.4821,-2.4821,0.0,-2.4821,-2.4821,-2.4821,-2.4821,-2.4821,-2.4821,-2.4821,-2.4821,-2.4821,-2.4821,-2.4821,-2.4795,-2.4735,-2.4347,-2.4116,-2.3997,-2.3417,-2.3083,-2.3014,-2.2942,-2.2946,-2.2996,0.0,0.0,-2.459,-2.5489,-2.5809,-2.5809,-2.5857,-2.5857,-2.5915,-2.5915,-2.6108,-2.631,-2.6454,-2.674,-2.7084,-2.7084,-2.6779,-2.6599,-2.7457,-2.7092,-2.6476,-2.6856,-2.7087,-2.719,-2.719,-2.719,-2.719,-2.719,-2.719,-2.719,-2.719,-2.719,-2.719,-2.719,-2.719,-2.719,-2.719,-2.719,-2.719,-2.719,-2.719,-2.719,-2.719,-2.719,-2.719,-2.719,-2.719,-2.719,-2.719,-2.719,-2.7655,-2.874,-2.8806,-2.8858,-2.8976,-2.9042,-2.9081,-2.9081,-2.9081,-2.9081,-2.9081,-2.96,-2.9883,-2.9883,-3.0432,-3.071,-1.9739,-2.0181,-2.0536,-2.1009,-2.1132,-2.1108,-2.1165,-2.1173,-2.1275,-2.1725,-2.1827,-2.2079,-2.286,-2.3074,-2.3323,-2.3956,-2.4393,-2.4667,-2.4727,0.0,-2.4821,-2.4821,0.0,-2.4821,-2.4821,-2.4821,-2.4821,-2.4821,-2.4821,-2.4821,-2.4821,-2.4821,-2.4821,-2.4821,-2.4821,-2.4658,-2.4324,-2.421,-2.3913,-2.3288,-2.3169,-2.2946,-2.268,-2.267,-2.2644,-2.2695,0.0,-2.2937,-2.2987,-2.3129,-2.317,-2.3229,-2.342,-2.3529,-2.3569,-2.3777,-2.3877,-2.4016,-2.4884,-2.579,-2.6529,-2.6529,-2.6632,-2.6662,-2.6377,-2.6357,-2.6343,-2.602,-2.6517,-2.719,-2.719,-2.719,-2.719,-2.719,-2.719,-2.719,-2.719,-2.719,-2.719,-2.719,-2.719,-2.719,-2.719,-2.719,-2.719,-2.719,-2.719,-2.719,-2.719,-2.719,-2.719,-2.719,-2.719,-2.719,-2.719,-2.719,-2.726,-2.7493,-2.7493,-2.7736,-2.8327,-2.8819,-2.9081,-2.9081,-2.9081,-2.9081,-2.9081,-2.9199,-2.9238,-2.9238,-2.9355,-2.9394,-1.8624,-1.9007,-1.9337,-1.992,-2.0742,-2.1388,-2.1198,-2.1301,-2.1441,-2.1502,-2.1566,-2.1666,-2.2097,-2.2338,-2.286,-2.3871,-2.448,-2.4821,-2.4821,-2.4821,-2.4821,0.0,0.0,-2.4821,-2.4821,-2.4821,-2.4821,-2.4821,-2.4821,-2.4821,-2.4821,-2.4821,-2.4727,-2.4458,-2.4504,-2.4222,-2.3631,-2.3631,-2.346,-2.3109,-2.2903,-2.2766,-2.2594,-2.2594,-2.2594,-2.2594,0.0,-2.2594,-2.2594,-2.2594,-2.2594,-2.2594,-2.2745,-2.2795,-2.2795,-2.3097,-2.3197,-2.3247,-2.3877,-2.4402,-2.4777,-2.4777,-2.4875,-2.5042,-2.5324,-2.5281,-2.5233,-2.5547,-2.6023,-2.6401,-2.6401,-2.6401,-2.6336,-2.6129,-2.6446,-2.6716,-2.6501,-2.6828,-2.719,-2.719,-2.719,-2.719,-2.719,-2.719,-2.719,-2.719,-2.719,-2.719,-2.719,-2.719,-2.719,-2.719,-2.719,-2.719,-2.719,-2.719,-2.719,-2.719,-2.719,-2.7353,-2.7667,-2.7926,-2.8075,-2.8075,-2.8075,-2.8075,-2.8075,-2.8435,-2.8633,-2.8633,-2.8937,-2.9081,-1.7706,-1.8057,-1.8388,-1.8803,-2.0106,-2.13,-2.1224,-2.1347,-2.134,-2.1117,-2.1199,-2.1243,-2.0909,-2.1187,-2.1822,-2.2951,-2.356,-2.384,-2.384,-2.4128,-2.4359,-2.4295,-2.459,-2.4821,-2.4821,-2.4821,-2.4821,-2.4821,-2.4821,-2.4778,-2.4684,-2.4684,-2.4504,-2.411,-2.4102,-2.3785,-2.3117,-2.3117,-2.3074,-2.298,-2.2731,-2.2594,-2.2594,-2.2594,-2.2594,-2.2594,-2.2594,-2.2594,-2.2594,-2.2594,-2.2594,-2.2594,-2.2594,-2.2594,-2.2594,-2.2846,-2.2896,-2.2946,-2.3147,-2.3197,-2.3197,-2.3197,-2.3247,-2.3447,-2.4214,-2.4228,-2.4103,-2.4861,-2.5147,-2.5221,-2.5467,-2.5497,-2.546,-2.5211,-2.5648,-2.6065,-2.584,-2.6348,-2.68,-2.6741,-2.6718,-2.6673,-2.6561,-2.6757,-2.688,-2.688,-2.7056,-2.719,-2.719,-2.719,-2.719,-2.719,-2.719,-2.719,-2.719,-2.719,-2.719,-2.719,-2.719,-2.719,-2.719,-2.719,-2.719,-2.719,-2.719,-2.719,-2.719,-2.7708,-2.7978,-2.7978,-2.8435,-2.8661,-1.7647,-1.8057,-1.818,-1.7745,-1.8551,-1.973,-2.056,-2.0317,-2.0006,-2.0161,-2.0714,-2.0723,-1.9474,-1.9563,-2.0054,-2.0801,-2.0973,-2.1023,-2.1023,0.0,-2.3023,-2.2717,-2.3944,-2.4821,-2.4821,-2.4821,-2.4821,-2.4821,-2.4821,-2.4658,-2.4244,-2.4219,-2.4102,-2.377,-2.3761,-2.3511,-2.3117,-2.3117,-2.2937,-2.2637,-2.2611,-2.2594,-2.2594,-2.2594,-2.2594,-2.2594,-2.2594,-2.2594,-2.2594,-2.2594,-2.2594,-2.2594,-2.2594,-2.2594,-2.2594,-2.2594,-2.2653,-2.2644,-2.2644,-2.2644,-2.2644,-2.2644,-2.2846,-2.3046,-2.3097,-2.3279,-2.3452,-2.3543,-2.3574,-2.3761,-2.4736,-2.4967,-2.5012,-2.5219,-2.5345,-2.5425,-2.564,-2.5775,-2.5695,-2.5324,-2.524,-2.5105,-2.4742,-2.5368,-2.5913,-2.5913,-2.6663,-2.719,-2.719,-2.719,-2.719,-2.719,-2.719,-2.719,-2.719,-2.719,-2.719,-2.719,-2.719,-2.719,-2.719,-2.719,-2.719,-2.719,-2.719,-2.719,-2.719,-2.7272,-2.7272,-2.7272,-2.7301,-2.7342,-1.5792,-1.6331,-1.6764,-1.6619,-1.7251,-1.809,-1.8615,-1.8843,-1.8894,-1.8751,-1.9051,-1.9158,-1.8506,-1.8925,-1.9503,-1.9791,-2.015,-2.0372,-2.0372,-2.0894,-2.1229,-2.1051,-2.1756,-2.2232,-2.2232,-2.2394,-2.2507,-2.2507,-2.2991,-2.3255,-2.3116,-2.3614,-2.3708,-2.3331,-2.3323,-2.3143,-2.2817,-2.2808,-2.274,-2.2594,-2.2594,-2.2594,-2.2594,-2.2594,-2.2594,-2.2594,-2.2594,-2.2594,-2.2594,-2.2594,-2.2594,-2.2594,-2.2594,-2.2594,-2.2594,-2.2594,-2.2594,-2.2594,-2.2594,-2.2594,-2.2594,-2.2594,-2.2644,-2.2745,-2.2745,-2.2795,-2.2896,-2.2896,-2.2896,-2.3076,-2.377,-2.3977,-2.3912,-2.3709,-2.4249,-2.4771,-2.4608,-2.5189,-2.5636,-2.5516,-2.5259,-2.5065,-2.489,-2.4932,-2.4999,-2.4999,-2.5306,-2.5516,-2.5516,-2.5516,-2.5516,-2.5516,-2.6019,-2.6569,-2.7149,-2.719,-2.719,-2.719,-2.719,-2.719,-2.719,-2.719,-2.719,-2.719,-2.719,-2.719,-2.719,-2.719,-2.719,-2.719,-2.719,-2.719,-1.4818,-1.5367,-1.5828,-1.58,-1.6231,-1.6746,-1.683,-1.7527,-1.809,-1.7813,-1.7628,-1.7471,-1.7623,-1.7902,-1.8144,-1.826,-1.8661,-1.8887,-1.8887,-1.9343,-1.9567,-1.9503,-2.0092,-2.0558,-2.0558,-2.0637,-2.0686,-2.0686,-2.1178,-2.1447,-2.1278,-2.1932,-2.2136,-2.1778,-2.1822,-2.1913,-2.208,-2.2072,-2.2173,-2.2422,-2.2422,-2.2482,-2.2594,-2.2594,-2.2594,-2.2594,-2.2594,-2.2594,-2.2594,-2.2594,-2.2594,-2.2594,-2.2594,-2.2594,-2.2594,-2.2594,-2.2594,-2.2594,-2.2594,-2.2594,-2.2594,-2.2594,-2.2594,-2.2594,-2.2594,-2.2594,-2.2594,-2.2594,-2.2594,-2.2695,-2.3046,-2.3147,-2.3085,-2.2862,-2.341,-2.3949,-2.3766,-2.441,-2.4913,-2.4775,-2.452,-2.428,-2.4058,-2.3973,-2.3951,-2.3854,-2.4092,-2.4307,-2.436,-2.436,-2.4413,-2.4498,-2.5031,-2.5631,-2.629,-2.6332,-2.6456,-2.6745,-2.6745,-2.688,-2.719,-2.719,-2.719,-2.719,-2.719,-2.719,-2.719,-2.719,-2.719,-2.719,-2.719,-2.719,-1.5051,-1.5415,-1.5674,-1.5382,-1.5538,-1.5693,-1.5306,-1.6421,-1.7585,-1.7524,-1.647,-1.5893,-1.682,-1.6242,-1.572,-1.6022,-1.6081,-1.6081,-1.6081,-1.7408,-1.826,-1.7898,-1.9214,-2.0122,-2.0122,-1.9913,-1.9731,-1.9731,-1.9569,-1.932,-1.8889,-1.9209,-1.9233,-1.8797,-1.9057,-1.9738,-2.0877,-2.0885,-2.1224,-2.1946,-2.1946,-2.2184,-2.2594,-2.2594,-2.2594,-2.2594,-2.2594,-2.2594,-2.2594,-2.2594,-2.2594,-2.2594,-2.2594,-2.2594,-2.2594,-2.2594,-2.2594,-2.2594,-2.2594,-2.2594,-2.2594,-2.2594,-2.2594,-2.2594,-2.2594,-2.2594,-2.2594,-2.2594,-2.2594,-2.2594,-2.2594,-2.2594,-2.2644,-2.2946,-2.2996,-2.3046,-2.3347,-2.3397,-2.3281,-2.2792,-2.2713,-2.2465,-2.1751,-2.2346,-2.2768,-2.246,-2.3173,-2.3856,-2.4049,-2.4092,-2.4178,-2.4445,-2.4498,-2.4498,-2.4498,-2.4498,-2.4872,-2.5746,-2.5788,-2.6216,-2.7149,-2.719,-2.719,-2.719,-2.719,-2.719,-2.719,-2.719,-2.719,-2.719,-2.719,-2.719,-1.3094,-1.3576,-1.4168,-1.4062,-1.4607,-1.5192,-1.5176,-1.5724,-1.6247,-1.6408,-1.5997,-1.5715,-1.5946,-1.5774,-1.5655,-1.572,-1.5585,-1.5476,-1.5476,-1.5717,-1.5881,-1.5823,-1.6388,-1.6843,-1.6843,-1.6934,-1.6998,-1.6998,-1.7508,-1.7738,-1.7652,-1.83,-1.8568,-1.8256,-1.8513,-1.8786,-1.9139,-1.9302,-1.9522,-1.9768,-1.9768,-2.0582,-2.2158,-2.2158,-2.2354,-2.2594,-2.2594,-2.2594,-2.2594,-2.2594,-2.2594,-2.2594,-2.2594,-2.2594,-2.2594,-2.2594,-2.2431,-2.2201,-2.2508,-2.2422,-2.2201,-2.2508,-2.2594,-2.2594,-2.2594,-2.2594,-2.2594,-2.2594,-2.2594,-2.2594,-2.2594,-2.2594,-2.2594,-2.2695,-2.2846,-2.2996,-2.3097,-2.3247,-2.337,-2.3196,-2.2948,-2.2633,-2.2412,-2.2366,-2.2231,-2.188,-2.2281,-2.2539,-2.2353,-2.2246,-2.2467,-2.3173,-2.34,-2.379,-2.4445,-2.4498,-2.4616,-2.4872,-2.4872,-2.56,-2.7149,-2.719,-2.719,-2.719,-2.719,-2.719,-2.719,-2.719,-2.719,-2.719,-2.719,-2.719,-1.2716,-1.3243,-1.3922,-1.4013,-1.4536,-1.5095,-1.5332,-1.5499,-1.5639,-1.5839,-1.5698,-1.5601,-1.5601,-1.5601,-1.5569,-1.5478,-1.5285,-1.5161,-1.5117,-1.4977,-1.4885,-1.4885,-1.5055,-1.5174,-1.5174,-1.5249,-1.53,-1.53,-1.5719,-1.5946,-1.5946,-1.6574,-1.6819,-1.6652,-1.6918,-1.7291,-1.774,-1.7802,-1.7993,-1.8397,-1.8323,-1.9015,-2.0362,-2.0596,-2.117,-2.1971,-2.2384,-2.2594,-2.2594,-2.2594,-2.2594,-2.2594,-2.2594,-2.2594,-2.2594,-2.2594,-2.2457,-2.2244,-2.2525,-2.2354,-2.2055,-2.2474,-2.25,-2.2405,-2.2551,-2.2594,-2.2594,-2.2594,-2.2594,-2.2594,-2.2594,-2.2594,-2.2594,-2.2594,-2.2695,-2.2846,-2.2846,-2.2946,-2.3097,-2.3097,-2.2854,-2.2603,-2.2455,-2.2236,-2.1957,-2.1564,-2.1789,-2.1907,-2.1717,-2.1682,-2.1834,-2.2221,-2.2531,-2.2884,-2.329,-2.3359,-2.3492,-2.3823,-2.3954,-2.4693,-2.6136,-2.617,-2.6124,-2.6124,-2.6124,-2.629,-2.6663,-2.6663,-2.6839,-2.719,-2.719,-2.719,-1.333,-1.3933,-1.4557,-1.4794,-1.5068,-1.5279,-1.5548,-1.5601,-1.5601,-1.5601,-1.5601,-1.5601,-1.5601,-1.558,-1.5499,-1.5226,-1.5156,-1.5049,-1.488,-1.4837,-1.4821,-1.4821,-1.4821,-1.4821,-1.4821,-1.4627,-1.4448,-1.4448,-1.4309,-1.4196,-1.4196,-1.445,-1.4541,-1.4519,-1.4809,-1.5441,-1.6455,-1.6287,-1.6573,-1.7492,-1.7323,-1.7341,-1.7611,-1.8395,-1.9458,-2.0783,-2.1818,-2.2283,-2.2283,-2.2283,-2.2283,-2.2283,-2.2384,-2.2443,-2.2443,-2.2544,-2.2577,-2.2551,-2.2585,-2.2354,-2.2055,-2.2474,-2.2371,-2.2107,-2.2457,-2.2568,-2.2594,-2.256,-2.2568,-2.2594,-2.2594,-2.2594,-2.2594,-2.2594,-2.2594,-2.2594,-2.2594,-2.2594,-2.2594,-2.2594,-2.2594,-2.2491,-2.2107,-2.2047,-2.1927,-2.1567,-2.1648,-2.1804,-2.1791,-2.1965,-2.1958,-2.1651,-2.1934,-2.1996,-2.1689,-2.1662,-2.1959,-2.2775,-2.3047,-2.359,-2.445,-2.4559,-2.4612,-2.4612,-2.4612,-2.4987,-2.5782,-2.5782,-2.6201,-2.7001,-2.7046,-2.7012,-1.2727,-1.3437,-1.432,-1.4552,-1.5068,-1.5537,-1.5585,-1.5601,-1.5601,-1.5601,-1.5601,-1.5601,-1.5601,-1.5451,-1.5253,-1.5199,-1.4877,-1.4614,-1.4616,-1.4455,-1.4342,-1.4342,-1.4342,-1.4342,-1.4342,-1.4299,-1.4266,-1.4266,-1.4223,-1.4196,-1.4196,-1.4245,-1.4207,-1.3953,-1.4249,-1.4522,-1.4791,-1.4929,-1.4978,-1.5077,-1.5016,-1.5042,-1.5149,-1.7413,-1.8838,-1.9591,-1.9797,-1.9952,-1.9952,-1.9952,-1.9952,-2.0004,-2.0936,-2.1251,-2.1344,-2.2283,-2.2414,-2.2158,-2.25,-2.2354,-2.2055,-2.2474,-2.2542,-2.2439,-2.2175,-2.2371,-2.2534,-2.2201,-2.2371,-2.2594,-2.2594,-2.2594,-2.2594,-2.2594,-2.2594,-2.2594,-2.2594,-2.2594,-2.2594,-2.2594,-2.2594,-2.2568,-2.2491,-2.2474,-2.2448,-2.2362,-2.1839,-2.1621,-2.193,-2.1891,-2.1856,-2.1777,-2.1942,-2.2064,-2.1975,-2.1967,-2.2061,-2.2279,-2.2326,-2.2467,-2.2655,-2.4459,-2.5444,-2.5444,-2.5444,-2.5533,-2.5701,-2.5701,-2.5667,-2.5548,-2.5864,-2.5686,-1.2151,-1.2765,-1.3585,-1.4256,-1.5009,-1.5601,-1.5601,-1.5601,-1.5601,-1.5601,-1.5601,-1.5601,-1.5601,-1.5408,-1.5156,-1.5095,-1.4716,-1.4443,-1.4385,-1.4266,-1.4196,-1.4196,-1.4196,-1.4196,-1.4196,-1.4196,-1.4196,-1.4196,-1.4196,-1.4196,-1.4196,-1.4196,-1.4132,-1.4003,-1.4126,-1.4245,-1.4274,-1.4215,-1.4248,-1.4258,-1.414,-1.4248,-1.4522,-1.6727,-1.7881,-1.823,-1.8916,-1.9176,-1.9176,-1.9176,-1.9176,-1.928,-1.9849,-2.0107,-2.0158,-2.0731,-2.0825,-2.0697,-2.0872,-2.0713,-2.0474,-2.0875,-2.1188,-2.1511,-2.1495,-2.198,-2.256,-2.2362,-2.2448,-2.2594,-2.2594,-2.2594,-2.2594,-2.2594,-2.2594,-2.2594,-2.2594,-2.2594,-2.2594,-2.2594,-2.2594,-2.2594,-2.2594,-2.2594,-2.2594,-2.2594,-2.2259,-2.203,-2.2285,-2.2229,-2.2129,-2.1907,-2.2143,-2.2284,-2.2052,-2.2044,-2.2044,-2.2044,-2.2189,-2.2228,-2.2228,-2.3755,-2.4419,-2.3969,-2.3959,-2.419,-2.4631,-2.4631,-2.4786,-2.5015,-2.5193,-2.5049,-1.1563,-1.2068,-1.2762,-1.3914,-1.4772,-1.524,-1.524,-1.5359,-1.5418,-1.5418,-1.5537,-1.5601,-1.5601,-1.5375,-1.5065,-1.4918,-1.4654,-1.4412,-1.4218,-1.4196,-1.4196,-1.4196,-1.4196,-1.4196,-1.4196,-1.4196,-1.4196,-1.4196,-1.4196,-1.4196,-1.4196,-1.4196,-1.4196,-1.4196,-1.4196,-1.4196,-1.4196,-1.3986,-1.3968,-1.4135,-1.3942,-1.4108,-1.4513,-1.5968,-1.6647,-1.6753,-1.79,-1.8421,-1.8421,-1.8421,-1.8502,-1.8603,-1.876,-1.8864,-1.8968,-1.9124,-1.9176,-1.9176,-1.9176,-1.9001,-1.8818,-1.9088,-1.9617,-2.0151,-2.0421,-2.1202,-2.2013,-2.1946,-2.1971,-2.2021,-2.2021,-2.2021,-2.2021,-2.2021,-2.2182,-2.2342,-2.2544,-2.2594,-2.2594,-2.2594,-2.2594,-2.2594,-2.2594,-2.2594,-2.2594,-2.2594,-2.2594,-2.2594,-2.2594,-2.2594,-2.2482,-2.2124,-2.2414,-2.2474,-2.2115,-2.209,-2.209,-2.209,-2.2287,-2.2435,-2.2435,-2.298,-2.2897,-2.2215,-2.2293,-2.2706,-2.3476,-2.3476,-2.3842,-2.4536,-2.4614,-2.448,-1.0815,-1.1678,-1.2647,-1.3389,-1.3764,-1.3928,-1.3928,-1.4341,-1.4748,-1.4748,-1.5175,-1.5601,-1.5601,-1.5235,-1.4923,-1.4891,-1.4519,-1.4229,-1.4202,-1.4196,-1.4196,-1.4196,-1.4196,-1.4196,-1.4196,-1.4196,-1.4196,-1.4196,-1.4196,-1.4196,-1.4196,-1.4196,-1.4196,-1.4196,-1.4196,-1.4196,-1.4196,-1.4159,-1.4035,-1.3872,-1.3845,-1.3845,-1.3925,-1.4436,-1.4821,-1.5036,-1.524,-1.5292,-1.5292,-1.5292,-1.5581,-1.6111,-1.7035,-1.7562,-1.7943,-1.8871,-1.9176,-1.9176,-1.9176,-1.9147,-1.9118,-1.9213,-1.925,-1.9273,-1.908,-1.9308,-1.9583,-1.9291,-1.9418,-1.9642,-1.9642,-1.9642,-1.9642,-1.9642,-2.0416,-2.1404,-2.2392,-2.2594,-2.2594,-2.2594,-2.2594,-2.2594,-2.2594,-2.2594,-2.2594,-2.2594,-2.2594,-2.2594,-2.2594,-2.2594,-2.2577,-2.2525,-2.2568,-2.2577,-2.2525,-2.2525,-2.2525,-2.2525,-2.2576,-2.2576,-2.2576,-2.2669,-2.2652,-2.2548,-2.2997,-2.3295,-2.3435,-2.3435,-2.3256,-2.3012,-2.3412,-2.3178,-0.8929,-0.9705,-1.0651,-1.1065,-1.1569,-1.1975,-1.2072,-1.2697,-1.3205,-1.3149,-1.4084,-1.4986,-1.5285,-1.5122,-1.4842,-1.4708,-1.4412,-1.4196,-1.4196,-1.4196,-1.4196,-1.4196,-1.4196,-1.4196,-1.4196,-1.4196,-1.4196,-1.4196,-1.4196,-1.4196,-1.4196,-1.4196,-1.4132,-1.3992,-1.3986,-1.3986,-1.3986,-1.3986,-1.3997,-1.4029,-1.3884,-1.3895,-1.4024,-1.4043,-1.4198,-1.4455,-1.4464,-1.4453,-1.4464,-1.4619,-1.4849,-1.5117,-1.5719,-1.5986,-1.6205,-1.6664,-1.6876,-1.6876,-1.6876,-1.6982,-1.7153,-1.7153,-1.7674,-1.8276,-1.8137,-1.8601,-1.9147,-1.9001,-1.9066,-1.9176,-1.9176,-1.9176,-1.9176,-1.9176,-1.9591,-2.0055,-2.0577,-2.1717,-2.2594,-2.2594,-2.2594,-2.2594,-2.2594,-2.2594,-2.2594,-2.2594,-2.2594,-2.2594,-2.2594,-2.2594,-2.2594,-2.2594,-2.2594,-2.2594,-2.2594,-2.2594,-2.2594,-2.2594,-2.2594,-2.2594,-2.2594,-2.2594,-2.2594,-2.2594,-2.2846,-2.2946,-2.2946,-2.2946,-2.2859,-2.2652,-2.2868,-2.2699,-0.7396,-0.7984,-0.8678,-0.8957,-0.9554,-1.0101,-1.0229,-1.0905,-1.151,-1.1421,-1.2426,-1.3437,-1.3846,-1.4396,-1.474,-1.4507,-1.4342,-1.4196,-1.4196,-1.4196,-1.4196,-1.4196,-1.4196,-1.4196,-1.4196,-1.4196,-1.4196,-1.4196,-1.4196,-1.4196,-1.4196,-1.4196,-1.4078,-1.383,-1.382,-1.3793,-1.3733,-1.3793,-1.3916,-1.4094,-1.3911,-1.3916,-1.4089,-1.3841,-1.3843,-1.4093,-1.4043,-1.4016,-1.4095,-1.4292,-1.4496,-1.4679,-1.486,-1.4934,-1.4987,-1.4987,-1.4987,-1.4987,-1.4987,-1.5148,-1.5374,-1.5374,-1.6105,-1.6948,-1.6948,-1.7569,-1.8237,-1.8237,-1.829,-1.8342,-1.8342,-1.8342,-1.8342,-1.8342,-1.8603,-1.8871,-1.9124,-2.0526,-2.1818,-2.2131,-2.2182,-2.2283,-2.2544,-2.2594,-2.2594,-2.2594,-2.2594,-2.2594,-2.2594,-2.2594,-2.2594,-2.2594,-2.2594,-2.2594,-2.2594,-2.2594,-2.2594,-2.2594,-2.2594,-2.2594,-2.2594,-2.2594,-2.2594,-2.2594,-2.2594,-2.2594,-2.2594,-2.2594,-2.2594,-2.2594,-2.2594,-2.254,-0.6926,-0.7249,-0.7557,-0.7971,-0.8282,-0.8558,-0.8763,-0.9245,-0.9703,-0.9783,-1.0277,-1.0639,-1.0408,-1.2632,-1.4496,-1.448,-1.4342,-1.4196,-1.4196,-1.4196,-1.4196,-1.4196,-1.4196,-1.4196,-1.4196,-1.4196,-1.4196,-1.4196,-1.4196,-1.4196,-1.4196,-1.4196,-1.4078,-1.383,-1.382,-1.3717,-1.3497,-1.3712,-1.3825,-1.3841,-1.3825,-1.3825,-1.383,-1.3599,-1.3548,-1.3537,-1.3283,-1.331,-1.3532,-1.3542,-1.3964,-1.4589,-1.46,-1.4767,-1.4987,-1.4987,-1.4987,-1.4987,-1.4987,-1.4987,-1.5035,-1.5035,-1.5095,-1.5143,-1.5143,-1.5416,-1.569,-1.569,-1.5897,-1.6045,-1.6045,-1.6045,-1.6045,-1.6045,-1.6895,-1.7943,-1.8968,-1.928,-1.9694,-2.0783,-2.0987,-2.1353,-2.2392,-2.2594,-2.2594,-2.2594,-2.2594,-2.2594,-2.2594,-2.2594,-2.2594,-2.2594,-2.2594,-2.2594,-2.2594,-2.2594,-2.2594,-2.2594,-2.2594,-2.2594,-2.2594,-2.2594,-2.2594,-2.2594,-2.2594,-2.2594,-2.2594,-2.2594,-2.2594,-2.2594,-2.2594,-2.2585,-0.5504,-0.5523,-0.5674,-0.6068,-0.6224,-0.6386,-0.6597,-0.7306,-0.7959,-0.7861,-0.8791,-0.9617,-0.9398,-1.062,-1.1835,-1.2275,-1.2693,-1.3177,-1.3802,-1.432,-1.4638,-1.4638,-1.4503,-1.4412,-1.4412,-1.4283,-1.4196,-1.4196,-1.4196,-1.4196,-1.4196,-1.4196,-1.4078,-1.383,-1.382,-1.3782,-1.3696,-1.3782,-1.39,-1.4056,-1.3895,-1.3906,-1.4051,-1.3809,-1.3696,-1.3685,-1.3448,-1.3394,-1.3491,-1.3636,-1.385,-1.4119,-1.4282,-1.4401,-1.4509,-1.4509,-1.4509,-1.4509,-1.4509,-1.4611,-1.4767,-1.4767,-1.4874,-1.4987,-1.4987,-1.5095,-1.5202,-1.5202,-1.5256,-1.5303,-1.5303,-1.5303,-1.5357,-1.5583,-1.5957,-1.6424,-1.6935,-1.8185,-1.9332,-1.9746,-1.9797,-1.9952,-2.0364,-2.1038,-2.1505,-2.1505,-2.2131,-2.2594,-2.2594,-2.2594,-2.2594,-2.2594,-2.2594,-2.2594,-2.2594,-2.2594,-2.2594,-2.2594,-2.2594,-2.2594,-2.2594,-2.2594,-2.2594,-2.2594,-2.2594,-2.2594,-2.2594,-2.2594,-2.2594,-2.2594,-2.2594,-2.2594,-0.4587,-0.4504,-0.4604,-0.4934,-0.5041,-0.5089,-0.5441,-0.5996,-0.6433,-0.6353,-0.718,-0.7856,-0.7768,-0.8149,-0.9015,-1.0406,-1.1142,-1.1827,-1.2799,-1.36,-1.4189,-1.4545,-1.4633,-1.4649,-1.4649,-1.4444,-1.4309,-1.4309,-1.4239,0.0,-1.4196,-1.4196,-1.4078,-1.383,-1.3744,-1.3706,-1.3706,-1.3782,-1.3906,-1.4067,-1.39,-1.3906,-1.4062,-1.3895,-1.382,-1.382,-1.3744,-1.3669,-1.3604,-1.3755,-1.3868,-1.3959,-1.4126,-1.4196,-1.4196,-1.4196,-1.4196,-1.4196,-1.4196,-1.4293,-1.445,-1.445,-1.4611,-1.4719,-1.4719,-1.4773,-1.4874,-1.4874,-1.4928,-1.4987,-1.4987,-1.4987,-1.5041,-1.5261,-1.5315,-1.5369,-1.5571,-1.6929,-1.8192,-1.861,-1.8662,-1.8767,-1.9124,-1.9849,-2.0467,-2.0834,-2.1556,-2.2182,-2.2544,-2.2594,-2.2594,-2.2594,-2.2594,-2.2594,-2.2594,-2.2594,-2.2594,-2.2594,-2.2594,-2.2594,-2.2594,-2.2594,-2.2594,-2.2594,-2.2594,-2.2594,-2.2594,-2.2594,-2.2594,-2.2594,-2.2594,-2.2594,0.0,0.0,0.0,-0.4707,-0.4763,-0.4843,-0.5367,-0.5286,-0.5175,-0.5445,-0.5433,-0.5375,-0.538,-0.5382,-0.632,-0.9182,-0.9757,-1.0205,-1.1177,-1.2012,-1.2831,-1.3769,-1.4442,-1.4891,-1.4891,-1.4681,-1.4491,-1.4491,-1.4331,-1.4207,-1.4207,-1.4196,-1.4083,-1.3841,-1.3615,-1.3497,-1.3497,-1.3717,-1.383,-1.383,-1.383,-1.383,-1.383,-1.383,-1.383,-1.3846,-1.4089,-1.4056,-1.383,-1.383,-1.3976,-1.4196,-1.4196,-1.4196,-1.4196,-1.4196,-1.4196,-1.4196,-1.4196,-1.4196,-1.4196,-1.4196,-1.4196,-1.4196,-1.4196,-1.4401,-1.4606,-1.4606,-1.4767,-1.4987,-1.4987,-1.4987,-1.4987,-1.4982,-1.4982,-1.4982,-1.4987,-1.5464,-1.6205,-1.7318,-1.7529,-1.7891,-1.8916,-1.9124,-1.9539,-2.0629,-2.0834,-2.1251,-2.2342,-2.2544,-2.2544,-2.2544,-2.2594,-2.2594,-2.2594,-2.2594,-2.2594,-2.2594,-2.2594,-2.2594,-2.2594,-2.2594,-2.2594,-2.2594,-2.2594,-2.2594,-2.2594,-2.2594,-2.2594,-2.2594,-2.2594,-2.2594,-0.4316,0.0,0.0,0.0,0.0,0.0,-0.4957,-0.4912,-0.4936,-0.5207,-0.5245,-0.5224,-0.5357,-0.5382,-0.568,-0.6527,-0.7766,-0.8938,-0.9806,-1.1328,-1.2357,-1.2658,-1.3718,-1.4446,-1.4446,-1.4644,-1.4789,0.0,-1.4573,-1.4444,-1.4444,-1.4283,-1.4164,-1.4094,-1.4029,-1.3997,-1.3997,-1.4062,-1.4089,-1.4089,-1.4089,-1.4089,-1.4089,-1.4089,-1.4089,-1.4094,-1.4164,-1.4153,-1.4089,-1.4089,-1.4132,-1.4196,-1.4196,-1.4196,-1.4196,-1.4196,-1.4196,-1.4196,-1.4196,-1.4196,-1.4196,-1.4196,-1.4196,-1.4196,-1.4196,-1.4245,-1.4293,-1.4293,-1.4347,-1.4407,-1.4407,-1.4407,-1.4455,-1.4659,-1.4713,-1.4767,-1.4982,-1.5148,-1.541,-1.5951,-1.6064,-1.6217,-1.673,-1.7516,-1.8146,-1.8461,-1.9176,-1.9797,-2.0107,-2.0885,-2.1353,-2.1353,-2.2131,-2.2594,-2.2594,-2.2594,-2.2594,-2.2594,-2.2594,-2.2594,-2.2594,-2.2594,-2.2594,-2.2594,-2.2594,-2.2594,-2.2594,-2.2594,-2.2594,-2.2594,-2.2594,-2.2594,-0.4426,-0.4453,-0.451,-0.4536,0.0,0.0,-0.4881,-0.4861,-0.4859,-0.5077,-0.5175,-0.5198,-0.5304,-0.5355,-0.5398,-0.5447,-0.6359,-0.7399,-0.8327,-0.9705,-1.0702,-1.1129,-1.2541,-1.3426,-1.3426,-1.4177,-1.463,-1.463,-1.4556,-1.4437,-1.4401,-1.4266,-1.4196,-1.4196,-1.4196,-1.4196,-1.4196,-1.4196,-1.4196,-1.4196,-1.4196,-1.4196,-1.4196,-1.4196,-1.4196,-1.4196,-1.4196,-1.4196,-1.4196,-1.4196,-1.4196,-1.4196,-1.4196,-1.4196,-1.4196,-1.4196,-1.4196,-1.4196,-1.4196,-1.4196,-1.4196,-1.4196,-1.4196,-1.4196,-1.4196,-1.4196,-1.4196,-1.4196,-1.4196,-1.4196,-1.4196,-1.4196,-1.4245,-1.4401,-1.445,-1.4504,-1.4611,-1.4671,-1.4778,-1.5208,-1.5315,-1.5315,-1.5517,-1.6099,-1.6677,-1.7147,-1.7871,-1.8492,-1.8961,-1.9687,-2.021,-2.021,-2.1191,-2.1869,-2.1869,-2.2333,-2.2594,-2.2594,-2.2594,-2.2594,-2.2594,-2.2594,-2.2594,-2.2594,-2.2594,-2.2594,-2.2594,-2.2594,-2.2594,-2.2594,-2.2594,-2.2594,-0.4623,-0.4627,-0.4622,-0.4769,-0.4578,0.0,-0.4957,-0.4865,-0.4767,-0.5024,-0.5089,-0.5152,-0.517,-0.5304,-0.5367,-0.5367,-0.5514,-0.5953,-0.6881,-0.7716,-0.8523,-0.9438,-1.0948,-1.1976,-1.2093,-1.3263,-1.4108,-1.4229,-1.439,-1.4366,-1.4245,-1.4207,-1.4196,-1.4196,-1.4196,-1.4196,-1.4196,-1.4196,-1.4196,-1.4196,-1.4196,-1.4196,-1.4196,-1.4196,-1.4196,-1.4196,-1.4196,-1.4196,-1.4196,-1.4196,-1.4196,-1.4196,-1.4196,-1.4196,-1.4196,-1.4196,-1.4196,-1.4196,-1.4196,-1.4196,-1.4196,-1.4196,-1.4196,-1.4196,-1.4196,-1.4196,-1.4196,-1.4196,-1.4196,-1.4196,-1.4196,-1.4196,-1.4196,-1.4196,-1.4196,-1.4196,-1.4196,-1.4196,-1.4353,-1.4826,-1.4934,-1.4987,-1.4982,-1.4987,-1.5351,-1.6333,-1.6711,-1.7239,-1.8276,-1.8753,-1.8968,-1.902,-2.0055,-2.0731,-2.0731,-2.1666,-2.2283,-2.2384,-2.2392,-2.2493,-2.2594,-2.2594,-2.2594,-2.2594,-2.2594,-2.2594,-2.2594,-2.2594,-2.2594,-2.2594,-2.2594,-2.2594,-0.4591,-0.4626,-0.4673,-0.4632,0.0,0.0,-0.4657,-0.4636,-0.4655,-0.4849,-0.4851,-0.4907,-0.5106,-0.521,-0.5217,-0.5217,-0.5418,-0.5623,-0.5892,-0.6887,-0.7675,-0.7861,-0.9316,-1.0589,-1.1374,-1.2183,-1.2948,-1.3746,-1.3933,-1.4158,-1.4427,-1.4293,-1.4196,-1.4196,-1.4196,-1.4196,-1.4196,-1.4196,-1.4196,-1.4196,-1.4196,-1.4196,-1.4196,-1.4196,-1.4196,-1.4196,-1.4196,-1.4196,-1.4196,-1.4196,-1.4196,-1.4196,-1.4196,-1.4196,-1.4196,-1.4196,-1.4196,-1.4196,-1.4196,-1.4196,-1.4196,-1.4196,-1.4196,-1.4196,-1.4196,-1.4196,-1.4196,-1.4196,-1.4196,-1.4196,-1.4196,-1.4196,-1.4196,-1.4196,-1.4196,-1.4196,-1.4196,-1.4196,-1.425,-1.4353,-1.4504,-1.4767,-1.4982,-1.4987,-1.5089,-1.5298,-1.5405,-1.5565,-1.6105,-1.6935,-1.7608,-1.7891,-1.8864,-1.9539,-1.9539,-1.9746,-2.0261,-2.1191,-2.1242,-2.1658,-2.2544,-2.2594,-2.2594,-2.2594,-2.2594,-2.2594,-2.2594,-2.2594,-2.2594,-2.2594,-2.2594,-2.2594,-0.4814,-0.4736,-0.4761,-0.4714,0.0,0.0,0.0,-0.4671,-0.4677,-0.4758,-0.4871,-0.4932,-0.5022,-0.5114,-0.5138,-0.5182,-0.5357,-0.5461,-0.5506,-0.6075,-0.6492,-0.6492,-0.7676,-0.8675,-0.9213,-1.0782,-1.2243,-1.3414,-1.3562,-1.3588,-1.3598,-1.3537,-1.3426,-1.332,-1.3315,-1.3428,-1.3753,-1.3753,-1.3921,-1.4196,-1.4196,-1.4196,-1.4196,-1.4196,-1.4196,-1.4196,-1.4196,-1.4196,-1.4196,-1.4196,-1.4196,-1.4196,-1.4196,-1.4196,-1.4196,-1.4196,-1.4196,-1.4196,-1.4196,-1.4196,-1.4196,-1.4196,-1.4196,-1.4196,-1.4196,-1.4196,-1.4196,-1.4196,-1.4196,-1.4196,-1.4196,-1.4196,-1.4196,-1.4196,-1.4196,-1.4196,-1.4196,-1.4196,-1.4229,-1.4342,-1.4467,-1.4532,-1.458,-1.4617,-1.4617,-1.4617,-1.4831,-1.5072,-1.5241,-1.5814,-1.6342,-1.6456,-1.7377,-1.7962,-1.7962,-1.8589,-1.9213,-1.9834,-2.0518,-2.114,-2.1717,-2.2283,-2.2594,-2.2594,-2.2594,-2.2594,-2.2594,-2.2594,-2.2594,-2.2594,-2.2594,-2.2594,-0.5188,-0.4935,-0.4784,0.0,0.0,-0.4747,0.0,0.0,0.0,-0.475,-0.4881,-0.4945,-0.4945,0.0,0.0,-0.5103,0.0,0.0,0.0,-0.5441,0.0,-0.5552,-0.6346,-0.6943,-0.7181,-0.9503,-1.1494,-1.2777,-1.2938,-1.2958,-1.2815,-1.2725,-1.2608,-1.2448,-1.2405,-1.2604,-1.3098,-1.3152,-1.3369,-1.3867,-1.3867,-1.3921,-1.4029,-1.4029,-1.4083,-1.4196,-1.4196,-1.4196,-1.4196,-1.4196,-1.4196,-1.4196,-1.4196,-1.4196,-1.4196,-1.4196,-1.4196,-1.4196,-1.4196,-1.4196,-1.4196,-1.4196,-1.4196,-1.4196,-1.4196,-1.4196,-1.4196,-1.4196,-1.4196,-1.4196,-1.4196,-1.4223,-1.4261,-1.4261,-1.4293,-1.4326,-1.4326,-1.4326,-1.4379,-1.4568,-1.46,-1.4541,-1.4358,-1.4326,-1.4326,-1.4326,-1.4707,-1.5,-1.5055,-1.5271,-1.5426,-1.5426,-1.6049,-1.6468,-1.6468,-1.7417,-1.8164,-1.8373,-1.9472,-2.0202,-2.0408,-2.1344,-2.1861,-2.192,-2.1971,-2.1971,-2.1971,-2.2182,-2.2392,-2.2594,-2.2594,-2.2594,0.0,0.0,0.0,0.0,-0.4776,0.0,0.0,0.0,-0.4752,-0.4736,0.0,0.0,0.0,0.0,0.0,0.0,0.0,0.0,-0.503,-0.5106,-0.5257,-0.5494,-0.566,-0.6127,-0.7006,-0.8714,-1.0245,-1.1283,-1.1712,-1.2336,-1.3215,-1.2885,-1.2674,-1.265,-1.2476,-1.2436,-1.2495,-1.2495,-1.255,-1.2604,-1.2604,-1.2876,-1.3428,-1.3428,-1.3699,-1.4196,-1.4196,-1.4196,-1.4196,-1.4196,-1.4196,-1.4196,-1.4196,-1.4196,-1.4196,-1.4196,-1.4196,-1.4196,-1.4196,-1.4196,-1.4196,-1.4196,-1.4196,-1.4196,-1.4196,-1.4196,-1.4196,-1.4196,-1.4196,-1.4196,-1.4196,-1.4347,-1.4498,-1.4498,-1.4654,-1.4805,-1.4805,-1.4805,-1.481,-1.4842,-1.4842,-1.4837,-1.481,-1.4805,-1.4805,-1.4805,-1.4883,-1.5017,-1.5243,-1.5299,-1.5412,-1.5642,-1.557,-1.5525,-1.5525,-1.5479,-1.5873,-1.6857,-1.7068,-1.7634,-1.862,-1.9043,-1.9317,-1.9591,-1.9591,-1.9591,-1.9591,-2.0621,-2.1607,-2.2594,-2.2594,-2.2594,0.0,0.0,0.0,0.0,0.0,0.0,-0.474,0.0,-0.4774,0.0,0.0,0.0,0.0,0.0,0.0,0.0,-0.4979,0.0,0.0,0.0,-0.5151,0.0,0.0,0.0,-0.6932,-0.7701,-0.8714,-1.0317,-1.0528,-1.1066,-1.2013,-1.1933,-1.1794,-1.1746,-1.1612,-1.1687,-1.1951,-1.1951,-1.2114,-1.2387,-1.2387,-1.255,-1.2767,-1.2767,-1.2935,-1.3152,-1.3152,-1.3152,-1.3207,-1.3537,-1.3699,-1.3699,-1.4083,-1.4196,-1.4196,-1.4196,-1.4196,-1.4196,-1.4196,-1.4196,-1.4196,-1.4196,-1.4283,-1.439,-1.439,-1.4487,-1.4595,-1.4595,-1.4595,-1.4595,-1.4595,-1.4665,-1.474,-1.474,-1.481,-1.4885,-1.4885,-1.4885,-1.4923,-1.5068,-1.5095,-1.5138,-1.5273,-1.5068,-1.4885,-1.4885,-1.5004,-1.5095,-1.5216,-1.521,-1.5273,-1.5388,-1.5219,-1.5127,-1.5127,-1.5149,-1.5359,-1.5844,-1.6561,-1.75,-1.8723,-1.8783,-1.8883,-1.912,-1.9155,-1.9115,-1.9129,-1.968,-2.0158,-2.068,-2.1971,-2.2594,-0.7686,0.0,0.0,0.0,0.0,0.0,0.0,0.0,0.0,0.0,0.0,0.0,0.0,0.0,0.0,0.0,0.0,-0.4963,0.0,-0.4992,0.0,0.0,0.0,0.0,0.0,-0.6717,-0.7539,-0.9344,-0.9359,-0.9863,-1.115,-1.0989,-1.0914,-1.0976,-1.1024,-1.1102,-1.135,-1.135,-1.1568,-1.1946,-1.1946,-1.2001,-1.2164,-1.2164,-1.2273,-1.2387,-1.2387,-1.2387,-1.2436,-1.2876,-1.3039,-1.3098,-1.3537,-1.3699,-1.3753,-1.4083,-1.4196,-1.4196,-1.4196,-1.4196,-1.4207,-1.4266,-1.4401,-1.4491,-1.4611,-1.4751,-1.4885,-1.4885,-1.4885,-1.4885,-1.4885,-1.4934,-1.4982,-1.4982,-1.5031,-1.5079,-1.5079,-1.5079,-1.5133,-1.5253,-1.529,-1.5397,-1.5569,-1.5311,-1.5079,-1.5079,-1.523,-1.529,-1.529,-1.529,-1.529,-1.529,-1.5128,-1.4982,-1.4982,-1.5093,-1.5168,-1.5168,-1.599,-1.6955,-1.8017,-1.7882,-1.7869,-1.8134,-1.8142,-1.8151,-1.8164,-1.8538,-1.8692,-1.8738,-2.0759,-2.1658,0.0,0.0,0.0,-0.6192,0.0,0.0,0.0,0.0,-0.4859,0.0,0.0,0.0,0.0,0.0,0.0,0.0,0.0,0.0,0.0,0.0,0.0,0.0,0.0,0.0,0.0,-0.5978,-0.6902,0.0,-0.8112,-0.891,-1.1077,-1.0405,-1.0276,-1.0976,-1.1024,-1.0935,-1.0747,-1.0747,-1.0747,-1.0747,-1.0747,-1.1076,-1.1623,-1.1623,-1.1896,-1.2387,-1.2387,-1.2387,-1.2387,-1.2441,-1.2436,-1.2436,-1.2441,-1.2441,-1.2604,-1.3759,-1.4196,-1.4196,-1.4196,-1.4196,-1.4229,-1.4455,-1.4475,-1.4523,-1.4805,-1.4875,-1.4885,-1.4885,-1.4885,-1.4885,-1.4885,-1.5063,-1.5183,-1.5183,-1.5413,-1.5575,-1.5575,-1.5575,-1.558,-1.5585,-1.5585,-1.5591,-1.5601,-1.5585,-1.5575,-1.5575,-1.558,-1.5585,-1.5585,-1.5585,-1.5585,-1.5585,-1.5381,-1.5183,-1.5183,-1.502,-1.4885,-1.4885,-1.4931,-1.5101,-1.5394,-1.5389,-1.5558,-1.5795,-1.5789,-1.584,-1.584,-1.6919,-1.7463,-1.7506,-1.872,-1.9332,0.0,0.0,-0.7959,-0.78,0.0,0.0,0.0,0.0,0.0,0.0,0.0,0.0,0.0,0.0,0.0,0.0,0.0,0.0,0.0,0.0,0.0,0.0,0.0,0.0,0.0,0.0,0.0,0.0,-0.7076,0.0,-0.9201,-0.9025,-0.9242,-1.0062,-1.0163,-1.0371,-1.0696,-1.0692,-1.0692,-1.0692,-1.0692,-1.0802,-1.1021,-1.1021,-1.1076,-1.1291,-1.1291,-1.1291,-1.1295,-1.1732,-1.1896,-1.1896,-1.2273,-1.2387,-1.2441,-1.2876,-1.3261,-1.3666,-1.4199,-1.4417,-1.446,-1.4692,-1.4875,-1.4968,-1.5043,-1.5235,-1.5354,-1.5354,-1.5354,-1.5354,-1.5354,-1.5418,-1.5478,-1.5478,-1.5542,-1.5601,-1.5601,-1.5601,-1.5601,-1.5601,-1.5601,-1.5601,-1.5601,-1.5601,-1.5601,-1.5601,-1.5601,-1.5601,-1.5601,-1.5601,-1.5601,-1.5601,-1.5531,-1.5478,-1.5478,-1.5402,-1.5354,-1.5354,-1.5208,-1.5198,-1.5471,-1.5324,-1.5377,-1.5651,-1.5665,-1.5697,-1.5697,-1.609,-1.6284,-1.6278,-1.6704,-1.781,-0.9595,-0.9229,0.0,-0.8722,-0.8231,0.0,-0.6958,0.0,0.0,0.0,0.0,0.0,0.0,0.0,0.0,0.0,0.0,0.0,0.0,-0.4871,0.0,0.0,0.0,0.0,0.0,0.0,-0.5575,-0.6594,-0.628,0.0,0.0,-0.8033,-0.8247,-0.9013,-0.95,-0.9915,-1.0253,-1.0523,-1.0692,-1.0692,-1.0692,-1.0692,-1.0692,-1.0692,-1.0692,-1.0692,-1.0692,-1.0692,-1.0747,-1.1131,-1.1295,-1.1295,-1.1678,-1.1782,-1.1837,-1.2278,-1.2707,-1.3182,-1.374,-1.4101,-1.431,-1.4593,-1.4944,-1.521,-1.529,-1.5478,-1.5601,-1.5601,-1.5601,-1.5601,-1.5601,-1.5601,-1.5601,-1.5601,-1.5601,-1.5601,-1.5601,-1.5601,-1.5601,-1.5601,-1.5601,-1.5601,-1.5601,-1.5601,-1.5601,-1.5601,-1.5601,-1.5601,-1.5601,-1.5601,-1.5601,-1.5601,-1.5601,-1.5601,-1.5601,-1.5601,-1.5601,-1.5601,-1.5456,-1.544,-1.5591,-1.5456,-1.5445,-1.5596,-1.5622,-1.5657,-1.5657,-1.5676,-1.5662,-1.5662,-1.5662,-1.6618]},{"header":{"parameterUnit":"m.s-1","parameterCategory":1,"la1":30.6,"la2":29.2853,"lo1":-89.7004,"lo2":-87.6739,"dy":0.0162,"dx":0.0183,"nx":112,"ny":82,"refTime":"2024-06-11T18:00:00:Z","depth":0,"parameterNumber":3,"parameterNumberName":"V-component_of_WINDS"},"data":[0.0,0.0,0.0,0.0,0.0,0.0,0.0,0.0,0.0,0.0,0.0,0.0,0.0,0.0,0.0,0.0,0.0,0.0,0.0,0.0,0.0,0.0,0.0,0.0,0.0,0.0,0.0,0.0,0.0,0.0,0.0,0.0,0.0,0.0,0.0,0.0,0.0,0.0,0.0,0.0,0.0,0.0,0.0,0.0,0.0,0.0,0.0,0.0,0.0,0.0,0.0,0.0,0.0,0.0,0.0,0.0,0.0,0.0,0.0,0.0,0.0,0.0,0.0,0.0,0.0,0.0,0.0,0.0,0.0,0.0,0.0,0.0,0.0,0.0,0.0,0.0,0.0,0.0,0.0,0.0,0.0,0.0,0.0,0.0,0.0,0.0,0.0,0.0,0.0,0.0,1.2009,1.1261,0.98,0.8977,0.9132,0.8832,0.8482,0.7982,0.0,0.0,0.0,0.0,0.0,0.0,0.0,0.0,0.0,0.0,0.0,0.0,0.0,0.0,0.0,0.0,0.0,0.0,0.0,0.0,0.0,0.0,0.0,0.0,0.0,0.0,0.0,0.0,0.0,0.0,0.0,0.0,0.0,0.0,0.0,0.0,0.0,0.0,0.0,0.0,0.0,0.0,0.0,0.0,0.0,0.0,0.0,0.0,0.0,0.0,0.0,0.0,0.0,0.0,0.0,0.0,0.0,0.0,0.0,0.0,0.0,0.0,0.0,0.0,0.0,0.0,0.0,0.0,0.0,0.0,0.0,0.0,0.0,0.0,0.0,0.0,0.0,0.0,0.0,0.0,0.0,0.0,0.0,0.0,0.0,0.0,0.0,0.0,0.0,0.0,0.0,0.0,0.0,0.0,0.0,0.0,0.0,0.0,0.0,0.0,0.0,0.0,0.0,0.0,1.0617,0.9454,0.9071,0.8841,0.8788,0.8618,0.8323,0.7875,0.0,0.0,0.0,0.0,0.0,0.0,0.0,0.0,0.0,0.0,0.0,0.0,0.0,0.0,0.0,0.0,0.0,0.0,0.0,0.0,0.0,0.0,0.0,0.0,0.0,0.0,0.0,0.0,0.0,0.0,0.0,0.0,0.0,0.0,0.0,0.0,0.0,0.0,0.0,0.0,0.0,0.0,0.0,0.0,0.0,0.0,0.0,0.0,0.0,0.0,0.0,0.0,0.0,0.0,0.0,0.0,0.0,0.0,0.0,0.0,0.0,0.0,0.0,0.0,0.0,0.0,0.0,0.0,0.0,0.0,0.0,0.0,0.0,0.0,0.0,0.0,0.0,0.0,0.0,0.0,0.0,0.0,0.0,0.0,0.0,0.0,0.0,0.0,0.0,0.0,0.0,0.0,0.0,0.0,0.0,0.0,0.0,0.0,0.0,0.0,0.0,0.0,0.0,1.0725,0.9891,0.8992,0.8811,0.8784,0.8716,0.8499,0.8208,0.7834,0.7662,0.0,0.0,0.0,0.0,0.0,0.0,0.0,0.0,0.0,0.0,0.0,0.0,0.0,0.0,0.0,0.0,0.0,0.0,0.0,0.0,0.0,0.0,0.0,0.0,0.0,0.0,0.0,0.0,0.0,0.0,0.0,0.0,0.0,0.0,0.0,0.0,0.0,0.0,0.0,0.0,0.0,0.0,0.0,0.0,0.0,0.0,0.0,0.0,0.0,0.0,0.0,0.0,0.0,0.0,0.0,0.0,0.0,0.0,0.0,0.0,0.0,0.0,0.0,0.0,0.0,0.0,0.0,0.0,0.0,0.0,0.0,0.0,0.0,0.0,0.0,0.0,0.0,0.0,0.0,0.0,0.0,0.0,0.0,0.0,0.0,0.0,0.0,0.0,0.0,0.0,0.0,0.0,0.0,0.0,0.0,0.0,0.0,0.0,0.0,0.0,0.0,0.0,1.0322,0.9542,0.8896,0.8726,0.8645,0.8611,0.8367,0.8085,0.778,0.7451,0.0,0.0,0.0,0.0,0.0,0.0,0.0,0.0,0.0,0.0,0.0,0.0,0.0,0.0,0.0,0.0,0.0,0.0,0.0,0.0,0.0,0.0,0.0,0.0,0.0,0.0,0.0,0.0,0.0,0.0,0.0,0.0,0.0,0.0,0.0,0.0,0.0,0.0,0.0,0.0,0.0,0.0,0.0,0.0,0.0,0.0,0.0,0.0,0.0,0.0,0.0,0.0,0.0,0.0,0.0,0.0,0.0,0.0,0.0,0.0,0.0,0.0,0.0,0.0,0.0,0.0,0.0,0.0,0.0,0.0,0.0,0.0,0.0,0.0,0.0,0.0,0.0,0.0,0.0,0.0,0.0,0.0,0.0,0.0,0.0,0.0,0.0,0.0,0.0,0.0,0.0,0.0,0.0,0.0,0.0,0.0,0.0,0.0,0.0,0.0,0.0,0.0,1.016,0.9449,0.8598,0.8506,0.8445,0.8364,0.815,0.7929,0.7634,0.7204,0.0,0.0,0.0,0.0,0.0,0.0,0.0,0.0,0.0,0.0,0.0,0.0,0.0,0.0,0.0,0.0,0.0,0.0,0.0,0.0,0.0,0.0,0.0,0.0,0.0,0.0,0.0,0.0,0.0,0.0,0.0,0.0,0.0,0.0,0.0,0.0,0.0,0.0,0.0,0.0,0.0,0.0,0.0,0.0,0.0,0.0,0.0,0.0,0.0,0.0,0.0,0.0,0.0,0.0,0.0,0.0,0.0,0.0,0.0,0.0,0.0,0.0,0.0,0.0,0.0,0.0,0.0,0.0,0.0,0.0,0.0,0.0,0.0,0.0,0.0,0.0,0.0,0.0,0.0,0.0,0.0,0.0,0.0,0.0,0.0,0.0,0.0,0.0,0.0,0.0,0.0,0.0,0.0,0.0,0.0,0.0,0.0,0.0,0.0,0.0,0.0,0.0,1.004,0.9369,0.0,0.8404,0.8381,0.8327,0.813,0.7864,0.7617,0.0,0.0,0.0,0.0,0.0,0.0,0.0,0.0,0.0,0.0,0.0,0.0,0.0,0.0,0.0,0.0,0.0,0.0,0.0,0.0,0.0,0.0,0.0,0.0,0.0,0.0,0.0,0.0,0.0,0.0,0.0,0.0,0.0,0.0,0.0,0.0,0.0,0.0,0.0,0.0,0.0,0.0,0.0,0.0,0.0,0.0,0.0,0.0,0.0,0.0,0.0,0.0,0.0,0.0,0.0,0.0,0.0,0.0,0.0,0.0,0.0,0.0,0.0,0.0,0.0,0.0,0.0,0.0,0.0,0.0,0.0,0.0,0.0,0.0,0.0,0.0,0.0,0.0,0.0,0.0,0.0,0.0,0.0,0.0,0.0,0.0,0.0,0.0,0.0,0.0,0.0,0.0,0.0,0.0,0.0,0.0,0.0,0.0,0.0,0.0,0.0,0.0,1.1042,1.0759,1.0145,0.0,0.8758,0.8596,0.8248,0.835,0.827,0.7962,0.0,0.0,0.0,0.0,0.0,0.0,0.0,0.0,0.0,0.0,0.0,0.0,0.0,0.0,0.0,0.0,0.0,0.0,0.0,0.0,0.0,0.0,0.0,0.0,0.0,0.0,0.0,0.0,0.0,0.0,0.0,0.0,0.0,0.0,0.0,0.0,0.0,0.0,0.0,0.0,0.0,0.0,0.0,0.0,0.0,0.0,0.0,0.0,0.0,0.0,0.0,0.0,0.0,0.0,0.0,0.0,0.0,0.0,0.0,0.0,0.0,0.0,0.0,0.0,0.0,0.0,0.0,0.0,0.0,0.0,0.0,0.0,0.0,0.0,0.0,0.0,0.0,0.0,0.0,0.0,0.0,0.0,0.0,0.0,0.0,0.0,0.0,0.0,0.0,0.0,0.0,0.0,0.0,0.0,0.0,0.0,0.0,0.0,0.0,0.0,0.0,0.0,1.1973,1.2394,1.1901,0.985,0.9608,0.9167,0.8137,0.8863,0.9185,0.0,0.0,0.0,0.0,0.0,0.0,0.0,0.0,0.0,0.0,0.0,0.0,0.0,0.0,0.0,0.0,0.0,0.0,0.0,0.0,0.0,0.0,0.0,0.0,0.0,0.0,0.0,0.0,0.0,0.0,0.0,0.0,0.0,0.0,0.0,0.0,0.0,0.0,0.0,0.0,0.0,0.0,0.0,0.0,0.0,0.0,0.0,0.0,0.0,0.0,0.0,0.0,0.0,0.0,0.0,0.0,0.0,0.0,0.0,0.0,0.0,0.0,0.0,0.0,0.0,0.0,0.0,0.0,0.0,0.0,0.0,0.0,0.0,0.0,0.0,0.0,0.0,0.0,0.0,0.0,0.0,0.0,0.0,0.0,0.0,0.0,0.0,0.0,0.0,0.0,0.0,0.0,0.0,0.0,0.0,0.0,0.0,0.0,0.0,0.0,0.0,0.0,0.0,1.1973,1.2394,1.2193,1.0877,1.0734,1.0587,1.0293,1.0533,1.0306,0.95,0.0,0.0,0.0,0.0,0.0,0.0,0.0,0.0,0.0,0.0,0.0,0.0,0.0,0.0,0.0,0.0,0.0,0.0,0.0,0.0,0.0,0.0,0.0,0.0,0.0,0.0,0.0,0.0,0.0,0.0,0.0,0.0,0.0,0.0,0.0,0.0,0.0,0.0,0.0,0.0,0.0,0.0,0.0,0.0,0.0,0.0,0.0,0.0,0.0,0.0,0.0,0.0,0.0,0.0,0.0,0.0,0.0,0.0,0.0,0.0,0.0,0.0,0.0,0.0,0.0,0.0,0.0,0.0,0.0,0.0,0.0,0.0,0.0,0.0,0.0,0.0,0.0,0.0,0.0,0.0,0.0,0.0,0.0,0.0,0.0,0.0,0.0,0.0,0.0,0.0,0.0,0.0,0.0,0.0,0.0,0.0,0.0,0.0,0.0,0.0,0.0,0.0,1.257,1.3014,1.2926,1.1901,1.1804,1.1658,1.1219,1.156,1.1422,1.0553,0.0,0.0,0.0,0.0,0.0,0.0,0.0,0.0,0.0,0.0,0.0,0.0,0.0,0.0,0.0,0.0,0.0,0.0,0.0,0.0,0.0,0.0,0.0,0.0,0.0,0.0,0.0,0.0,0.0,0.0,0.0,0.0,0.0,0.0,0.0,0.0,0.0,0.0,0.0,0.0,0.0,0.0,0.0,0.0,0.0,0.0,0.0,0.0,0.0,0.0,0.0,0.0,0.0,0.0,0.0,0.0,0.0,0.0,0.0,0.0,0.0,0.0,0.0,0.0,0.0,0.0,0.0,0.0,0.0,0.0,0.0,0.0,0.0,0.0,0.0,0.0,0.0,0.0,0.0,0.0,0.0,0.0,0.0,0.0,0.0,0.0,0.0,0.0,0.0,0.0,0.0,0.0,0.0,0.0,0.0,0.0,0.0,0.0,0.0,0.0,0.0,0.0,1.3441,1.3972,1.395,1.2926,1.2829,1.2484,1.1565,1.2339,1.2467,1.1654,0.0,0.0,0.0,0.0,0.0,0.0,0.0,0.0,0.0,0.0,0.0,0.0,0.0,0.0,0.0,0.0,0.0,0.0,0.0,0.0,0.0,0.0,0.0,0.0,0.0,0.0,0.0,0.0,0.0,0.0,0.0,0.0,0.0,0.0,0.0,0.0,0.0,0.0,0.0,0.0,0.0,0.0,0.0,0.0,0.0,0.0,0.0,0.0,0.0,0.0,0.0,0.0,0.0,0.0,0.0,0.0,0.0,0.0,0.0,0.0,2.053,0.0,0.0,0.0,0.0,0.0,0.0,0.0,0.0,0.0,0.0,0.0,0.0,0.0,0.0,0.0,0.0,0.0,0.0,0.0,0.0,0.0,0.0,0.0,0.0,0.0,0.0,0.0,0.0,0.0,0.0,0.0,0.0,0.0,0.0,0.0,0.0,0.0,0.0,0.0,0.0,0.0,1.3441,1.3972,1.4196,1.4004,1.3956,1.3854,1.3661,1.3854,1.3531,1.2504,1.2607,0.0,0.0,0.0,0.0,0.0,0.0,0.0,0.0,0.0,0.0,0.0,0.0,0.0,0.0,0.0,0.0,0.0,0.0,0.0,0.0,0.0,0.0,0.0,0.0,0.0,0.0,0.0,0.0,0.0,0.0,0.0,0.0,0.0,0.0,0.0,0.0,0.0,0.0,0.0,0.0,0.0,0.0,0.0,0.0,0.0,0.0,0.0,0.0,0.0,0.0,0.0,0.0,0.0,0.0,0.0,0.0,0.0,0.0,0.0,0.0,2.0915,0.0,0.0,0.0,0.0,0.0,0.0,0.0,0.0,0.0,0.0,0.0,0.0,0.0,0.0,0.0,0.0,0.0,0.0,0.0,0.0,0.0,0.0,0.0,0.0,0.0,0.0,0.0,0.0,0.0,0.0,0.0,0.0,0.0,0.0,0.0,0.0,0.0,0.0,0.0,0.0,1.3429,1.3972,1.4298,1.4298,1.4298,1.4298,1.4298,1.4298,1.3954,1.3145,1.2976,0.0,0.0,0.0,0.0,0.0,0.0,0.0,0.0,0.0,0.0,0.0,0.0,0.0,0.0,0.0,0.0,0.0,0.0,0.0,0.0,0.0,0.0,0.0,0.0,0.0,0.0,0.0,0.0,0.0,0.0,0.0,0.0,0.0,0.0,0.0,0.0,0.0,0.0,0.0,0.0,0.0,0.0,0.0,0.0,0.0,0.0,0.0,0.0,0.0,0.0,0.0,0.0,0.0,2.3119,2.3119,2.3045,2.3045,2.3045,2.2981,2.2003,2.1673,2.176,2.1392,0.0,0.0,0.0,0.0,0.0,0.0,0.0,0.0,0.0,0.0,0.0,0.0,0.0,0.0,0.0,0.0,0.0,0.0,0.0,0.0,0.0,0.0,0.0,0.0,2.0979,2.0857,1.9583,0.0,0.0,0.0,0.0,0.0,0.0,0.0,0.0,0.0,0.0,0.0,1.3423,1.3972,1.4298,1.4298,1.4346,1.4394,1.4394,1.4394,1.4216,1.368,1.3355,1.3096,0.0,0.0,0.0,0.0,0.0,0.0,0.0,0.0,0.0,0.0,0.0,0.0,0.0,0.0,0.0,0.0,0.0,0.0,0.0,0.0,0.0,0.0,0.0,0.0,0.0,0.0,0.0,0.0,0.0,0.0,0.0,0.0,2.8246,2.839,0.0,0.0,0.0,0.0,0.0,0.0,0.0,0.0,0.0,0.0,0.0,0.0,0.0,2.421,2.3977,2.4315,2.4202,2.3588,2.3966,2.3947,2.3588,2.3588,2.3588,2.3579,2.3409,0.0,2.2172,2.1778,0.0,0.0,0.0,0.0,0.0,0.0,0.0,0.0,0.0,0.0,0.0,0.0,0.0,0.0,0.0,0.0,0.0,0.0,0.0,0.0,0.0,0.0,2.1531,2.1531,2.1568,2.1568,0.0,2.0425,1.9416,1.8648,1.7,0.0,0.0,0.0,0.0,0.0,0.0,0.0,1.3471,1.3972,1.4298,1.4298,1.4496,1.464,1.464,1.4838,1.4741,1.4166,1.3875,1.3477,1.2962,1.2431,0.0,0.0,0.0,0.0,0.0,0.0,0.0,0.0,0.0,0.0,0.0,0.0,0.0,0.0,0.0,0.0,0.0,0.0,0.0,0.0,0.0,0.0,0.0,0.0,0.0,0.0,0.0,0.0,0.0,2.8138,2.8847,2.8546,2.8979,2.9088,0.0,0.0,0.0,0.0,0.0,0.0,0.0,0.0,0.0,2.4822,2.5264,2.5266,2.4785,2.5208,2.5062,2.4392,2.4523,2.4514,2.4382,2.4382,2.4382,2.4373,2.4136,2.3655,2.3047,2.2509,2.1922,2.1456,0.0,0.0,0.0,0.0,2.101,2.0879,2.1083,2.0891,2.0558,2.0287,0.0,0.0,0.0,0.0,0.0,0.0,0.0,0.0,0.0,0.0,2.1696,2.1696,2.1696,2.1696,2.1696,2.1275,2.0741,0.0,1.8927,1.7565,1.65,0.0,0.0,0.0,0.0,1.3617,1.4116,1.4493,1.4742,1.4742,1.4838,1.4933,1.4933,1.5035,1.4835,1.4256,1.4104,1.3836,1.3407,1.3029,1.2732,0.0,0.0,0.0,0.0,0.0,0.0,0.0,0.0,0.0,0.0,0.0,0.0,0.0,0.0,0.0,0.0,0.0,0.0,0.0,0.0,0.0,0.0,0.0,0.0,0.0,0.0,0.0,0.0,2.8779,2.9304,2.8775,2.9304,2.9436,0.0,0.0,0.0,0.0,0.0,0.0,2.8099,2.8101,2.7747,2.6878,2.745,2.7532,2.6992,2.7212,2.7053,2.6468,2.5967,2.581,2.6045,2.5693,2.5635,2.5858,2.5543,2.509,2.4401,2.3218,2.237,2.1785,2.1741,2.1741,2.1785,2.1785,2.1627,2.1397,2.1719,2.1574,2.1218,2.0882,2.0515,2.0118,1.9512,0.0,0.0,0.0,0.0,2.1135,2.1236,2.1502,2.1696,2.1696,2.1696,2.1696,2.1696,2.1696,2.1595,0.0,2.0321,1.922,1.8232,0.0,0.0,0.0,0.0,1.4027,1.4608,1.4946,1.5083,1.5083,1.5178,1.522,1.522,1.5267,1.5023,1.4437,1.4405,1.4242,1.3805,1.3618,1.3517,1.3493,0.0,0.0,0.0,0.0,0.0,0.0,0.0,0.0,0.0,0.0,0.0,0.0,0.0,0.0,0.0,0.0,0.0,0.0,0.0,0.0,0.0,0.0,0.0,0.0,0.0,0.0,0.0,0.0,0.0,2.9316,3.017,0.0,0.0,0.0,0.0,3.1476,3.1553,3.1762,3.2264,3.2282,3.2082,3.1581,3.1596,3.1618,3.1585,3.1107,3.0827,3.0745,2.8817,2.8347,2.9237,2.7767,2.7605,2.8484,2.8473,2.7828,2.6532,2.3835,2.246,2.2052,2.1785,2.1874,2.2097,2.2097,2.2087,2.2069,2.2087,2.1909,2.1659,2.1641,2.1392,2.1034,2.0998,2.0741,0.0,0.0,2.1071,2.12,2.1559,2.1678,2.1696,2.1696,2.1696,2.1696,2.1696,2.1696,2.1687,0.0,2.0642,1.9764,1.9712,0.0,1.625,1.6022,1.5395,1.487,1.4731,1.4946,1.5083,1.5083,1.5315,1.5493,1.5493,1.5635,1.5538,1.4997,1.4963,1.4703,1.4108,1.4075,1.3801,1.324,1.32,0.0,0.0,0.0,0.0,0.0,0.0,0.0,0.0,0.0,0.0,0.0,0.0,0.0,0.0,0.0,0.0,0.0,0.0,0.0,0.0,0.0,0.0,0.0,0.0,0.0,0.0,0.0,0.0,3.0886,3.1769,0.0,3.1901,3.2334,3.2791,3.3164,3.3501,3.3505,3.3123,3.3358,3.3146,3.2332,3.26,3.2611,3.2292,3.1757,3.1361,3.1103,2.9651,2.9148,2.9471,2.8582,2.8355,2.868,2.868,2.8309,2.7541,2.603,2.4866,2.4029,2.3943,2.3943,2.3953,2.341,2.3202,2.3071,2.2353,2.2052,2.1919,2.1785,2.1595,2.1511,2.1511,2.1376,2.1284,2.1431,2.1511,2.1504,2.165,2.1696,2.1696,2.1696,2.1696,2.1696,2.1696,2.1696,2.1696,2.1696,2.1337,2.0926,2.0666,1.9476,1.8558,1.8434,1.7693,1.6939,1.6425,1.7005,1.699,1.5689,1.6204,1.6386,1.573,1.5611,1.5384,1.5035,1.4783,1.4502,1.4108,1.4088,1.3988,1.3781,1.3587,1.3046,0.0,0.0,0.0,0.0,0.0,0.0,0.0,0.0,0.0,0.0,0.0,0.0,0.0,0.0,0.0,0.0,0.0,0.0,0.0,0.0,0.0,0.0,0.0,0.0,0.0,3.1459,3.2194,3.2014,3.2887,3.3549,3.3549,3.4006,3.4402,3.4763,3.516,3.521,3.4988,3.5011,3.4773,3.4129,3.4407,3.4418,3.4089,3.3538,3.318,3.2889,3.1293,3.0606,3.0769,2.9876,2.954,2.9704,2.9704,2.9466,2.8991,2.8475,2.7571,2.6404,2.5474,2.5168,2.5179,2.4595,2.4392,2.4221,2.3071,2.2652,2.2608,2.2255,2.2176,2.2176,2.2087,2.2087,2.2008,2.1776,2.1696,2.1696,2.1696,2.1696,2.1696,2.1696,2.1696,2.1696,2.1696,2.1696,2.1696,2.1696,2.1696,2.1604,2.1374,2.0554,1.997,1.9934,1.9068,1.8298,1.7848,1.838,1.828,1.6936,1.7412,1.7552,1.685,1.6519,1.6206,1.5931,1.5582,1.5262,1.4999,1.4992,1.4992,1.4992,1.4678,1.4091,1.3171,0.0,0.0,0.0,0.0,0.0,0.0,0.0,0.0,0.0,0.0,0.0,0.0,0.0,0.0,0.0,0.0,0.0,0.0,0.0,0.0,0.0,0.0,0.0,3.2354,3.2842,3.3195,3.2696,3.3513,3.4102,3.4114,3.457,3.5352,3.6374,3.6435,3.6879,3.7902,3.7457,3.7168,3.7168,3.7168,3.718,3.7192,3.6651,3.6386,3.6386,3.3845,3.2851,3.3272,3.1728,3.1294,3.1705,3.1705,3.1416,3.0946,3.0922,3.0266,2.9051,2.6309,2.54,2.5568,2.5568,2.5526,2.5358,2.4221,2.3844,2.3757,2.3299,2.3178,2.3135,2.2925,2.2882,2.2706,2.1954,2.1731,2.1731,2.1687,2.1696,2.1696,2.1696,2.1696,2.1696,2.1696,2.1696,2.1696,2.1696,2.1696,2.1696,2.1696,2.0943,2.0339,2.0339,1.9521,0.0,1.8834,1.888,1.888,1.8796,1.8842,1.8834,1.8788,1.8425,1.8068,1.7739,1.7296,1.6956,1.6706,1.6698,1.6698,1.6698,1.6429,1.5827,1.4952,0.0,0.0,0.0,0.0,0.0,0.0,0.0,0.0,0.0,0.0,0.0,0.0,0.0,0.0,0.0,0.0,0.0,0.0,0.0,0.0,0.0,3.7178,3.713,3.4794,3.4981,3.5537,3.5987,3.6395,3.6686,3.6855,3.7024,3.7228,3.7529,3.7192,3.7108,3.7397,3.6904,3.6615,3.6615,3.6615,3.6807,3.7192,3.629,3.6026,3.6386,3.4495,3.3482,3.3272,3.2456,3.1953,3.1705,3.1705,3.1633,3.1464,3.1079,3.0482,2.9767,2.8586,2.7947,2.7592,2.6969,2.6205,2.5453,2.5147,2.4893,2.4702,2.4585,2.4542,2.4542,2.4457,2.4457,2.4243,2.3226,2.2921,2.2755,2.19,2.1696,2.1696,2.1696,2.1696,2.1696,2.1696,2.1696,2.1696,2.1696,2.1696,2.1696,2.1696,2.1508,2.132,2.132,2.1087,0.0,1.9977,2.0492,2.0357,1.8926,1.943,1.9613,1.888,1.8224,1.7783,1.7723,1.7125,1.6794,1.6698,1.6698,1.6698,1.6698,1.6189,1.5939,0.0,0.0,0.0,0.0,0.0,0.0,0.0,0.0,0.0,0.0,0.0,0.0,0.0,0.0,0.0,0.0,0.0,0.0,0.0,0.0,0.0,0.0,3.8725,3.9071,3.8626,3.8369,3.8338,3.8605,3.8323,3.8213,3.8502,3.7901,3.7429,3.7324,3.7036,3.6855,3.6855,3.6362,3.6074,3.6074,3.6074,3.6326,3.6855,3.6038,3.5881,3.6386,3.4979,3.4054,3.3585,3.3068,3.2527,3.1997,3.1813,3.1705,3.1681,3.138,3.0934,0.0,0.0,0.0,0.0,0.0,2.7336,2.67,2.6329,2.611,2.5944,2.5735,2.5694,2.5652,2.561,2.5568,2.5347,2.4414,2.3996,2.3617,2.2668,2.2299,2.2087,2.1776,2.1696,2.1696,2.1696,2.1696,2.1696,2.1696,2.1696,0.0,2.1696,2.1696,2.1696,2.1696,2.1696,2.1499,2.0952,2.1365,2.1275,2.0121,2.0538,2.0673,2.0076,1.9472,0.0,0.0,0.0,1.7965,1.7804,1.7948,0.0,0.0,0.0,0.0,0.0,0.0,0.0,0.0,1.6743,1.6718,0.0,0.0,0.0,0.0,0.0,0.0,0.0,0.0,0.0,0.0,0.0,0.0,0.0,0.0,0.0,0.0,3.9479,4.0336,4.2658,4.2137,4.1321,4.0782,3.9729,3.9115,3.9256,3.7841,3.6804,3.6449,3.635,3.6314,3.6314,0.0,0.0,0.0,0.0,3.5785,3.6314,3.5797,3.5797,3.6302,3.5304,3.4498,3.3982,3.3573,3.3056,3.2466,3.2018,3.1765,3.1705,3.1705,3.1356,3.073,2.9689,2.8979,2.851,2.851,2.851,2.8391,2.7592,0.0,0.0,2.6857,2.6734,2.6693,2.6517,2.6475,2.631,2.5515,2.502,2.4573,2.378,2.3323,2.2872,2.2255,2.2069,2.2069,2.2069,2.2033,2.2043,2.2043,2.1909,2.182,2.182,2.1785,2.1696,2.1696,2.1696,2.1696,2.1696,2.1696,2.1696,2.1696,0.0,0.0,2.1696,2.1346,2.0943,2.0549,2.0104,1.9747,1.9457,1.9797,1.9783,1.9439,1.9806,1.9957,1.9957,2.0347,2.0539,2.0515,1.807,1.7401,0.0,0.0,0.0,0.0,0.0,0.0,0.0,0.0,0.0,0.0,0.0,0.0,0.0,0.0,0.0,4.0394,4.1192,4.1874,4.2861,4.3271,4.3237,4.2583,4.1551,4.0553,3.9605,3.8551,3.7593,3.6765,3.6114,3.5761,3.5761,3.5268,3.4931,3.4931,3.4931,3.5183,3.5761,3.5244,3.5244,3.5761,0.0,0.0,3.3994,3.3898,3.3392,3.2491,3.2382,3.2082,3.1705,3.1705,3.1151,3.017,2.9544,2.8979,2.851,2.851,2.851,2.8471,2.8299,2.8259,2.8219,2.8139,2.8099,2.8099,2.8059,2.8059,0.0,2.6771,2.6442,2.6099,2.5041,2.4702,2.4628,2.4489,2.4447,2.4447,2.4447,2.4178,2.3983,2.3983,2.3222,2.2583,2.2583,2.2097,2.1696,2.1696,2.1696,2.1696,2.1696,2.1696,2.1696,2.1696,2.1696,2.1696,2.1696,2.1346,2.0943,2.0549,2.0104,1.9994,2.0273,2.0356,2.0365,2.0283,2.0323,2.036,2.036,2.0484,2.0686,2.0989,2.0443,2.028,0.0,0.0,0.0,0.0,0.0,0.0,0.0,0.0,0.0,0.0,0.0,3.8124,3.9475,0.0,3.9689,4.132,4.1874,4.2426,4.3355,4.3776,4.3878,4.3519,4.2339,4.1205,4.0495,3.9248,3.817,3.7364,3.6571,3.6001,3.5795,3.5163,3.4775,3.4775,3.4775,3.5208,3.6002,3.522,3.522,3.6002,3.5159,3.4643,3.4378,3.4114,3.3706,3.3236,3.2719,3.2346,3.2058,3.1825,3.1091,3.0062,2.9797,2.9208,2.851,2.851,2.851,2.851,2.851,2.851,2.851,2.851,2.851,2.851,2.851,2.851,2.8379,2.7794,2.751,2.7133,2.6182,2.5808,2.5568,2.521,2.5083,2.5083,2.5083,2.4925,2.4808,2.4808,2.4188,2.3647,2.3647,2.3169,2.2511,2.182,2.1696,2.1696,2.1696,2.1696,2.1696,2.1696,2.1696,2.1696,2.1696,2.1346,2.1016,2.0824,2.0758,2.0689,2.0689,2.0977,2.1071,2.0857,2.1062,2.1174,2.1174,2.137,2.1575,2.177,2.177,2.1639,0.0,0.0,0.0,0.0,0.0,0.0,0.0,3.8263,3.896,4.0197,4.0137,4.0233,4.149,4.1137,4.1073,4.2249,4.2357,4.2607,4.3514,4.3616,4.3616,4.3616,4.2582,4.1733,4.1311,3.9966,3.8769,3.8062,3.7363,3.682,3.6483,3.5833,3.5499,3.5499,3.5499,3.588,3.6663,3.5661,3.5526,3.6287,3.5281,3.4775,3.4763,3.4342,3.409,3.3934,3.2947,3.2442,3.2298,3.1898,3.1151,3.023,3.0122,2.9508,2.8655,2.8546,2.851,2.851,2.851,2.851,2.851,2.851,2.851,2.851,2.851,2.851,2.851,2.851,2.8271,2.7869,2.7284,2.6876,2.6517,2.5891,2.5755,2.5755,2.5755,2.5714,2.5641,2.5641,2.5189,2.484,2.484,2.4392,2.3574,2.2167,2.1954,2.1909,2.182,2.1785,2.1776,2.183,2.182,2.182,2.182,2.1487,2.1275,2.1358,2.1457,2.1437,2.1193,2.164,2.1736,2.1428,2.1769,2.1906,2.1906,2.2236,2.2397,2.2397,2.2397,2.222,3.8733,3.8286,3.8102,3.9257,3.8623,3.8348,0.0,4.1003,4.0959,4.1638,4.2202,4.2788,4.347,4.3076,4.29,4.3593,4.3245,4.2747,4.2364,4.231,4.231,4.231,4.2618,4.2496,4.1646,4.0709,3.9754,3.8769,3.8384,3.819,3.8145,3.8055,3.8009,3.8009,3.8009,3.7861,3.7629,3.6837,3.6298,3.6044,3.5223,3.4775,3.4775,3.4715,3.4438,3.3934,3.2947,3.2214,3.1801,3.1729,3.1356,3.0735,3.0266,2.9725,2.916,2.8691,2.851,2.851,2.851,2.851,2.851,2.851,2.851,2.851,2.851,2.851,2.851,2.851,2.8471,2.8391,2.8339,2.8259,2.8219,2.8127,2.8127,2.8127,2.8127,2.7857,2.7586,2.7586,2.6734,2.6019,2.6019,2.5442,2.45,2.3125,2.2794,2.2574,2.2353,2.2185,2.2141,2.2309,2.2299,2.2299,2.2299,2.1932,2.1847,2.2215,2.1938,2.1925,2.2246,2.2303,2.2303,2.2255,2.2303,2.2331,2.2331,2.2369,2.2397,2.2397,2.2397,2.2353,3.886,3.9056,3.9358,3.9342,3.9676,4.027,4.1431,4.1872,4.2451,4.3894,4.4081,4.4219,4.4941,4.4872,4.468,4.4559,4.4328,4.3923,4.3289,4.2857,4.2514,4.2133,4.2324,4.233,4.1937,4.1566,4.1043,4.0374,3.9798,3.939,3.9108,3.8653,3.8416,3.8416,3.8416,3.8498,3.8628,3.7716,3.7384,3.751,3.6565,3.6131,3.6131,3.6131,3.5656,3.4774,3.437,3.367,3.2859,3.2859,3.2546,3.2026,3.1422,3.067,2.9775,2.8863,2.851,2.851,2.851,2.851,2.851,2.851,2.851,2.851,2.851,2.851,2.851,2.851,2.851,2.851,2.851,2.851,2.851,2.851,2.851,2.851,2.851,2.8351,2.8243,2.8243,2.7667,2.7208,2.7208,2.6723,2.6027,2.521,2.452,2.4082,2.3996,2.391,2.3867,2.3953,2.3986,2.3986,2.3986,2.3823,2.3589,2.3226,2.3166,2.2983,2.2662,2.275,2.2794,2.2794,2.2794,2.2794,2.2794,2.2794,2.2794,2.2794,2.2794,2.2794,3.927,3.9654,4.0051,3.97,4.0498,4.1415,4.181,4.2457,4.3406,4.4922,4.4954,4.4874,4.5475,4.555,4.5523,4.5262,4.5092,4.478,4.4338,4.3558,4.285,4.2392,4.2201,4.2092,4.2092,4.2092,4.1968,4.162,4.1085,4.0631,4.0315,3.9724,3.942,3.942,3.942,3.9537,3.9794,3.8939,3.8618,3.8873,3.7932,3.7435,3.7435,3.7435,3.6793,3.56,3.5719,3.5029,3.3869,3.3869,3.3624,3.324,3.2498,3.1652,3.0656,2.9603,2.8937,2.851,2.851,2.851,2.851,2.851,2.851,2.851,2.851,2.851,2.851,2.851,2.851,2.851,2.851,2.851,2.851,2.851,2.851,2.851,2.851,2.851,2.851,2.851,2.8283,2.8082,2.8082,2.7777,2.7429,2.7103,2.6483,2.5839,2.5347,2.5294,2.5294,2.5294,2.5294,2.5294,2.5294,2.5294,2.501,2.4382,2.4467,2.4307,2.3637,2.3767,2.3854,2.3854,2.3854,2.3734,2.3474,2.3474,2.3353,2.3091,2.3091,2.3091,4.0259,3.9902,3.9739,4.1083,4.1022,4.0988,4.2347,4.32,4.3671,4.3734,4.4275,4.4733,4.4729,4.4745,4.5007,4.5741,4.527,4.4848,4.4956,4.3838,4.2981,4.2981,4.2474,4.2092,0.0,4.2092,4.2092,4.2092,4.2051,4.2051,4.2009,4.2009,4.2009,4.2009,4.2009,4.1801,4.1326,4.0589,4.0014,3.9543,3.8725,3.8371,3.8371,3.8371,3.7537,3.6101,3.6465,3.5762,3.4264,3.4264,3.4251,3.4186,3.3253,3.2483,3.1893,3.1329,3.0024,2.851,2.851,2.851,2.851,2.851,2.851,2.851,2.851,2.851,2.851,2.851,2.851,2.851,2.851,2.851,2.851,2.851,2.851,2.851,2.851,2.851,2.851,2.851,2.8471,2.8471,2.8471,2.8471,2.8471,2.8431,2.8431,2.7753,2.5986,2.5777,2.5777,2.5777,2.5777,2.5777,2.5777,2.5777,2.5777,2.5735,2.5746,2.5735,2.5694,2.5694,2.5735,2.5735,2.5735,2.5284,2.4456,2.4456,2.3983,2.3091,2.3091,2.3091,4.1171,4.196,4.2891,4.3363,4.3136,4.3056,4.4026,4.3611,4.3169,4.3592,4.388,4.4038,4.4053,4.4812,4.5656,4.6385,4.6693,4.6738,4.6306,4.5885,4.5096,4.376,4.3462,0.0,0.0,0.0,0.0,4.2092,4.2092,4.2092,4.2092,4.2092,4.2092,4.2092,4.2092,4.2009,4.187,4.1283,4.093,4.0773,4.0201,3.994,3.994,3.994,3.9178,3.7909,3.8034,3.7345,3.6096,3.6096,3.6096,3.6001,3.5294,3.4265,3.3038,3.2455,3.1189,2.9678,2.9678,2.9678,2.9678,2.9678,2.9678,2.96,2.9223,2.9118,2.9,2.8618,2.851,2.851,2.851,2.851,2.851,2.851,2.851,2.851,2.851,2.851,2.851,2.851,2.851,2.851,2.851,2.851,2.851,2.851,2.851,2.8259,2.7672,2.7592,2.7592,2.7592,2.7592,2.7592,2.7592,2.7592,2.7336,2.6764,2.6712,2.6453,2.5819,2.5777,2.5777,2.5777,2.5777,2.5663,2.5368,2.5368,2.52,2.4904,2.4904,2.4573,4.2287,4.3204,4.4135,4.4406,4.4181,4.3986,4.4309,4.3331,4.2411,4.2724,4.2685,4.2663,4.2916,4.3911,4.5159,4.6566,4.7008,4.7275,4.7582,4.6983,4.6075,4.4772,4.4458,4.4058,0.0,0.0,0.0,4.2148,4.2092,4.2092,4.2092,4.2092,4.2092,4.2092,4.2092,4.2092,4.2092,4.1787,4.1662,4.1662,4.1354,4.1185,4.1213,4.0943,4.0178,3.9049,3.8958,3.8292,3.7226,3.7226,3.7226,3.7144,3.6634,3.5513,3.4156,3.3759,3.2681,3.1281,3.0545,3.0279,3.0279,3.0279,3.0279,3.0241,2.9832,2.9716,2.9639,2.9263,2.9157,2.9157,2.9157,2.8961,2.8803,2.8803,2.8657,2.851,2.851,2.851,2.851,2.851,2.851,2.851,2.851,2.851,2.851,2.851,2.851,2.851,2.851,2.851,2.851,2.851,2.851,2.851,2.851,2.851,2.8259,2.7725,2.7684,2.7377,2.6782,2.6741,2.6741,2.6741,2.6741,2.6618,2.6287,2.6287,2.6121,2.5777,2.5777,2.5495,4.3597,4.3727,4.3722,4.44,4.4316,4.3956,4.3515,4.2534,4.162,4.1176,4.0833,4.0815,4.1447,4.2238,4.3627,4.6313,4.6281,4.6613,4.8604,4.727,4.6082,4.5935,4.5432,4.478,4.4026,0.0,0.0,4.2342,0.0,4.2175,4.2133,4.2133,4.2133,4.2092,4.2092,4.2092,4.2092,4.2092,4.2092,4.2092,4.2092,4.2092,4.2078,4.141,4.0542,3.9533,3.931,3.8597,3.761,3.761,3.761,3.7572,3.7211,3.6282,3.5147,3.5147,3.4359,3.3044,3.1132,3.0431,3.0431,3.0393,3.0406,3.0393,3.0355,3.0355,3.0355,3.0317,3.0279,3.0279,3.0279,2.9871,2.9457,2.9457,2.9,2.859,2.859,2.859,2.859,2.859,2.859,2.855,2.855,2.851,2.851,2.851,2.851,2.851,2.851,2.851,2.851,2.851,2.851,2.851,2.851,2.851,2.851,2.851,2.851,2.851,2.851,2.851,2.851,2.851,2.851,2.8099,2.7267,2.7267,2.6794,2.5955,2.5955,2.5902,4.4691,4.5941,4.7091,4.6726,4.6579,4.6169,4.4939,4.3308,4.1862,4.1174,4.0962,4.096,4.1119,4.2419,4.4038,4.5776,4.6803,4.7719,4.8746,4.8914,4.8309,4.6752,4.647,4.5935,4.4709,4.4335,0.0,0.0,4.3433,4.3235,4.2809,4.2769,4.2581,4.2092,4.2092,4.2092,4.2092,4.2092,4.2092,4.2092,4.2092,4.2092,4.2078,4.141,4.0702,3.9917,3.9426,3.875,3.8052,3.8052,3.8052,3.8052,3.7938,3.6951,3.563,3.563,3.4639,3.3234,3.2712,3.2354,3.2042,3.1813,3.1716,3.1629,3.1121,3.0959,3.0884,3.0431,3.0279,3.0279,3.0279,3.0177,3.005,3.005,2.9947,2.9832,2.9832,2.9832,2.9832,2.9832,2.9496,2.9184,2.9184,2.8816,2.851,2.851,2.851,2.851,2.851,2.851,2.851,2.851,2.851,2.851,2.851,2.851,2.851,2.851,2.851,2.851,2.851,2.851,2.851,2.851,2.851,2.8391,2.8179,2.8179,2.8059,2.7794,2.7794,2.7458,4.6502,4.7555,4.8363,4.759,4.7396,4.6958,4.5182,4.3613,4.2189,4.1022,4.0808,4.0677,4.0174,4.1817,4.3627,4.4701,4.6313,4.7751,4.8746,4.922,4.892,4.7466,4.7305,4.6785,4.5372,4.5197,4.5055,0.0,4.4197,4.3771,4.3418,4.3379,4.3235,4.2905,4.2905,4.2905,4.2905,4.2905,4.2905,4.2905,4.2622,4.25,4.243,4.1211,4.0452,4.0046,0.0,3.8551,3.8202,3.8202,3.8202,3.8202,3.8202,3.7322,3.6043,3.6043,3.5081,3.377,3.3597,3.3374,3.3129,3.2789,3.2696,3.2574,3.2042,3.1859,3.175,3.127,3.1134,3.1134,3.1134,3.0934,3.0696,3.0696,3.0469,3.0279,3.0279,3.0279,3.0279,3.0279,3.0024,2.9793,2.9793,2.9535,2.9302,2.9302,2.9302,2.9184,2.8922,2.8657,2.851,2.851,2.851,2.851,2.851,2.851,2.851,2.851,2.851,2.851,2.851,2.851,2.851,2.851,2.851,2.851,2.851,2.851,2.851,2.851,2.851,2.8219,4.8319,4.8626,4.8521,4.7625,4.7397,4.684,4.4813,4.3525,4.2398,4.0901,4.0707,4.0515,3.9505,4.1294,4.3153,4.3881,4.552,4.7257,4.8722,4.881,4.8541,4.7972,4.7814,4.7245,4.5934,4.6329,4.6439,4.5855,4.4799,4.412,4.4028,4.4028,4.3989,4.3888,4.3888,4.3888,4.3888,4.3888,4.3888,4.3888,4.3379,4.3101,4.3056,4.1185,4.0324,4.0251,3.8967,3.8412,3.8412,3.8412,3.8412,3.8412,3.8412,3.7602,3.6422,3.6422,3.5572,3.4346,3.3991,3.3874,3.3805,3.3409,3.3304,3.3234,3.2881,3.2775,3.2704,3.2408,3.235,3.235,3.235,3.1909,3.1479,3.1405,3.0996,3.062,3.0558,3.0558,3.0558,3.0558,3.0482,3.0431,3.0431,3.0355,3.0279,3.0279,3.0279,3.0101,2.96,2.9,2.859,2.851,2.851,2.851,2.851,2.851,2.851,2.851,2.851,2.851,2.851,2.851,2.851,2.851,2.851,2.851,2.851,2.851,2.851,2.851,2.851,2.851,4.846,4.8995,4.9153,4.7748,4.7397,4.6793,4.4493,4.313,4.2037,4.1109,4.1452,4.1873,4.1657,4.2943,4.4348,4.5354,4.6009,4.6959,4.8643,4.8415,4.8019,4.7909,4.7356,4.6676,4.5886,4.5918,0.0,0.0,4.5625,4.521,4.4662,4.4624,4.4412,4.3927,4.3888,4.3888,4.3888,4.3888,4.3888,4.3888,4.381,4.3732,4.3687,4.2251,4.1595,4.1505,4.0194,0.0,3.9621,3.9621,3.9621,3.9621,3.9621,3.8556,3.7055,3.7055,3.5918,3.438,3.4312,3.4312,3.4196,3.3514,3.3304,3.3304,3.3234,3.3199,3.3164,3.3143,3.3108,3.3108,3.3108,3.3023,3.2832,3.2511,3.2367,3.2223,3.1936,3.1863,3.1863,3.1863,3.1431,3.1033,3.1033,3.062,3.0279,3.0279,3.0279,3.0241,3.0177,2.9613,2.904,2.855,2.851,2.851,2.851,2.851,2.851,2.851,2.851,2.851,2.851,2.851,2.851,2.851,2.851,2.851,2.851,2.851,2.851,2.851,2.851,2.851,4.9644,5.003,4.9943,4.838,4.7678,4.6783,4.4431,4.3168,4.2335,4.1747,4.2112,4.2465,4.2281,4.336,4.435,4.4506,4.5371,4.6487,4.7861,4.7792,4.7654,4.7899,4.7245,4.655,4.5886,4.5807,4.5807,4.5807,4.5807,4.5646,4.5358,4.5321,4.5194,4.4911,4.4911,4.4911,4.4911,4.4911,4.4911,4.4874,4.4541,4.4373,4.4343,4.3031,4.2264,4.1832,4.0897,4.0238,3.9889,3.9889,3.9889,3.9889,3.9889,3.9173,3.8105,3.771,3.6791,3.5677,3.532,3.5201,3.5121,3.4762,3.4288,3.3839,3.3632,3.3563,3.3514,3.3339,3.3304,3.3304,3.3304,3.3304,3.3234,3.3058,3.3023,3.2952,3.2824,3.2767,3.2767,3.2767,3.2345,3.1992,3.1992,3.1616,3.1283,3.1283,3.1283,3.1172,3.0809,3.0507,3.0101,2.9496,2.9457,2.9457,2.9457,2.9457,2.9457,2.9457,2.9457,2.9457,2.9457,2.9157,2.8961,2.8961,2.8657,2.851,2.851,2.851,2.851,2.851,2.851,2.851,5.0452,5.075,5.0504,4.8907,4.7819,4.6572,4.4395,4.3202,4.2496,4.2358,4.2708,4.302,4.2937,4.3827,4.4447,4.3988,4.5022,4.6254,4.7335,4.7568,4.769,4.7898,4.7358,0.0,4.5871,4.5807,0.0,4.5807,4.5807,4.5807,4.5807,4.5807,4.5807,4.5807,4.5807,4.5807,4.5807,4.5807,4.5807,4.5771,4.5268,4.5014,4.4962,4.387,4.2971,4.2266,4.1623,4.0948,4.0239,4.0239,4.0239,4.0239,4.0239,3.9822,3.9078,3.8528,3.776,3.6932,3.6338,3.6034,3.5913,3.5913,3.535,3.4654,3.4249,3.4113,3.4031,3.3618,3.3563,3.3563,3.3563,3.3563,3.3514,3.3409,3.3339,3.3304,3.3304,3.3304,3.3304,3.3304,3.3058,3.2846,3.2846,3.261,3.2458,3.2458,3.2458,3.2264,3.1713,3.1663,3.1479,3.0983,3.0545,3.0279,3.0279,3.0279,3.0279,3.0279,3.0279,3.0279,3.0279,2.9832,2.96,2.96,2.9118,2.8895,2.8895,2.8895,2.8895,2.8882,2.8736,2.8697,4.9811,5.0329,5.0504,4.8907,4.739,4.5881,4.4273,4.2763,4.1898,4.2594,4.3308,4.4003,4.4714,4.518,4.5551,4.5802,4.6201,4.6881,4.7961,4.8381,4.8436,4.812,0.0,0.0,4.5907,4.5807,4.5807,4.5807,4.5807,4.5807,4.5807,4.5807,4.5807,4.5807,4.5807,4.5807,4.5807,4.5807,4.5807,4.5807,4.5735,4.5735,4.5667,4.4906,4.4181,4.3488,4.2827,4.2133,0.0,4.144,4.144,4.144,4.144,4.0751,3.973,3.9668,3.8504,3.6993,3.6932,3.6459,3.5913,3.5913,3.5849,3.5657,3.5219,3.507,3.4971,3.4433,3.4312,3.4312,3.4312,3.4312,3.4196,3.3839,3.3514,3.3304,3.3304,3.3304,3.3304,3.3304,3.3269,3.3234,3.3234,3.3199,3.3199,3.3199,3.3199,3.3164,3.3129,3.3129,3.3094,3.3044,3.1392,3.0279,3.0279,3.0279,3.0279,3.0279,3.0279,3.0279,3.0279,3.0254,3.0203,3.0203,3.0165,3.0126,3.0126,3.0126,3.0126,3.0139,2.9574,2.9302,4.8731,4.9223,4.9205,4.8117,4.7004,4.5793,4.4255,4.343,4.3079,4.3395,4.4079,4.4852,4.5617,4.567,4.5641,4.5787,4.5658,4.6106,4.7676,4.7625,4.7807,4.8763,4.8331,4.7769,0.0,0.0,4.712,4.6636,4.6566,4.6337,4.5844,4.5807,4.5807,4.5807,4.5807,4.5807,4.5807,4.5807,4.5807,4.5807,4.5807,4.5807,4.5776,4.5049,4.4338,4.3658,4.2979,4.2268,0.0,4.1588,4.1588,4.1588,4.1588,4.1316,4.0819,4.0411,3.9795,3.9056,3.8199,3.7717,3.7406,3.6986,3.6861,3.6693,3.5864,3.564,3.5576,3.535,3.5285,3.5285,3.5285,3.5103,3.4854,3.4673,3.4269,3.3942,3.3942,3.3942,3.3942,3.3942,3.377,3.3597,3.3597,3.3409,3.3304,3.3304,3.3304,3.3304,3.3304,3.3304,3.3304,3.3304,3.2569,3.2015,3.1773,3.1736,3.1676,3.1482,3.1445,3.1445,3.1445,3.1046,3.0846,3.0846,3.0482,3.0279,3.0279,3.0279,3.0431,3.0683,3.0418,3.0443,4.7512,4.8144,4.8302,4.7573,4.6818,4.5863,4.4553,4.4062,4.3957,4.4202,4.4711,4.5326,4.6056,4.5955,4.5778,4.5778,4.5892,4.6426,4.7769,4.7948,4.835,4.935,0.0,4.8677,4.8348,4.8283,4.8076,4.749,4.7457,4.7188,4.655,4.6531,4.6301,4.5807,4.5807,4.5807,4.5807,4.5807,4.5807,4.5807,4.5807,4.5697,4.5476,4.4954,4.4243,4.339,4.29,4.2268,0.0,4.1588,4.1588,4.1588,4.1588,4.1588,4.1525,4.1067,4.0767,4.0467,3.9471,3.8855,3.8428,3.7938,3.7668,3.7345,3.66,3.6274,3.6117,3.5944,3.5913,3.5913,3.5913,3.5672,3.5415,3.5415,3.5136,3.4854,3.4854,3.4854,3.4854,3.4854,3.4505,3.4201,3.4201,3.3908,3.3632,3.3632,3.3632,3.3632,3.3632,3.3632,3.3632,3.3632,3.3632,3.3409,3.2917,3.2881,3.2775,3.2552,3.253,3.253,3.253,3.2078,3.1809,3.1809,3.1392,3.1206,3.1206,3.1206,3.1318,3.1599,3.1452,3.1402,4.6214,4.7337,4.8302,4.7573,4.6818,4.6003,4.5273,4.4466,4.4132,4.4922,4.5098,4.5326,4.6056,4.6214,4.6196,4.6196,4.7477,4.8495,4.8565,5.0067,5.0759,0.0,4.9821,4.9521,4.8398,4.8283,4.8299,4.8299,4.8299,0.0,4.8251,4.8251,4.7506,4.5844,4.5807,4.5807,4.5807,4.5807,4.5807,4.5807,4.5807,4.5428,4.4717,4.4717,4.3974,4.2695,4.2695,4.2268,0.0,4.1588,4.1588,4.1588,4.1588,4.1588,4.1588,4.1573,4.1162,4.0609,4.0577,3.9677,3.8507,3.8507,3.8033,3.751,3.748,3.7089,3.6585,3.6054,3.5913,3.5913,3.5913,3.5913,3.5881,3.5881,3.5881,3.5881,3.5881,3.5881,3.5881,3.5881,3.5512,3.5201,3.5201,3.4721,3.438,3.438,3.438,3.438,3.438,3.438,3.438,3.438,3.438,3.4094,3.3374,3.3304,3.3304,3.3304,3.3304,3.3304,3.3304,3.3269,3.3269,3.3269,3.3269,3.3269,3.3269,3.3269,3.3269,3.3269,3.2662,3.206,4.4641,4.5396,4.5993,4.5203,4.5238,4.5238,4.4466,4.4904,4.5389,4.515,4.5519,4.5916,4.6161,4.6196,4.6372,4.6941,4.7432,4.8117,4.9188,4.9809,0.0,5.0457,5.0561,5.0454,0.0,0.0,4.9809,4.9227,4.9197,4.8938,4.8314,4.8283,4.8044,4.7523,4.7423,4.7423,4.7523,4.6846,4.6566,4.6689,4.5575,4.4938,4.4685,4.3753,4.309,4.2663,4.2157,4.181,4.1588,4.1588,4.1588,4.1588,4.1588,4.1588,4.1588,4.1588,4.1462,4.1209,4.0751,4.0309,3.9787,3.8823,3.8365,3.8096,3.7652,3.7375,3.7225,3.7059,3.6983,3.6983,3.6983,3.6739,3.6445,3.6445,3.618,3.5913,3.5913,3.5913,3.5913,3.5913,3.5785,3.5657,3.5657,3.5544,3.5415,3.5415,3.5415,3.5415,3.5415,3.5415,3.5285,3.4971,3.4953,3.4572,3.3736,3.3632,3.3563,3.3304,3.3304,3.3304,3.3304,3.3304,3.3304,3.3304,3.3304,3.3304,3.3304,3.3304,3.3409,3.3632,3.3722,3.3673,4.3904,4.4273,4.4676,4.4764,4.494,4.5045,4.4834,4.5495,4.6074,4.56,4.5881,4.6196,4.6196,4.6196,4.6354,4.6871,4.7204,4.7819,4.9065,4.9504,5.0004,5.0785,5.0891,0.0,0.0,5.0891,5.0665,5.0131,5.0074,4.9838,4.9304,4.9287,4.9287,4.9287,4.8553,4.8237,4.8283,4.7671,4.7423,4.7556,4.6253,4.548,4.5173,4.4009,4.3347,4.3025,4.2302,4.1997,0.0,4.1704,4.1588,4.1588,4.1588,4.1588,4.1588,4.1588,4.1588,4.1525,4.1114,4.0814,4.0467,3.9582,3.895,3.8428,3.8002,3.7686,3.751,3.751,3.751,3.751,3.751,3.7255,3.6998,3.6998,3.6739,3.6492,3.6492,3.6492,3.6492,3.6492,3.6337,3.6212,3.6212,3.6008,3.5913,3.5913,3.5913,3.5913,3.5913,3.5913,3.5785,3.5512,3.5447,3.5219,3.4643,3.4235,3.3942,3.3736,3.3736,3.3736,3.3736,3.3736,3.3736,3.3736,3.3736,3.3736,3.3736,3.3736,3.3805,3.4025,3.4264,3.4414,0.0,4.3904,4.4237,4.567,4.5547,4.5291,4.5968,4.6161,0.0,4.6196,4.6196,4.6214,4.6267,4.6249,4.6249,4.6425,4.7046,4.7766,4.8548,4.9311,5.0075,0.0,5.0891,0.0,5.0891,5.0891,5.0891,5.0891,5.0891,5.0891,5.0891,5.0891,5.0891,5.0891,4.9334,4.8488,4.8488,4.8425,4.836,4.8293,4.7512,4.6745,4.6006,4.511,4.4351,0.0,4.297,4.2694,4.2632,4.2013,4.1769,4.1769,4.1769,4.1737,4.1737,4.1737,4.1753,4.1737,4.1687,4.1243,4.0721,4.0609,3.9692,3.857,3.8523,3.8033,3.751,3.751,3.751,3.751,3.751,3.751,3.751,3.751,3.751,3.751,3.751,3.751,3.751,3.751,3.7105,3.6754,3.6754,3.6337,3.6008,3.6008,3.6008,3.6008,3.6008,3.6008,3.6008,3.5944,3.5959,3.5944,3.5913,3.5037,3.4501,3.4501,3.4501,3.4501,3.4448,3.4448,3.4448,3.4414,3.4414,3.4414,3.4414,3.4414,3.4414,3.4414,3.4414,3.4414,4.3798,0.0,4.3992,4.4343,4.4764,4.515,0.0,4.5775,4.6196,4.6196,4.6196,4.6389,4.7011,4.66,4.6793,4.8591,4.8521,4.8731,5.0136,5.0487,5.068,5.0873,5.0891,5.0891,5.0891,5.0891,5.0891,5.0891,5.0891,5.0891,5.0891,5.0891,5.0891,5.0891,5.0492,5.0307,5.0307,4.9534,4.8882,4.8357,4.6999,4.5975,4.5226,4.4445,4.4039,4.3826,4.3668,4.361,4.358,4.3416,4.3357,4.3357,4.327,4.321,4.318,4.3075,4.3061,4.297,4.2522,4.2268,4.1948,4.0912,3.9993,3.9171,3.8665,3.8033,3.751,3.751,3.751,3.751,3.751,3.751,3.751,3.751,3.751,3.751,3.751,3.751,3.751,3.751,3.7391,3.7315,3.7315,3.7225,3.7119,3.7119,3.7119,3.7119,3.7119,3.7119,3.6968,3.6554,3.6523,3.6352,3.5944,3.5689,3.5544,3.5544,3.5544,3.5382,3.5019,3.5019,3.482,3.4414,3.4414,3.4414,3.4414,3.4414,3.4414,3.4414,3.4414,3.4414,4.4483,4.4107,4.3658,4.4694,4.5045,4.5185,4.5536,4.5898,4.6196,4.6196,4.6196,4.6337,4.6783,4.6818,4.7169,4.8433,4.8591,4.8977,5.0171,5.0662,5.0891,5.0891,5.0891,5.0891,0.0,5.0891,5.0891,5.0891,5.0891,5.0891,5.0891,5.0891,5.0891,5.0891,5.0891,5.0891,5.0891,4.9987,4.9346,4.8997,4.7423,4.649,4.6052,4.5227,4.4841,4.4841,4.4512,4.4345,4.4345,4.4044,4.3913,4.3884,4.3814,4.3785,4.3785,4.3714,4.3626,4.3555,4.3213,4.3061,4.289,4.2163,4.1439,4.0762,4.0075,3.9182,3.8243,3.7662,3.751,3.751,3.751,3.751,3.751,3.751,3.751,3.751,3.751,3.751,3.751,3.751,3.751,3.751,3.751,3.751,3.751,3.751,3.751,3.751,3.751,3.751,3.7391,3.7105,3.7075,3.6968,3.6662,3.6631,3.643,3.5944,3.5913,3.58,3.5544,3.5512,3.5382,3.5103,3.5103,3.5103,3.5103,3.4887,3.4754,3.4754,3.4501,3.4414,4.5213,4.4462,4.3756,4.5809,4.5868,4.5551,4.6178,4.6319,4.6319,4.627,4.627,4.6281,4.6354,4.6941,4.7467,4.7696,4.8433,4.917,4.9811,5.0452,5.0891,5.0891,5.0891,0.0,5.0891,5.0891,5.0891,5.0891,5.0891,5.0891,5.0891,5.0891,5.0891,5.0891,5.0891,5.0838,5.0715,5.0057,4.9583,4.9337,4.8012,4.7327,4.7187,4.6395,4.6023,4.5998,0.0,0.0,4.5054,4.4484,4.4255,4.4255,4.4226,4.4226,4.4215,4.4215,4.4102,4.4004,4.3918,4.3744,4.3555,4.3555,4.3169,4.2568,4.188,4.0834,3.9625,3.8443,3.78,3.751,3.751,3.751,3.751,3.751,3.751,3.751,3.751,3.751,3.751,3.751,3.751,3.751,3.751,3.751,3.751,3.751,3.751,3.751,3.751,3.751,3.751,3.751,3.751,3.751,3.751,3.751,3.7119,3.6212,3.6134,3.6117,3.6023,3.5944,3.5913,3.5913,3.5913,3.5913,3.5913,3.5512,3.5299,3.5299,3.4854,3.4635,4.4596,4.5062,4.5588,4.6639,4.6776,4.6723,4.6847,4.6865,4.6819,4.659,4.6542,4.6682,4.7131,4.7309,4.7819,4.9118,5.0013,5.0575,5.0697,0.0,5.0891,5.0891,0.0,5.0891,5.0891,5.0891,5.0891,5.0891,5.0891,5.0891,5.0891,5.0891,5.0891,5.0891,5.0891,5.0557,4.9872,4.9776,4.903,4.7748,4.7503,4.7046,4.6372,4.6224,4.6172,4.6147,0.0,4.6005,4.598,4.5887,4.5844,4.5837,4.5717,4.5684,4.5641,4.5555,4.5503,4.5407,4.4892,4.4333,4.3826,4.3826,4.3673,4.3402,4.2729,4.2282,4.1853,4.104,3.9221,3.751,3.751,3.751,3.751,3.751,3.751,3.751,3.751,3.751,3.751,3.751,3.751,3.751,3.751,3.751,3.751,3.751,3.751,3.751,3.751,3.751,3.751,3.751,3.751,3.751,3.751,3.751,3.7435,3.724,3.724,3.7059,3.6585,3.6149,3.5913,3.5913,3.5913,3.5913,3.5913,3.5817,3.5785,3.5785,3.5689,3.5657,4.4142,4.4913,4.5834,4.7072,4.7846,4.8181,4.7752,4.7984,4.8157,4.7595,4.7459,4.7542,4.7795,4.8179,4.8884,5.0329,5.0752,5.0891,5.0891,5.0891,5.0891,0.0,0.0,5.0891,5.0891,5.0891,5.0891,5.0891,5.0891,5.0891,5.0891,5.0891,5.0697,5.0285,5.0241,4.9662,4.8451,4.8451,4.8099,4.738,4.6958,4.6547,4.6196,4.6196,4.6196,4.6196,0.0,4.6196,4.6196,4.6196,4.6196,4.6196,4.6122,4.6097,4.6097,4.5947,4.5897,4.5871,4.5503,4.5178,4.493,4.493,4.4875,4.4715,4.4084,4.3567,4.3052,4.2412,4.0946,3.9605,3.9605,3.9605,3.9507,3.9105,3.875,3.8421,3.8024,3.7698,3.751,3.751,3.751,3.751,3.751,3.751,3.751,3.751,3.751,3.751,3.751,3.751,3.751,3.751,3.751,3.751,3.751,3.751,3.751,3.751,3.751,3.7391,3.7135,3.6892,3.6754,3.6754,3.6754,3.6754,3.6754,3.6476,3.6321,3.6321,3.6054,3.5913,4.3824,4.4693,4.5655,4.713,4.8243,4.8987,4.8957,4.9095,4.9226,4.9003,4.8755,4.8565,4.8667,4.9313,5.0187,5.1397,5.1401,5.1271,5.1271,5.1158,5.107,5.1079,5.0981,5.0891,5.0891,5.0891,5.0891,5.0891,5.0891,5.0803,5.061,5.061,5.0241,4.9434,4.9416,4.8766,4.7397,4.7397,4.7309,4.7116,4.6477,4.6196,4.6196,4.6196,4.6196,4.6196,4.6196,4.6196,4.6196,4.6196,4.6196,4.6196,4.6196,4.6196,4.6196,4.6073,4.6048,4.6023,4.5922,4.5897,4.5897,4.5897,4.5871,4.577,4.5302,4.474,4.4163,4.3719,4.3012,4.2288,4.1661,4.1505,4.1344,4.074,4.0259,3.9756,3.9133,3.8698,3.8363,3.819,3.8158,3.8094,3.7934,3.7772,3.7685,3.7685,3.7583,3.751,3.751,3.751,3.751,3.751,3.751,3.751,3.751,3.751,3.751,3.751,3.751,3.751,3.751,3.751,3.751,3.751,3.751,3.751,3.751,3.7105,3.6877,3.6877,3.6476,3.6274,4.3679,4.4693,4.557,4.6683,4.7397,4.8377,5.057,4.9973,4.9361,5.0856,5.0317,4.9722,5.0077,5.0797,5.157,5.2304,5.2404,5.2363,5.2363,0.0,5.1558,5.1629,5.1201,5.0891,5.0891,5.0891,5.0891,5.0891,5.0891,5.0557,4.9846,4.9794,4.9416,4.86,4.8583,4.8205,4.7397,4.7397,4.7029,4.6284,4.6232,4.6196,4.6196,4.6196,4.6196,4.6196,4.6196,4.6196,4.6196,4.6196,4.6196,4.6196,4.6196,4.6196,4.6196,4.6196,4.6189,4.6172,4.6172,4.6172,4.6172,4.6172,4.6073,4.5972,4.5947,4.5811,4.5657,4.5588,4.5528,4.4924,4.2416,4.1758,4.173,4.156,4.1461,4.1389,4.1233,4.1149,4.0922,4.0233,4.01,3.9886,3.9214,3.8601,3.8238,3.8238,3.7815,3.751,3.751,3.751,3.751,3.751,3.751,3.751,3.751,3.751,3.751,3.751,3.751,3.751,3.751,3.751,3.751,3.751,3.751,3.751,3.751,3.745,3.745,3.745,3.7405,3.7375,4.295,4.4417,4.5902,4.6287,4.772,4.9368,5.0798,5.1422,5.1736,5.1871,5.199,5.193,5.1544,5.1995,5.2511,5.2758,5.2663,5.2557,5.2557,5.2372,5.2216,5.2268,5.2042,5.1904,5.1904,5.1813,5.1764,5.1764,5.1037,5.0444,5.0143,4.937,4.8608,4.7836,4.7819,4.745,4.6653,4.6635,4.6495,4.6196,4.6196,4.6196,4.6196,4.6196,4.6196,4.6196,4.6196,4.6196,4.6196,4.6196,4.6196,4.6196,4.6196,4.6196,4.6196,4.6196,4.6196,4.6196,4.6196,4.6196,4.6196,4.6196,4.6172,4.6122,4.6122,4.6097,4.6048,4.6048,4.6048,4.5783,4.4587,4.4276,4.4156,4.3666,4.3189,4.2689,4.2196,4.1715,4.1327,4.1034,4.0619,4.021,3.9928,3.9325,3.8865,3.8865,3.8689,3.8551,3.8551,3.8551,3.8551,3.8551,3.8214,3.7857,3.7539,3.751,3.751,3.751,3.751,3.751,3.751,3.751,3.751,3.751,3.751,3.751,3.751,3.751,3.751,3.751,3.751,3.751,4.2883,4.4471,4.6295,4.6882,4.8509,5.0231,5.1417,5.2194,5.2725,5.3046,5.3458,5.3571,5.2862,5.3119,5.345,5.341,5.3251,5.315,5.315,5.2965,5.2862,5.2865,5.2685,5.2526,5.2526,5.2223,5.2014,5.2014,5.0971,5.0221,4.9975,4.9115,4.8293,4.7512,4.7471,4.7127,4.6423,4.6405,4.6227,4.5846,4.5846,4.5968,4.6196,4.6196,4.6196,4.6196,4.6196,4.6196,4.6196,4.6196,4.6196,4.6196,4.6196,4.6196,4.6196,4.6196,4.6196,4.6196,4.6196,4.6196,4.6196,4.6196,4.6196,4.6196,4.6196,4.6196,4.6196,4.6196,4.6196,4.6147,4.5972,4.5922,4.58,4.5234,4.4733,4.4224,4.3657,4.3144,4.2719,4.2483,4.2044,4.1529,4.1047,4.0395,3.9862,3.9601,3.9411,3.9279,3.9269,3.9269,3.9259,3.9206,3.8821,3.8451,3.8075,3.8046,3.796,3.7756,3.7756,3.7685,3.751,3.751,3.751,3.751,3.751,3.751,3.751,3.751,3.751,3.751,3.751,3.751,4.3712,4.4929,4.6677,4.86,4.9657,5.0734,5.2726,5.2082,5.1804,5.4539,5.4724,5.4304,5.3963,5.418,5.4375,5.4307,5.4289,5.4289,5.4289,5.3776,5.341,5.3491,5.297,5.259,5.259,5.1876,5.1402,5.1402,5.0648,4.9843,4.9047,4.8922,4.8514,4.772,4.7617,4.736,4.689,4.6908,4.6305,4.5122,4.5122,4.5484,4.6196,4.6196,4.6196,4.6196,4.6196,4.6196,4.6196,4.6196,4.6196,4.6196,4.6196,4.6196,4.6196,4.6196,4.6196,4.6196,4.6196,4.6196,4.6196,4.6196,4.6196,4.6196,4.6196,4.6196,4.6196,4.6196,4.6196,4.6196,4.6196,4.6196,4.6172,4.6023,4.5998,4.5972,4.5821,4.5795,4.5569,4.4854,4.4697,4.4209,4.2688,4.1916,4.1287,4.0519,3.9935,3.9508,3.9437,3.9411,3.9358,3.9216,3.9206,3.9206,3.9206,3.9206,3.8947,3.8351,3.8322,3.8055,3.7539,3.751,3.751,3.751,3.751,3.751,3.751,3.751,3.751,3.751,3.751,3.751,4.2828,4.458,4.6891,4.7473,4.9511,5.1701,5.2926,5.3295,5.3771,5.517,5.4884,5.4356,5.4268,5.4339,5.4373,5.4375,5.3906,5.353,5.353,5.2849,5.2351,5.2369,5.2174,5.2029,5.2029,5.1732,5.1547,5.1547,5.0488,4.9745,4.9505,4.8623,4.7747,4.6946,4.7454,4.7389,4.6636,4.7181,4.6985,4.6011,4.6011,4.5824,4.5431,4.5431,4.5705,4.6196,4.6196,4.6196,4.6196,4.6196,4.6196,4.6196,4.6196,4.6196,4.6196,4.6196,4.5863,4.5519,4.6021,4.5846,4.5519,4.6021,4.6196,4.6196,4.6196,4.6196,4.6196,4.6196,4.6196,4.6196,4.6196,4.6196,4.6196,4.6147,4.6073,4.5998,4.5947,4.5871,4.5743,4.5525,4.5037,4.454,4.4105,4.3426,4.2705,4.1919,4.2127,4.2167,4.1601,4.0971,4.0427,3.9935,3.9825,3.9594,3.9216,3.9206,3.9109,3.8947,3.8947,3.8495,3.7539,3.751,3.751,3.751,3.751,3.751,3.751,3.751,3.751,3.751,3.751,3.751,4.4163,4.6186,4.8551,4.887,5.0691,5.2644,5.347,5.4052,5.454,5.5011,5.4747,5.4409,5.4409,5.4409,5.4296,5.3977,5.3524,5.3092,5.2719,5.2231,5.1912,5.1912,5.1863,5.1849,5.1849,5.148,5.1241,5.1241,5.0235,4.963,4.963,4.8826,4.8163,4.7684,4.8108,4.7996,4.729,4.7454,4.7027,4.5967,4.5639,4.5207,4.468,4.5325,4.5921,4.6453,4.6277,4.6196,4.6196,4.6196,4.6196,4.6196,4.6196,4.6196,4.6196,4.6196,4.5916,4.5607,4.6056,4.5705,4.522,4.5951,4.6003,4.581,4.6109,4.6196,4.6196,4.6196,4.6196,4.6196,4.6196,4.6196,4.6196,4.6196,4.6147,4.6073,4.6073,4.6023,4.5947,4.5947,4.5588,4.5211,4.4914,4.4478,4.3919,4.3133,4.3347,4.3463,4.2968,4.2438,4.1832,4.114,4.1283,4.1178,4.0544,4.046,4.0383,4.0143,4.0065,3.9613,3.8748,3.8346,3.8189,3.8189,3.8189,3.8075,3.7815,3.7815,3.7714,3.751,3.751,3.751,4.6486,4.8589,5.0767,5.1593,5.255,5.3506,5.4221,5.4409,5.4409,5.4409,5.4409,5.4409,5.4409,5.4334,5.4052,5.3318,5.3074,5.2698,5.1893,5.1743,5.1686,5.1686,5.1686,5.1686,5.1686,5.1011,5.0595,5.0595,4.9903,4.9509,4.9509,4.9374,4.9286,4.9211,4.9206,4.8971,4.8475,4.781,4.6801,4.542,4.469,4.4305,4.4283,4.5673,4.6545,4.6954,4.6525,4.6326,4.6326,4.6326,4.6326,4.6326,4.6277,4.627,4.627,4.6221,4.6161,4.6109,4.6179,4.5705,4.522,4.5951,4.574,4.5326,4.5916,4.6144,4.6196,4.6126,4.6144,4.6196,4.6196,4.6196,4.6196,4.6196,4.6196,4.6196,4.6196,4.6196,4.6196,4.6196,4.6196,4.5986,4.5326,4.5203,4.4957,4.422,4.3898,4.3733,4.3827,4.3696,4.3328,4.2607,4.3165,4.3286,4.2566,4.2514,4.2295,4.1728,4.1579,4.1273,4.0792,3.9881,3.9388,3.9388,3.9388,3.9128,3.8585,3.8585,3.8302,3.7766,3.783,3.7782,4.4383,4.6861,4.994,5.0748,5.255,5.4183,5.4352,5.4409,5.4409,5.4409,5.4409,5.4409,5.4409,5.3883,5.3412,5.3224,5.2097,5.1177,5.0973,5.041,5.0016,5.0016,5.0016,5.0016,5.0016,4.9865,4.9753,4.9753,4.9602,4.9509,4.9509,4.9474,4.914,4.8461,4.9087,4.9027,4.8191,4.8639,4.8052,4.6401,4.6215,4.6125,4.611,4.5659,4.6189,4.7442,4.7356,4.7291,4.7291,4.7291,4.7291,4.727,4.6886,4.6765,4.6701,4.6326,4.5828,4.5431,4.6003,4.5705,4.522,4.5951,4.6091,4.5881,4.5466,4.574,4.6074,4.5519,4.574,4.6196,4.6196,4.6196,4.6196,4.6196,4.6196,4.6196,4.6196,4.6196,4.6196,4.6196,4.6196,4.6144,4.5986,4.5951,4.5898,4.5723,4.4652,4.4085,4.4716,4.4148,4.3598,4.3441,4.3533,4.3537,4.3363,4.3345,4.3297,4.3142,4.3117,4.3044,4.2946,4.1627,4.0918,4.0918,4.0918,4.0862,4.0734,4.0734,4.0386,3.9719,4.0306,3.9933,4.5151,4.7433,5.0044,5.1622,5.3217,5.4409,5.4409,5.4409,5.4409,5.4409,5.4409,5.4409,5.4409,5.3733,5.3074,5.2644,5.1534,5.0576,5.0166,4.9753,4.9509,4.9509,4.9509,4.9509,4.9509,4.9509,4.9509,4.9509,4.9509,4.9509,4.9509,4.9509,4.9283,4.8833,4.9265,4.9271,4.8774,4.8771,4.8294,4.7373,4.6981,4.6968,4.7314,4.6911,4.7195,4.7961,4.7715,4.7611,4.7611,4.7611,4.7611,4.7569,4.7335,4.7226,4.7204,4.6976,4.6636,4.635,4.6743,4.6386,4.5851,4.6613,4.6493,4.6,4.5965,4.6081,4.6126,4.5723,4.5898,4.6196,4.6196,4.6196,4.6196,4.6196,4.6196,4.6196,4.6196,4.6196,4.6196,4.6196,4.6196,4.6196,4.6196,4.6196,4.6196,4.6196,4.5512,4.5168,4.5565,4.5201,4.4749,4.4423,4.4655,4.4694,4.4351,4.4334,4.4334,4.4334,4.4261,4.422,4.422,4.3752,4.3161,4.2473,4.2456,4.2325,4.2025,4.2025,4.1661,4.1021,4.1416,4.0977,4.595,4.8179,5.0482,5.2847,5.3952,5.4491,5.4491,5.4458,5.4441,5.4441,5.4407,5.4409,5.4409,5.362,5.2754,5.2024,5.1104,5.026,4.9584,4.9509,4.9509,4.9509,4.9509,4.9509,4.9509,4.9509,4.9509,4.9509,4.9509,4.9509,4.9509,4.9509,4.9509,4.9509,4.9509,4.9509,4.9509,4.8776,4.8314,4.8103,4.7447,4.7439,4.8031,4.8247,4.8347,4.831,4.7876,4.7678,4.7678,4.7678,4.7731,4.7838,4.7777,4.7736,4.7695,4.7632,4.7611,4.7611,4.7611,4.7177,4.6724,4.7394,4.6924,4.6207,4.6686,4.6659,4.6411,4.627,4.6323,4.6429,4.6429,4.6429,4.6429,4.6429,4.6374,4.6319,4.6221,4.6196,4.6196,4.6196,4.6196,4.6196,4.6196,4.6196,4.6196,4.6196,4.6196,4.6196,4.6196,4.6196,4.5968,4.5361,4.5828,4.5951,4.5343,4.5291,4.5291,4.5291,4.5194,4.5121,4.5121,4.5591,4.5304,4.4073,4.399,4.3734,4.3237,4.3237,4.2902,4.2284,4.2419,4.1977,4.2976,4.6405,5.0491,5.2963,5.4197,5.4841,5.4841,5.4714,5.4565,5.4565,5.4489,5.4409,5.4409,5.3132,5.2043,5.1931,5.0635,4.9621,4.9527,4.9509,4.9509,4.9509,4.9509,4.9509,4.9509,4.9509,4.9509,4.9509,4.9509,4.9509,4.9509,4.9509,4.9509,4.9509,4.9509,4.9509,4.9509,4.9377,4.8945,4.8179,4.8085,4.8085,4.8164,4.8156,4.81,4.8054,4.7969,4.7953,4.7953,4.7953,4.8311,4.8857,4.844,4.8251,4.8152,4.7754,4.7611,4.7611,4.7611,4.7539,4.7467,4.7554,4.7497,4.7256,4.6638,4.6904,4.7277,4.6573,4.688,4.7421,4.7421,4.7421,4.7421,4.7421,4.7093,4.6695,4.6295,4.6196,4.6196,4.6196,4.6196,4.6196,4.6196,4.6196,4.6196,4.6196,4.6196,4.6196,4.6196,4.6196,4.6161,4.6056,4.6144,4.6161,4.6056,4.6056,4.6056,4.6056,4.6032,4.6032,4.6032,4.6094,4.6059,4.5849,4.5626,4.5474,4.538,4.538,4.5033,4.4324,4.4974,4.4524,4.4384,4.7176,5.0111,5.2619,5.3849,5.458,5.5019,5.4998,5.4738,5.4249,5.3974,5.3811,5.3748,5.2738,5.1762,5.1292,5.026,4.9509,4.9509,4.9509,4.9509,4.9509,4.9509,4.9509,4.9509,4.9509,4.9509,4.9509,4.9509,4.9509,4.9509,4.9509,4.9283,4.8795,4.8776,4.8776,4.8776,4.8776,4.8814,4.8927,4.842,4.8457,4.8908,4.8374,4.8125,4.8028,4.7495,4.7273,4.7311,4.7815,4.8194,4.8499,4.8739,4.8837,4.8785,4.8568,4.8495,4.8495,4.8495,4.8458,4.8439,4.8439,4.8231,4.7922,4.7557,4.7525,4.7539,4.7177,4.734,4.7611,4.7611,4.7611,4.7611,4.7611,4.7442,4.7248,4.7044,4.6572,4.6196,4.6196,4.6196,4.6196,4.6196,4.6196,4.6196,4.6196,4.6196,4.6196,4.6196,4.6196,4.6196,4.6196,4.6196,4.6196,4.6196,4.6196,4.6196,4.6196,4.6196,4.6196,4.6196,4.6196,4.6196,4.6196,4.6073,4.6023,4.6023,4.6023,4.5848,4.5558,4.5865,4.5404,4.5101,4.7082,4.8904,5.1453,5.2834,5.3846,5.4855,5.4824,5.4441,5.4021,5.3558,5.3152,5.2825,5.2131,5.1405,5.0801,5.0016,4.9509,4.9509,4.9509,4.9509,4.9509,4.9509,4.9509,4.9509,4.9509,4.9509,4.9509,4.9509,4.9509,4.9509,4.9509,4.9096,4.8232,4.8194,4.8101,4.7894,4.8101,4.8532,4.9152,4.8514,4.8532,4.9133,4.8269,4.7883,4.7769,4.6846,4.6569,4.6831,4.7486,4.7975,4.8389,4.8987,4.923,4.9214,4.9214,4.9214,4.9214,4.9214,4.9164,4.9135,4.9135,4.8839,4.8532,4.8532,4.8269,4.7979,4.7979,4.7959,4.7939,4.7939,4.7939,4.7939,4.7939,4.7838,4.7754,4.7632,4.7066,4.6525,4.6398,4.6374,4.6326,4.6221,4.6196,4.6196,4.6196,4.6196,4.6196,4.6196,4.6196,4.6196,4.6196,4.6196,4.6196,4.6196,4.6196,4.6196,4.6196,4.6196,4.6196,4.6196,4.6196,4.6196,4.6196,4.6196,4.6196,4.6196,4.6196,4.6196,4.6196,4.6196,4.5832,4.2822,4.4511,4.64,4.8945,5.0853,5.255,5.4179,5.3801,5.3324,5.4103,5.3494,5.2587,5.1737,5.1139,5.0764,5.0707,5.0016,4.9509,4.9509,4.9509,4.9509,4.9509,4.9509,4.9509,4.9509,4.9509,4.9509,4.9509,4.9509,4.9509,4.9509,4.9509,4.9096,4.8232,4.8194,4.7838,4.7068,4.7819,4.8213,4.8269,4.8213,4.8213,4.8232,4.7425,4.7053,4.7016,4.6134,4.6227,4.6997,4.7034,4.7909,4.9252,4.9289,4.926,4.9214,4.9214,4.9214,4.9214,4.9214,4.9214,4.9179,4.9179,4.9181,4.9146,4.9146,4.9081,4.9015,4.9015,4.8927,4.8838,4.8838,4.8838,4.8838,4.8838,4.855,4.8152,4.7695,4.7569,4.7399,4.6954,4.6863,4.6719,4.6295,4.6196,4.6196,4.6196,4.6196,4.6196,4.6196,4.6196,4.6196,4.6196,4.6196,4.6196,4.6196,4.6196,4.6196,4.6196,4.6196,4.6196,4.6196,4.6196,4.6196,4.6196,4.6196,4.6196,4.6196,4.6196,4.6196,4.6196,4.6196,4.6179,4.289,4.3794,4.4995,4.8115,4.9788,5.1087,5.2773,5.3251,5.3256,5.2994,5.2531,5.189,5.1017,5.1056,5.1008,5.0402,5.0439,5.0496,5.041,5.0773,5.1048,5.1048,5.0579,5.026,5.026,4.9809,4.9509,4.9509,4.9509,4.9509,4.9509,4.9509,4.9096,4.8232,4.8194,4.8063,4.7763,4.8063,4.8476,4.902,4.8457,4.8495,4.9002,4.8157,4.7763,4.7725,4.6899,4.6711,4.7049,4.7556,4.8104,4.8637,4.9199,4.9409,4.9377,4.9377,4.9377,4.9377,4.9377,4.9327,4.926,4.926,4.9228,4.9214,4.9214,4.9181,4.9148,4.9148,4.9131,4.9096,4.9096,4.9096,4.9079,4.9049,4.8928,4.8732,4.8495,4.7999,4.7548,4.7378,4.7356,4.7291,4.7115,4.684,4.6649,4.6649,4.6398,4.6196,4.6196,4.6196,4.6196,4.6196,4.6196,4.6196,4.6196,4.6196,4.6196,4.6196,4.6196,4.6196,4.6196,4.6196,4.6196,4.6196,4.6196,4.6196,4.6196,4.6196,4.6196,4.6196,4.6196,4.6196,4.2311,4.285,4.3802,4.6948,4.7958,4.8935,5.1766,5.2117,5.1927,5.2212,5.1908,5.1415,5.0836,5.1092,5.1125,5.0302,5.0784,5.123,5.1097,5.1658,5.2046,5.2008,5.1456,5.1086,5.1086,5.0372,4.9903,4.9903,4.9659,0.0,4.9509,4.9509,4.9096,4.8232,4.7932,4.78,4.78,4.8063,4.8495,4.9058,4.8476,4.8495,4.9039,4.8457,4.8194,4.8194,4.7932,4.7669,4.7443,4.7969,4.8363,4.8683,4.9265,4.9509,4.9509,4.9509,4.9509,4.9509,4.9509,4.944,4.9374,4.9374,4.9327,4.9295,4.9295,4.9279,4.9228,4.9228,4.9211,4.9214,4.9214,4.9214,4.9197,4.915,4.9133,4.9116,4.9012,4.8477,4.8017,4.7856,4.7836,4.7795,4.7632,4.7335,4.7071,4.6931,4.6625,4.6374,4.6221,4.6196,4.6196,4.6196,4.6196,4.6196,4.6196,4.6196,4.6196,4.6196,4.6196,4.6196,4.6196,4.6196,4.6196,4.6196,4.6196,4.6196,4.6196,4.6196,4.6196,4.6196,4.6196,4.6196,0.0,0.0,0.0,4.5264,4.5317,4.6074,5.1066,5.0289,4.924,5.1804,5.1688,5.1144,5.1183,5.1202,5.1016,5.046,5.1088,5.1598,5.1476,5.203,5.2437,5.23,5.2077,5.1931,5.1931,5.1198,5.0745,5.0745,4.9978,4.9546,4.9546,4.9509,4.9114,4.8269,4.7481,4.7068,4.7068,4.7838,4.8232,4.8232,4.8232,4.8232,4.8232,4.8232,4.8232,4.8288,4.9133,4.902,4.8232,4.8232,4.8739,4.9509,4.9509,4.9509,4.9509,4.9509,4.9509,4.9509,4.9509,4.9509,4.9509,4.9509,4.9509,4.9509,4.9509,4.9409,4.9308,4.9308,4.926,4.9214,4.9214,4.9214,4.9214,4.9195,4.9195,4.9195,4.9214,4.9046,4.8785,4.8401,4.8325,4.8172,4.7715,4.7632,4.7464,4.7022,4.6931,4.6765,4.6319,4.6221,4.6221,4.6221,4.6196,4.6196,4.6196,4.6196,4.6196,4.6196,4.6196,4.6196,4.6196,4.6196,4.6196,4.6196,4.6196,4.6196,4.6196,4.6196,4.6196,4.6196,4.6196,4.6196,4.1063,0.0,0.0,0.0,0.0,0.0,4.7162,4.7226,4.7459,5.0062,4.9901,4.9707,5.0969,5.1202,5.1347,5.1758,5.2357,5.2704,5.259,5.3581,5.4335,5.4286,5.3524,5.2988,5.2988,5.2143,5.1574,0.0,5.0823,5.0372,5.0372,4.9809,4.9396,4.9152,4.8927,4.8814,4.8814,4.9039,4.9133,4.9133,4.9133,4.9133,4.9133,4.9133,4.9133,4.9152,4.9396,4.9358,4.9133,4.9133,4.9283,4.9509,4.9509,4.9509,4.9509,4.9509,4.9509,4.9509,4.9509,4.9509,4.9509,4.9509,4.9509,4.9509,4.9509,4.9474,4.944,4.944,4.9424,4.9427,4.9427,4.9427,4.9393,4.9292,4.9276,4.926,4.9195,4.9164,4.9062,4.891,4.8894,4.8822,4.8587,4.8288,4.8055,4.7935,4.7611,4.7356,4.7226,4.6908,4.6719,4.6719,4.6398,4.6196,4.6196,4.6196,4.6196,4.6196,4.6196,4.6196,4.6196,4.6196,4.6196,4.6196,4.6196,4.6196,4.6196,4.6196,4.6196,4.6196,4.6196,4.6196,4.2112,4.2364,4.2908,4.3612,0.0,0.0,4.6443,4.6249,4.623,4.8819,4.924,4.9454,5.0464,5.095,5.1358,5.1824,5.2743,5.3494,5.3714,5.4692,5.5381,5.5317,5.4594,5.4101,5.4101,5.3141,5.2532,5.2532,5.1396,5.0557,5.0222,4.9753,4.9509,4.9509,4.9509,4.9509,4.9509,4.9509,4.9509,4.9509,4.9509,4.9509,4.9509,4.9509,4.9509,4.9509,4.9509,4.9509,4.9509,4.9509,4.9509,4.9509,4.9509,4.9509,4.9509,4.9509,4.9509,4.9509,4.9509,4.9509,4.9509,4.9509,4.9509,4.9509,4.9509,4.9509,4.9509,4.9509,4.9509,4.9509,4.9509,4.9509,4.9474,4.9409,4.9374,4.9358,4.9327,4.9329,4.9297,4.9166,4.9133,4.9133,4.9029,4.882,4.8605,4.8421,4.8117,4.786,4.7677,4.7381,4.7182,4.7182,4.6771,4.6501,4.6501,4.6301,4.6196,4.6196,4.6196,4.6196,4.6196,4.6196,4.6196,4.6196,4.6196,4.6196,4.6196,4.6196,4.6196,4.6196,4.6196,4.6196,4.3525,4.3563,4.3976,4.5375,4.402,0.0,4.7162,4.6288,4.5356,4.7803,4.8935,4.9537,4.9712,5.0464,5.1066,5.1066,5.2465,5.3812,5.4568,5.5343,5.5778,5.5651,5.5353,5.516,5.5115,5.4202,5.3584,5.3572,5.1889,5.0516,4.9678,4.9546,4.9509,4.9509,4.9509,4.9509,4.9509,4.9509,4.9509,4.9509,4.9509,4.9509,4.9509,4.9509,4.9509,4.9509,4.9509,4.9509,4.9509,4.9509,4.9509,4.9509,4.9509,4.9509,4.9509,4.9509,4.9509,4.9509,4.9509,4.9509,4.9509,4.9509,4.9509,4.9509,4.9509,4.9509,4.9509,4.9509,4.9509,4.9509,4.9509,4.9509,4.9509,4.9509,4.9509,4.9509,4.9509,4.9509,4.9443,4.9262,4.923,4.9214,4.9195,4.9214,4.9061,4.8639,4.8532,4.8346,4.7922,4.7759,4.7695,4.7674,4.7248,4.6976,4.6976,4.6596,4.6326,4.6277,4.6295,4.6246,4.6196,4.6196,4.6196,4.6196,4.6196,4.6196,4.6196,4.6196,4.6196,4.6196,4.6196,4.6196,4.3685,4.4015,4.4462,4.4074,0.0,0.0,4.4307,4.4112,4.4287,4.6133,4.6643,4.7187,4.858,4.9571,5.0159,5.0159,5.1552,5.2944,5.3799,5.5098,5.5941,5.5935,5.5671,5.5443,5.5287,5.4955,5.4719,5.4625,5.2923,5.1487,5.0519,4.9847,4.9509,4.9509,4.9509,4.9509,4.9509,4.9509,4.9509,4.9509,4.9509,4.9509,4.9509,4.9509,4.9509,4.9509,4.9509,4.9509,4.9509,4.9509,4.9509,4.9509,4.9509,4.9509,4.9509,4.9509,4.9509,4.9509,4.9509,4.9509,4.9509,4.9509,4.9509,4.9509,4.9509,4.9509,4.9509,4.9509,4.9509,4.9509,4.9509,4.9509,4.9509,4.9509,4.9509,4.9509,4.9509,4.9509,4.9493,4.9443,4.9358,4.926,4.9195,4.9214,4.9162,4.9077,4.9044,4.8993,4.8839,4.8495,4.8213,4.8172,4.7736,4.7464,4.7464,4.7378,4.716,4.6771,4.6747,4.6578,4.6221,4.6196,4.6196,4.6196,4.6196,4.6196,4.6196,4.6196,4.6196,4.6196,4.6196,4.6196,4.486,4.5064,4.5297,4.4851,0.0,0.0,0.0,4.4443,4.4501,4.5749,4.6346,4.6929,4.7784,4.8658,4.9401,4.9829,5.0969,5.196,5.2387,5.3838,5.4851,5.4851,5.5053,5.5162,5.5055,5.5147,5.4941,5.4305,5.3402,5.2307,5.0971,5.0522,5.0107,4.9711,4.9692,4.9682,4.9593,4.9593,4.9567,4.9509,4.9509,4.9509,4.9509,4.9509,4.9509,4.9509,4.9509,4.9509,4.9509,4.9509,4.9509,4.9509,4.9509,4.9509,4.9509,4.9509,4.9509,4.9509,4.9509,4.9509,4.9509,4.9509,4.9509,4.9509,4.9509,4.9509,4.9509,4.9509,4.9509,4.9509,4.9509,4.9509,4.9509,4.9509,4.9509,4.9509,4.9509,4.9509,4.9621,5.0016,5.004,4.9859,4.9418,4.9345,4.9345,4.9345,4.9669,4.9882,4.9851,4.959,4.9378,4.936,4.8567,4.8041,4.8041,4.7802,4.7554,4.7299,4.7049,4.6794,4.6572,4.6326,4.6196,4.6196,4.6196,4.6196,4.6196,4.6196,4.6196,4.6196,4.6196,4.6196,4.5978,4.5986,4.6002,0.0,0.0,4.5161,0.0,0.0,0.0,4.5672,4.6443,4.7045,4.7045,0.0,0.0,4.9071,0.0,0.0,0.0,5.1766,0.0,5.3384,5.4121,5.458,5.4549,5.4589,5.4365,5.3736,5.3376,5.2708,5.1637,5.1276,5.0803,5.0158,4.9987,4.9857,4.975,4.9736,4.9678,4.9582,4.9582,4.9567,4.9536,4.9536,4.9521,4.9509,4.9509,4.9509,4.9509,4.9509,4.9509,4.9509,4.9509,4.9509,4.9509,4.9509,4.9509,4.9509,4.9509,4.9509,4.9509,4.9509,4.9509,4.9509,4.9509,4.9509,4.9509,4.9509,4.9509,4.9509,4.9509,4.9602,4.9734,4.9734,4.9847,4.9959,4.9959,4.9959,5.0147,5.0804,5.0917,5.071,5.0072,4.9959,4.9959,4.9959,5.0459,5.0841,5.0825,5.074,5.0652,5.0652,4.9576,4.8862,4.8862,4.8345,4.7944,4.7864,4.7449,4.7164,4.7075,4.6701,4.6483,4.6477,4.6453,4.6453,4.6453,4.6374,4.6295,4.6196,4.6196,4.6196,0.0,0.0,0.0,0.0,4.5924,0.0,0.0,0.0,4.5691,4.5064,0.0,0.0,0.0,0.0,0.0,0.0,0.0,0.0,4.7861,4.858,5.0017,5.2271,5.3294,5.3773,5.3666,5.2781,5.2705,5.395,5.2558,5.2134,5.3248,5.1921,5.1068,5.0973,5.0272,4.9879,4.9885,4.9885,4.9871,4.9857,4.9857,4.9788,4.9682,4.9682,4.9608,4.9509,4.9509,4.9509,4.9509,4.9509,4.9509,4.9509,4.9509,4.9509,4.9509,4.9509,4.9509,4.9509,4.9509,4.9509,4.9509,4.9509,4.9509,4.9509,4.9509,4.9509,4.9509,4.9509,4.9509,4.9509,4.9509,5.0034,5.056,5.056,5.1104,5.163,5.163,5.163,5.1649,5.1762,5.1762,5.1743,5.1649,5.163,5.163,5.163,5.1689,5.1731,5.1665,5.1649,5.1615,5.1566,5.0731,5.0193,5.0193,4.9471,4.8853,4.844,4.8366,4.8121,4.7727,4.7581,4.7512,4.7442,4.7442,4.7442,4.7442,4.7004,4.6602,4.6196,4.6196,4.6196,0.0,0.0,0.0,0.0,0.0,0.0,4.5574,0.0,4.5905,0.0,0.0,0.0,0.0,0.0,0.0,0.0,4.7376,0.0,0.0,0.0,4.9007,0.0,0.0,0.0,5.2651,5.2307,5.2425,5.3387,5.233,5.2059,5.3091,5.2469,5.1859,5.1389,5.1059,5.0621,5.0018,5.0018,4.9978,4.9912,4.9912,4.9871,4.9816,4.9816,4.9792,4.9736,4.9736,4.9736,4.9721,4.9653,4.9608,4.9608,4.9521,4.9509,4.9509,4.9509,4.9509,4.9509,4.9509,4.9509,4.9509,4.9509,4.9809,5.0185,5.0185,5.0522,5.0898,5.0898,5.0898,5.0898,5.0898,5.1142,5.1405,5.1405,5.1649,5.1912,5.1912,5.1912,5.2043,5.255,5.2644,5.2794,5.3264,5.255,5.1912,5.1912,5.2325,5.2644,5.263,5.2611,5.2613,5.258,5.1794,5.1272,5.1272,5.0939,5.0632,5.0441,4.9675,4.9249,4.9257,4.8774,4.8714,4.9167,4.8629,4.8372,4.8408,4.7659,4.7204,4.6999,4.6453,4.6196,4.5627,0.0,0.0,0.0,0.0,0.0,0.0,0.0,0.0,0.0,0.0,0.0,0.0,0.0,0.0,0.0,0.0,4.722,0.0,4.7492,0.0,0.0,0.0,0.0,0.0,5.1458,5.16,5.2654,5.1758,5.1645,5.274,5.2834,5.2471,5.1639,5.1589,5.1133,5.0158,5.0158,5.0108,4.9999,4.9999,4.9986,4.9946,4.9946,4.992,4.9912,4.9912,4.9912,4.9879,4.9788,4.9745,4.975,4.9653,4.9608,4.9593,4.9521,4.9509,4.9509,4.9509,4.9509,4.9546,4.9753,5.0222,5.0745,5.0954,5.1442,5.1912,5.1912,5.1912,5.1912,5.1912,5.2081,5.225,5.225,5.2419,5.2588,5.2588,5.2588,5.2775,5.3412,5.3543,5.3695,5.4296,5.3395,5.2588,5.2588,5.3113,5.3543,5.3543,5.3543,5.3543,5.3543,5.2757,5.225,5.225,5.1994,5.183,5.183,5.0907,5.0491,5.0702,5.0149,5.0112,5.0681,5.0014,4.9699,4.9736,4.893,4.8537,4.8498,4.7178,4.6578,0.0,0.0,0.0,4.5873,0.0,0.0,0.0,0.0,4.623,0.0,0.0,0.0,0.0,0.0,0.0,0.0,0.0,0.0,0.0,0.0,0.0,0.0,0.0,0.0,0.0,4.9582,4.9502,0.0,5.0505,5.0529,5.2676,5.2912,5.2559,5.1639,5.1589,5.1169,5.029,5.029,5.029,5.029,5.029,5.0219,5.0095,5.0095,5.0031,4.9912,4.9912,4.9912,4.9912,4.9898,4.9879,4.9879,4.9898,4.9898,4.9857,4.9612,4.9509,4.9509,4.9509,4.9509,4.9621,5.041,5.0688,5.0857,5.163,5.1874,5.1912,5.1912,5.1912,5.1912,5.1912,5.2531,5.3167,5.3167,5.3752,5.4315,5.4315,5.4315,5.4334,5.4352,5.4352,5.4371,5.4409,5.4352,5.4315,5.4315,5.4334,5.4352,5.4352,5.4352,5.4352,5.4352,5.3639,5.3167,5.3167,5.2381,5.1912,5.1912,5.1858,5.1809,5.1763,5.1744,5.1694,5.1663,5.1644,5.1608,5.1608,5.1121,5.0896,5.084,4.861,4.7548,0.0,0.0,4.5719,4.6301,0.0,0.0,0.0,0.0,0.0,0.0,0.0,0.0,0.0,0.0,0.0,0.0,0.0,0.0,0.0,0.0,0.0,0.0,0.0,0.0,0.0,0.0,0.0,0.0,4.995,0.0,5.2183,5.2868,5.2751,5.1765,5.2283,5.1844,5.0321,5.0302,5.0302,5.0302,5.0302,5.0278,5.0231,5.0231,5.0219,5.0151,5.0151,5.0151,5.017,5.007,5.0031,5.0031,4.992,4.9912,4.9898,4.9788,4.9707,4.9698,5.0137,5.0278,5.0429,5.1236,5.1874,5.2416,5.2679,5.3132,5.3545,5.3545,5.3545,5.3545,5.3545,5.377,5.3977,5.3977,5.4202,5.4409,5.4409,5.4409,5.4409,5.4409,5.4409,5.4409,5.4409,5.4409,5.4409,5.4409,5.4409,5.4409,5.4409,5.4409,5.4409,5.4409,5.4165,5.3977,5.3977,5.3714,5.3545,5.3545,5.3038,5.3001,5.3512,5.3005,5.2969,5.3479,5.2885,5.257,5.257,5.1817,5.1449,5.1431,5.0657,4.9947,4.5383,4.536,0.0,4.6494,4.6385,0.0,4.7264,0.0,0.0,0.0,0.0,0.0,0.0,0.0,0.0,0.0,0.0,0.0,0.0,4.6346,0.0,0.0,0.0,0.0,0.0,0.0,4.9413,5.0509,4.9801,0.0,0.0,5.2573,5.2441,5.1443,5.2209,5.1913,5.0393,5.0317,5.0302,5.0302,5.0302,5.0302,5.0302,5.0302,5.0302,5.0302,5.0302,5.0302,5.029,5.0207,5.017,5.017,5.0082,5.0038,5.0025,4.9939,5.0033,5.0293,5.1054,5.128,5.1384,5.2177,5.2768,5.3261,5.3543,5.3977,5.4409,5.4409,5.4409,5.4409,5.4409,5.4409,5.4409,5.4409,5.4409,5.4409,5.4409,5.4409,5.4409,5.4409,5.4409,5.4409,5.4409,5.4409,5.4409,5.4409,5.4409,5.4409,5.4409,5.4409,5.4409,5.4409,5.4409,5.4409,5.4409,5.4409,5.4409,5.4409,5.3902,5.3846,5.4371,5.3902,5.3864,5.439,5.3813,5.3498,5.3498,5.2922,5.2662,5.2662,5.2662,5.2306]}]]